GFSCGP_prec_radar_021.txt.gz
Reflectivity
-16 -20 -16 -20 -20 -20 -20 -20 -20 -20 -20 -20 -20 -20 -20 -20 -20 -20 -20 -20 -20 -20 -19 -17 -15 -9 -20 -20 -20 -12 26 -0 0 25 -0 -18 -20 -20 -20 -20 -20 -20 -20 -20
-20 -20 -20 -20 -20 -20 -20 -20 -20 -20 -20 -20 -20 -20 -20 -20 -20 -20 -20 -20 -20 -20 -20 -20 -20 -20 -20 -20 -20 -20 -20 -20 -20 -20 -20 -20 -20 -20 -20 -20 -20 -20 -20 -20
-14 -19 -20 -20 -20 -20 -20 -20 -20 -20 -20 -20 -20 -20 -20 -20 -20 -20 -20 -20 -20 -20 -20 -20 -20 -20 -20 -20 -20 -20 -20 -20 -20 -20 -20 -20 -20 -20 -20 -20 -20 -20 -20 -20
-20 -20 -20 -20 -20 -20 -20 -20 -20 -20 -20 -20 -20 -20 -20 -20 -20 -20 -20 -20 -20 -20 -20 -20 -20 -20 -20 -19 -20 -20 -20 -20 -20 -20 -20 -20 -20 -20 -20 -20 -20 -20 -20 -20
-20 -20 -20 -20 -20 -20 -20 -20 -20 -20 -20 -20 -20 -20 -20 -20 -20 -20 -20 -20 -20 -20 -20 -20 -20 -20 -20 -20 -20 -20 -20 -20 -20 -20 -20 -20 -20 -20 -20 -20 -20 -20 -20 -20
-20 -20 -20 -20 -20 -20 -20 -20 -20 -20 -20 -20 -20 -20 -20 -20 -20 -20 -20 -20 -20 -20 -20 -20 -20 -20 -20 -20 -20 -20 -20 -20 -20 -20 -20 -20 -20 -20 -20 -20 -20 -20 -20 -20
-20 -20 -20 -20 -20 -20 -20 -20 -20 -20 -20 -20 -20 -20 -20 -20 -20 -20 -20 -20 -20 -20 -20 -20 -20 -20 -20 -20 -20 -20 -20 -20 -20 -20 -20 -20 -20 -20 -20 -20 -20 -20 -20 -20
-20 -20 -20 -20 -20 -20 -20 -20 -20 -20 -20 -20 -20 -20 -20 -20 -20 -20 -20 -20 -20 -20 -20 -20 -20 -20 -20 -20 -20 -20 -20 -20 -20 -20 -20 -20 -20 -20 -20 -20 -20 -20 -20 -20
-20 -20 -20 -20 -20 -20 -20 -20 -20 -20 -20 -20 -20 -20 -20 -20 -20 -20 -20 -20 -20 -20 -20 -20 -20 -20 -20 -20 -20 -20 -20 -20 -20 -0 7 -20 -20 -20 -20 -20 -20 -20 -20 -20
-20 -20 -20 -20 -20 -20 -20 -20 -20 -20 -20 -20 -20 -20 -20 -20 -20 -20 -20 -20 -20 -20 -20 -20 -20 -20 -20 -20 -20 -20 -20 -9 -5 1 -20 -20 -20 -20 -20 -20 -20 -20 -20 -20
-20 -20 -20 -20 -20 -20 -20 -20 -20 -20 -20 -20 -20 -20 -20 -20 -20 -20 -20 -20 -20 -20 -20 -20 -20 -20 -20 -20 -20 -20 -20 18 -5 -19 -8 -20 -20 -20 -20 -20 -20 -20 -20 -20
-20 -20 -20 -20 -20 -20 -20 -20 -20 -20 -20 -20 -20 -20 -20 -20 -20 -20 -20 -20 -20 -20 -20 -20 -20 -20 -20 -20 -15 -13 -16 -20 3 13 -20 -20 -20 -20 -20 -20 -20 -20 -20 -20
-20 -20 -20 -20 -20 -20 -20 -20 -20 -20 -20 -20 -20 -20 -20 -20 -20 -20 -20 -20 -20 -20 -20 -20 -20 -20 -20 -8 -4 14 -20 -6 10 -20 -20 -20 -20 -20 -20 -20 -20 -20 -20 -20
-20 -20 -20 -20 -20 -20 -20 -20 -20 -20 -20 -20 -20 -20 -20 -20 -20 -20 -20 -20 -20 -20 -20 -20 -20 -20 -6 2 10 -20 -1 10 -20 -20 -20 -20 -20 -20 -20 -20 -20 -20 -20 -20
-20 -20 -20 -20 -20 -20 -20 -20 -20 -20 -20 -20 -20 -20 -20 -20 -20 -20 -20 -20 -20 -20 -20 -20 -20 -20 0 -17 -20 10 5 -20 -20 -20 -20 -20 -20 -20 -20 -20 -20 -20 -20 -20
-20 -20 -20 -20 -20 -20 -20 -20 -20 -20 -20 -20 -20 -20 -20 -20 -20 -20 -20 -20 -20 -20 -20 -20 -20 -15 -16 -20 14 -15 -20 -20 -20 -20 -20 -20 -20 -20 -20 -20 -20 -20 -20 -20
-20 -20 -20 -20 -20 -20 -20 -20 -20 -20 -20 -20 -20 -20 -20 -20 -20 -20 -20 -20 -20 -20 -20 -20 -19 -20 -20 7 -19 -20 -20 -20 -20 -20 -20 -20 -20 -20 -20 -20 -20 -20 -20 -20
-20 -20 -20 -20 -20 -20 -20 -20 -20 -20 -20 -20 -20 -20 -20 -20 -20 -20 -20 -20 -20 -20 -20 -20 -20 -20 -9 -20 -20 -20 -20 -20 -20 -20 -20 -20 -20 -20 -20 -20 -20 -20 -20 -20
-20 -20 -20 -20 -20 -20 -20 -20 -20 -20 -20 -20 -20 -20 -20 -20 -20 -20 -20 -20 -20 -20 -20 -20 -20 -12 -20 -20 -20 -20 -20 -20 -20 -20 -20 -20 -20 -20 -20 -20 -20 -20 -20 -20
-20 -20 -20 -20 -20 -20 -20 -20 -20 -20 -20 -20 -20 -20 -20 -20 -20 -20 -20 -20 -20 -20 -20 -20 -20 -20 -20 -20 -20 -20 -20 -20 -20 -20 -20 -20 -20 -20 -20 -20 -20 -20 -20 -20
-20 -20 -20 -20 -20 -20 -20 -20 -20 -20 -20 -20 -20 -20 -20 -20 -20 -20 -20 -20 -20 -20 -20 -19 -19 -12 -16 -20 -20 -20 -20 -20 -20 -20 -20 -20 -20 -20 -20 -20 -20 -20 -20 -20
-20 -20 -20 -20 -20 -20 -20 -20 -20 -20 -20 -20 -20 -20 -20 -20 -20 -20 -20 -20 -20 -20 -20 -7 14 4 -20 -20 -20 -20 -20 -20 -20 -20 -20 -20 -20 -20 -20 -20 -20 -20 -20 -20
-20 -20 -20 -20 -20 -20 -20 -20 -20 -20 -20 -20 -20 -20 -20 -20 -20 -20 -20 -20 -20 -20 -20 4 -5 -18 -20 -20 -20 -20 -20 -20 -20 -20 -20 -20 -20 -20 -20 -20 -20 -20 -20 -20
-20 -20 -20 -20 -20 -20 -20 -20 -20 -20 -20 -20 -20 -20 -20 -20 -20 -20 -20 11 -1 -20 7 -2 -5 3 -20 -14 -20 -20 -20 -20 -20 -20 -20 -20 -20 -20 -20 -20 -20 -20 -20 -20
-20 -20 -20 -20 -20 -20 -20 -20 -20 -20 -20 -20 -20 -20 -20 -20 -20 -20 -20 -20 -17 34 20 -1 12 7 -7 -19 -14 -20 -20 -20 -20 -20 -20 -20 -20 -20 -20 -20 -20 -20 -20 -20
-20 -20 -20 -20 -20 -20 -20 -20 -20 -20 -20 -20 -20 -20 -20 -20 -20 -20 -20 -12 17 -1 5 -9 -4 7 3 6 -11 -20 -20 -20 -20 -20 -20 -20 -20 -20 -20 -20 -20 -20 -20 -20

GFSCGP_prec_radar_024.txt.gz
Reflectivity
-16 14 5 -11 -20 -19 -20 -20 -20 -20 -20 -20 -20 -20 -20 -20 -20 -20 -20 -20 -20 -20 -20 -20 -20 -20 -20 -4 -6 12 11 2 -20 -20 -20 -20 -20 -20 -20 -20 -20 -20 -20 -20
7 -11 -15 7 -20 -20 -20 -20 -20 -20 -20 -20 -20 -20 -20 -20 -20 -20 -20 -20 -20 -20 -20 -20 -20 -17 -7 -15 -12 3 4 -20 -20 -20 -20 -20 -20 -20 -20 -20 -20 -20 -20 -20
-2 -14 -20 -20 -20 -20 -20 -20 -20 -20 -20 -20 -20 -20 -20 -20 -20 -20 -20 -20 -20 -20 -20 -20 -20 -1 -1 -3 4 6 -8 -20 -20 -20 -20 -20 -20 -20 -20 -20 -20 -20 -20 -20
1 -20 -18 -19 -20 -20 -20 -20 -20 -20 -20 -20 -20 -20 -20 -20 -20 -20 -20 -20 -20 -20 -20 -20 -20 -20 4 5 5 -20 -20 -20 -20 -20 -20 -20 -20 -20 -20 -20 -20 -20 -20 -20
-3 -18 -20 -20 -20 -20 -20 -20 -20 -20 -20 -20 -20 -20 -20 -20 -20 -20 -20 -20 -20 -20 -20 -20 -20 -20 -20 -20 -20 -20 -20 -20 -20 -20 -20 -20 -20 -20 -20 -20 -20 -20 -20 -20
-20 -20 -20 -20 -20 -20 -20 -20 -20 -20 -20 -20 -20 -20 -20 -20 -20 -20 -20 -20 -20 -20 -20 -20 -20 -20 -20 -20 -20 -20 -20 -20 -20 -20 -20 -20 -20 -20 -20 -20 -20 -20 -20 -20
-20 -20 -20 -20 -20 -20 -20 -20 -20 -20 -20 -20 -20 -20 -20 -20 -20 -20 -20 -20 -20 -20 -20 -20 -20 -20 -20 -20 -20 -20 -20 -20 -20 -20 -20 -20 -20 -13 -20 -20 -20 -20 -20 -20
-20 -20 -20 -20 -20 -20 -20 -20 -20 -20 -20 -20 -20 -20 -20 -20 -20 -20 -20 -20 -20 -20 -20 -20 -20 -20 -20 -20 -20 -20 -20 -20 -20 -20 -20 -20 20 -17 -20 -20 -20 -20 -20 -20
-20 -20 -20 -20 -20 -20 -20 -20 -20 -20 -20 -20 -20 -20 -20 -20 -20 -20 -20 -20 -20 -20 -20 -20 -20 -20 -20 -20 -20 -20 -20 -20 -20 -20 -19 4 -17 -20 -20 -20 -20 -20 -20 -20
-20 -20 -20 -20 -20 -20 -20 -20 -20 -20 -20 -20 -20 -20 -20 -20 -20 -20 -20 -20 -20 -20 -20 -20 -20 -20 -20 -20 -20 -20 -20 -20 -20 -19 -20 -20 -20 -20 -20 -20 -20 -20 -20 -20
-20 -20 -20 -20 -20 -20 -20 -20 -20 -20 -20 -20 -20 -20 -20 -20 -20 -20 -20 -20 -20 -20 -20 -20 -20 -20 -20 -20 -20 -20 -20 -20 -20 -10 4 -20 -20 -20 -20 -20 -20 -20 -20 -20
-20 -20 -20 -20 -20 -20 -20 -20 -20 -20 -20 -20 -20 -20 -20 -20 -20 -20 -20 -20 -20 -20 -20 -20 -20 -20 -20 -20 -20 -20 -20 -20 -6 23 -20 -20 -20 -20 -20 -20 -20 -20 -20 -20
-20 -20 -20 -20 -20 -20 -20 -20 -20 -20 -20 -20 -12 -20 -20 -20 -20 -20 -20 -20 -20 -20 -20 -20 -20 -20 -20 -20 -20 -20 -20 -5 17 -20 -20 -20 -20 -20 -20 -20 -20 -20 -20 -20
-20 -20 -20 -20 -20 -20 -20 -20 -20 -20 -20 -20 -20 -20 -20 -20 -20 -20 -20 -20 -20 -20 -20 -20 -20 -20 -20 -20 -20 -20 6 12 -20 -20 -20 -20 -20 -20 -20 -20 -20 -20 -20 -20
-20 -20 -20 -20 -20 -20 -20 -20 -20 -20 -20 -20 -20 -20 -20 -20 -20 -20 -20 -20 -20 -20 -20 -20 -20 -20 -20 -20 -20 -20 16 -20 -19 -20 -20 -20 -20 -20 -20 -20 -20 -20 -20 -20
-20 -20 -20 -20 -20 -20 -20 -20 -20 -20 -20 -20 -20 -20 -20 -20 -20 -20 -20 -20 -20 -20 -20 -20 -20 -20 -20 -20 -20 -20 23 -20 -20 -20 -20 -20 -20 -20 -20 -20 -20 -20 -20 -20
-20 -20 -20 -20 -20 -20 -20 -20 -20 -20 -20 -20 -20 -20 -20 -20 -20 -20 -20 -20 -20 -20 -20 -20 -20 -20 -20 -19 -13 20 -14 -20 -20 -20 -20 -20 -20 -20 -20 -20 -20 -20 -20 -20
-20 -20 -20 -20 -20 -20 -20 -20 -20 -20 -20 -20 -20 -20 -20 -20 -20 -20 -20 -20 -20 -20 -20 -20 -20 -20 -20 -17 3 -20 -20 -20 -20 -20 -20 -20 -20 -20 -20 -20 -20 -20 -20 -20
-20 -20 -20 -13 -20 -20 -20 -20 -20 -20 -20 -20 -20 -20 -20 -20 -20 -20 -20 -20 -20 -20 -20 -20 -20 -20 -20 -20 -4 -20 -20 -20 -20 -20 -20 -20 -20 -20 -20 -20 -20 -20 -20 -20
-20 -20 -20 -20 -17 -20 -20 -20 -20 -20 -20 -20 -20 -20 -20 -20 -20 -20 -20 -20 -20 -20 -20 -20 -20 -20 -20 12 -17 -19 -14 -20 -20 -20 -20 -20 -20 -20 -20 -20 -20 -20 -20 -20
-20 -20 12 -20 2 -20 -20 -20 -20 -20 -20 -20 -20 -20 -20 -20 -20 -20 -20 -20 -20 -20 -20 -20 -20 -20 -20 -20 1 12 -17 -20 -16 -19 -20 -20 -20 -20 -20 -20 -20 -20 -20 -20
-20 -20 -20 -20 10 -20 -20 -20 -7 -20 -20 -20 -20 -20 -20 -20 -20 -20 -20 -20 -20 -20 -20 -20 -20 -20 -20 -4 6 -9 -20 -8 10 7 -20 -20 -20 -20 -20 -20 -20 -20 -20 -20
-20 -19 -20 -20 -20 -20 -20 -20 -20 -20 -20 -20 -20 -20 -20 -20 -20 -20 -20 -20 -20 -20 -20 -7 25 -1 21 18 15 5 -1 15 4 -20 -20 -20 -20 -20 -20 -20 -14 -3 -4 -2
-20 -20 -20 -20 -20 -20 -20 -20 -20 -20 -20 -20 -20 -20 -20 -20 -20 -20 -20 -20 -20 -20 -20 -3 -14 18 9 2 -12 13 8 1 -3 -15 -19 -20 -20 -20 -20 -20 -20 -9 -20 -1
-20 -20 -20 -20 -20 -20 -20 -20 -20 -20 -20 -20 -20 -20 -20 -20 -20 -20 -20 -20 -20 -20 -2 19 29 28 15 6 5 5 3 -2 -10 -8 -16 -20 -20 -20 -20 -20 -8 -6 -10 -0
-20 -20 -20 -20 -20 -20 -20 -20 -20 -20 -20 -20 -20 -20 -20 -20 -20 -20 -20 -20 -20 -5 13 20 19 20 17 16 6 7 3 -8 -9 -20 -20 -20 -20 -12 -5 -3 -7 -20 -20 -20

GFSCGP_prec_radar_027.txt.gz
Reflectivity
-20 -5 -9 -13 16 -0 6 11 -11 -20 -20 -20 -20 -20 -20 -20 -20 -20 -20 -20 -20 -20 -20 -20 -20 -20 -20 -20 -20 -4 -20 -13 -20 -20 -20 -20 -20 -20 -20 -20 -20 -20 -20 -20
-19 -3 5 -8 5 -19 -20 -5 -6 -20 -20 -20 -20 -20 -20 -20 -20 -20 -20 -20 -20 -20 -20 -20 -20 -20 -20 -20 -20 1 -7 5 28 -20 -5 -20 -20 -20 -20 -20 -20 -20 -20 -20
7 16 -19 -3 -18 -20 -20 -19 -10 -20 -20 -20 -20 -9 -20 -20 -20 -20 -20 -20 -20 -20 -20 -20 -20 -20 -20 -18 -7 1 -10 5 -20 -19 -20 -20 -20 -20 -20 -20 -20 -20 -20 -20
22 2 9 -20 11 -8 -0 -19 -9 -20 -20 -20 -20 4 16 -20 -20 -20 -20 -20 -20 -20 -20 -20 -20 -10 -6 -1 -0 12 1 -11 -20 -20 -20 -20 -20 -20 -20 -20 -20 -20 -20 -20
29 -12 -17 -4 12 -20 28 -17 -20 -20 -11 32 3 -20 -1 11 -20 -20 -20 -20 -20 -20 -20 -20 -20 -20 3 2 -20 -16 -20 -20 -20 -20 -20 -20 -20 -20 -20 -20 -19 -20 -20 -20
28 -9 -20 -13 -20 -20 -20 -20 -20 -20 -20 -20 -20 15 15 3 -17 -20 -20 -20 -20 -20 -20 -20 -20 -20 -20 -20 -20 -20 -20 -20 -20 -20 -20 -20 -20 -20 -20 -19 9 -20 -20 -20
-20 -16 -20 -20 -20 -20 -20 -20 -13 10 2 -20 -14 -20 -20 2 -18 -20 -20 -20 -20 -20 -20 -20 -20 -20 -20 -20 -20 -20 -20 -20 -20 -20 -20 -20 -20 -20 -17 11 -20 -20 -20 -20
-13 -20 -20 -20 -20 -20 -20 -20 1 -18 -20 -20 -20 -20 -20 -20 -20 -20 -20 -20 -20 -20 -20 -20 -20 -20 -20 -20 -20 -20 -20 -20 -20 -20 -20 -20 -20 -18 -7 -20 -20 -20 -20 -20
-6 25 -18 -20 -20 -20 -20 -20 -20 -20 -20 -20 -20 -20 -20 -20 -20 -20 -20 -20 -20 -20 -20 -20 -20 -20 -20 -20 -20 -20 -20 -20 -20 -20 -20 -20 -20 -17 6 -19 -20 -20 -20 -20
-20 -20 -20 -20 -20 -20 -20 -20 -20 -20 -20 -20 -20 -20 -20 -20 -20 -20 -20 -20 -20 -20 -20 -20 -20 -20 -20 -20 -20 -20 -20 -20 -20 -20 -20 -20 -16 20 14 -20 -20 -20 -20 -20
-20 -20 -20 -20 -20 -20 -20 -20 -20 -20 -20 -20 -20 -20 -20 -20 -20 -20 -20 -20 -20 -20 -20 -20 -20 -20 -20 -20 -20 -20 -20 -20 -20 -20 -20 -17 10 12 -20 -20 -20 -20 -20 -20
-20 -20 -20 -20 -20 -20 -20 -20 -20 -20 -20 -20 -20 -20 -20 -20 -20 -20 -20 -20 -20 -20 -20 -20 -20 -20 -20 -20 -20 -20 -20 -20 -20 -20 -20 4 9 -20 -20 -20 -20 -20 -20 -20
-20 -20 -20 -20 -20 -20 -20 -20 -20 -20 -20 -20 -20 -20 -20 -20 -20 -20 -20 -20 -20 -20 -20 -20 -20 -20 -20 -20 -20 -20 -20 -20 -20 -20 -13 12 -20 -20 -20 -20 -20 -20 -20 -20
-20 -20 -20 -20 -20 -20 -20 -20 -20 -20 -20 -20 -20 -20 -20 -20 -20 -20 -20 -20 -20 -20 -20 -20 -20 -20 -20 -20 -20 -20 -20 -20 -20 -20 -7 9 -20 -20 -20 -20 -20 -20 -20 -20
-20 -20 -20 -20 -20 -20 -20 -20 -20 -20 -20 -20 -20 -20 -20 -20 -20 -20 -20 -20 -20 -20 -20 -20 -20 -20 -20 -20 -20 -20 -20 -20 -16 -15 -19 7 -20 -20 -20 -20 -20 -20 -20 -20
-20 -20 -20 -20 -20 -20 -20 -20 -20 -20 -20 -20 -20 -20 -20 -20 -20 -20 -20 -20 -20 -20 -20 -20 -20 -20 -20 -20 -20 -20 -20 -20 -20 -20 15 -20 -20 -20 -20 -20 -20 -20 -20 -20
-20 -20 -20 -20 -20 -20 -20 -20 -20 -20 -20 -20 -20 -20 -20 -20 -20 -20 -20 -20 -20 -20 -20 -20 -20 -20 -20 -20 -20 -20 -20 -20 2 -9 -6 -20 -20 -20 -20 -20 -20 -20 -20 -20
-20 -20 -20 -20 -20 -9 -20 -20 -20 -20 -20 -20 -20 -20 -20 -20 -20 -20 -20 -20 -20 -20 -20 -20 -20 -20 -20 -20 -20 -20 -20 -10 -20 -5 -20 -20 -20 -20 -20 -16 -20 -20 -20 -20
-20 -20 -20 -16 -20 -20 -20 -20 -20 -20 -20 -20 -20 -20 -20 -20 -20 -20 -20 -20 -20 -20 -20 -20 -20 -20 -20 -20 -20 -20 -20 -20 -19 11 -8 -20 -20 -19 2 -15 -20 -20 -20 -20
-20 -20 -20 -20 -20 -20 -20 -20 -20 -20 -20 -20 -20 -20 -20 -20 -20 -20 -20 -20 -20 -20 -20 -20 -20 -20 -20 -20 -20 -20 -20 -20 4 -20 -8 -15 -20 5 -9 -20 -20 -20 -20 -20
-20 -20 -5 -20 -9 -20 -20 -20 -20 -20 -20 -20 -20 -20 -20 -20 -20 -20 -20 -20 -20 -20 -20 -20 -20 -20 -20 -20 -20 3 9 19 13 -13 -14 9 16 7 -11 -20 -20 -20 -20 -18
-20 -20 -20 -20 -5 -20 -20 -20 -20 -20 -20 -20 -20 -20 -20 -20 -20 -20 -20 -20 -20 -20 -20 -20 -20 -20 -20 -20 -20 21 19 14 11 -2 19 16 9 7 -6 -20 -20 -14 -6 -8
-20 -20 -20 -20 -20 -20 -20 -20 -20 -20 -20 -20 -20 -20 -20 -20 -20 -20 -20 -20 -20 -20 -20 -20 -20 -20 -20 -9 22 17 10 7 13 17 16 12 2 -1 -6 -20 -10 -17 -20 -1
-20 -20 -20 -20 -20 -20 -20 -20 -20 -20 -20 -20 -20 -20 -20 -20 -20 -20 -20 -20 -20 -20 -20 -20 -20 -20 17 21 24 26 11 12 14 16 15 11 3 -2 -6 -1 -16 -18 -16 -1
-20 -20 -20 -20 -20 -20 -20 -20 -20 -20 -20 -20 -20 -20 -20 -20 -20 -20 -20 -20 -20 -20 -20 -20 4 24 13 19 14 1 9 12 13 12 10 3 -5 2 -1 -5 -17 -20 -19 3
-20 -20 -20 -20 -20 -20 -20 -20 -20 -20 -20 -20 -20 -20 -20 -20 -20 -20 -20 -20 -20 -20 -20 -11 -5 12 13 19 18 15 12 9 8 4 5 9 12 -6 -19 -20 -20 -20 -20 -20

GFSCGP_prec_radar_030.txt.gz
Reflectivity
-20 -20 -14 7 20 6 -1 -20 -1 -20 -20 -20 -19 -20 -20 -20 -20 -20 -20 -20 -20 -20 -20 -20 -20 -20 -20 -20 -20 -20 -20 -20 -20 -20 -20 -20 -20 -20 -20 -20 -20 -20 -20 -20
9 -11 5 19 4 -9 3 12 16 -20 -20 -20 -20 -20 -20 -20 -20 -20 -20 -20 -20 -20 -20 -20 -20 -20 -20 -20 -20 -20 -4 -20 -20 4 -20 -20 -20 -20 -20 -20 -20 -20 -20 -20
5 6 -11 -20 -3 -18 -17 12 -3 -13 -20 -20 -20 -20 -20 -20 -20 -20 -20 -20 -20 -20 -20 -20 -20 -20 -20 -20 -20 -20 -20 -20 -20 -0 -20 -20 -20 -20 -20 -20 -20 -20 -20 -20
-11 -4 -20 -20 6 -6 -12 -1 -16 -10 -20 -20 -20 8 14 9 -14 -20 -20 -20 -20 -20 -20 -20 -20 -20 -20 -20 -20 -20 12 -6 -20 -20 -20 -20 -20 -20 -20 -20 -20 -20 -20 -20
-15 -13 1 -0 14 13 -16 -19 -20 -20 -20 -20 8 -12 -8 8 -9 -20 -20 -20 -20 -20 -20 -20 -20 -20 -20 -6 -4 12 10 -19 -20 -20 -20 -20 -20 -20 -20 -20 -20 -20 -20 -20
-10 -4 21 26 7 -20 -20 -20 -20 -20 -20 -19 15 18 11 -9 -1 19 12 -20 -20 -20 -20 -20 -20 -20 -16 -1 3 -4 -20 -20 -20 -20 -20 -20 -20 -20 -20 -20 -20 -20 -20 -20
-20 -15 -11 -18 -14 -20 -20 -20 -17 -17 4 -20 -20 -9 8 -1 13 10 27 -18 -20 -20 -20 -20 -20 -20 -20 1 -20 -20 -20 -20 -20 -20 -20 -20 -20 -20 -20 -20 -20 -20 -20 -20
5 8 -20 -20 -20 -9 -20 -20 -20 23 9 4 -14 -19 -20 -20 -20 -20 -20 -20 -20 -20 -20 -20 -20 -20 -20 -20 -20 -20 -20 -20 -20 -20 -20 -20 -20 -20 -20 -20 -20 6 -6 0
-19 8 25 -20 -20 -20 -18 -20 -19 -20 -16 -20 -20 -20 -20 -20 -20 -20 -20 -20 -20 -20 -20 -20 -20 -20 -20 -20 -20 -20 -20 -20 -20 -20 -20 -20 -20 -20 -20 -17 -6 1 6 -20
18 29 8 -3 -20 -20 -20 -20 -20 -20 -20 -20 -20 -10 4 -17 -20 -20 -20 -20 -20 -20 -20 -20 -20 -20 -20 -20 -20 -20 -20 -20 -20 -20 -20 -20 -20 -20 -20 -20 9 12 -20 -20
-6 23 10 -20 -20 -20 -20 -20 -20 -20 -20 -20 -20 -18 -20 -20 -20 -20 -20 -20 -20 -20 -20 -20 -20 -20 -20 -20 -20 -20 -20 -20 -20 -20 -20 -20 -20 -20 -20 -11 -9 -20 -20 -20
-20 -20 -20 -20 -20 -20 -20 -20 -20 -20 -20 -20 -20 -20 -20 -20 -20 -20 -20 -20 -20 -20 -20 -20 -20 -20 -20 -20 -20 -20 -20 -20 -20 -20 -20 -20 -20 -7 -17 -20 10 2 -20 -20
-20 -20 -20 -20 -20 -20 -20 -20 -20 -20 -20 -20 -20 -20 -20 -20 -20 -20 -20 -20 -20 -20 -20 -20 -20 -20 -20 -20 -20 -20 -20 -20 -20 -20 -20 -20 -15 7 17 -20 -17 -18 -20 -20
-20 -20 -20 -20 -20 -16 -20 -20 -20 -20 -20 -20 -20 -20 -20 -20 -20 -20 -20 -20 -20 -20 -20 -20 -20 -20 -20 -20 -20 -20 -20 -20 -20 -20 -20 -10 -17 28 -15 -13 4 -20 -20 -20
-20 -20 -20 -20 -13 -4 -20 -20 -20 -20 -20 -20 -20 -20 -20 -20 -20 -20 -20 -20 -20 -20 -20 -20 -20 -20 -20 -20 -20 -20 -20 -20 -20 -20 -20 -15 7 -9 25 -11 -19 -20 -20 -20
-20 -20 -20 -20 -20 -20 -20 -20 -20 -20 -20 -20 -20 -20 -20 -20 -20 -20 -20 -20 -20 -20 -20 -20 -20 -20 -19 -20 -20 -20 -14 -20 -20 -20 -10 -20 18 19 -8 -9 -20 -20 -20 6
-20 -20 -20 -20 -20 -20 -20 -20 -20 -20 -20 -20 -20 -20 -20 -20 -20 -20 -20 -20 -20 -20 -20 -20 -20 -20 -20 -20 7 -20 -20 -20 -20 -20 -17 -11 -2 -1 -19 -15 -3 -17 16 -18
-20 -20 -20 -20 -20 -20 -20 -20 -20 -20 -20 -20 -20 -20 -20 -20 -20 -20 -20 -20 -20 -20 -20 -20 -20 -20 -20 -20 6 -20 -13 -20 -20 -17 -0 14 18 -11 3 -3 -20 4 -18 -8
-20 -20 -20 -20 -20 -20 -20 -20 -20 -20 -20 -20 -20 -20 -20 -20 -20 -20 -20 -20 -20 -20 -20 -20 -20 -20 -20 -18 -20 -20 -20 -20 -20 -17 6 4 10 12 -1 -20 3 -6 10 9
-20 -20 -20 -20 -20 -20 -20 -20 -20 -20 -20 -20 -20 -20 -20 -20 -20 -20 -20 -20 -20 -20 -20 -20 -20 -20 -20 -20 -20 -20 -20 -20 -9 0 11 15 25 1 14 17 16 15 8 8
-20 -20 -20 -20 -20 -20 -20 -20 -20 -20 -20 -20 -20 -20 -20 -20 -20 -20 -20 -20 -20 -20 -20 -20 -20 -20 -20 -20 -20 -20 -20 -18 -1 4 8 10 16 29 19 15 14 12 7 -1
-20 -20 -20 -20 -20 -20 -20 -20 -20 -20 -20 -20 -20 -20 -20 -20 -20 -20 -20 -20 -20 -20 -20 -20 -20 -20 -20 -20 -20 -20 -20 -2 26 26 21 24 17 16 11 6 3 -4 -4 -6
-20 -20 -20 -20 -20 -20 -20 -20 -20 -20 -20 -20 -20 -20 -20 -20 -20 -20 -20 -20 -20 -20 -20 -20 -20 -20 -20 -20 -18 -20 10 21 5 6 15 23 19 13 9 -1 -3 -8 -15 -14
-20 -20 -20 -20 -20 -20 -20 -20 -20 -20 -20 -20 -20 -20 -20 -20 -20 -20 -20 -20 -20 -20 -20 -20 -20 -18 -20 -20 -20 -10 12 17 12 15 14 6 -8 -7 1 3 -20 -20 -20 -20
-20 -20 -20 -20 -20 -20 -20 -20 -20 -20 -20 -20 -20 -20 -20 -20 -20 -20 -20 -20 -20 -20 -20 -20 -20 -19 -3 -6 0 0 -5 -17 -19 -20 -20 -16 -5 -9 -20 -20 -20 -20 -20 -20
-20 -20 -20 -20 -20 -20 -20 -20 -20 -20 -20 -20 -20 -20 -20 -20 -20 -20 -20 -20 -20 -20 -20 -19 -19 -20 -20 -20 -20 -20 -20 -20 -20 -16 -4 -8 -20 -20 -20 -20 -20 -20 -20 -20

GFSCGP_prec_radar_033.txt.gz
Reflectivity
-20 -20 -20 -20 -20 -2 14 -20 -20 -20 -20 -20 -20 -20 -20 -20 -20 -20 -20 -20 -20 -20 -20 -20 -20 -20 -20 -20 -20 -20 -20 -20 -20 -20 -20 -20 -20 -20 -20 -20 -20 -20 -20 -20
-18 -20 -20 -20 -5 -11 -18 -20 -20 -20 -20 -20 -9 -20 -20 -20 -20 -20 -20 -20 -20 -20 -20 -20 -20 -20 -20 -20 -20 -20 -20 -20 -20 -20 -10 -20 -20 -20 -20 -20 -20 -20 -20 -20
-20 -20 1 8 -0 -20 15 -13 -18 0 -20 -20 -18 -20 -20 -20 -20 -20 -20 -20 -20 -20 -20 -20 -20 -20 -20 -20 -20 -20 -20 -20 -20 -20 -20 -20 -20 -20 -20 -20 -20 -20 -20 -20
-20 -18 6 -10 -17 -3 6 14 -20 -20 -19 -20 -20 -20 -20 -20 -20 -20 -20 -20 -20 -20 -20 -20 -20 -20 -20 -20 -20 -20 -20 -20 -20 -20 -20 -20 -20 -20 -20 -20 -20 -20 -20 -20
-20 -20 -20 -20 -20 -20 -19 -20 -20 -20 4 -19 -20 -20 -19 -20 -3 -3 -20 -20 -20 -20 -20 -20 -20 -20 -20 -20 -20 -20 -20 -20 -20 -20 -20 -20 -20 -20 -20 -20 -20 -20 -20 -20
-3 -20 -20 -20 -20 -20 -20 -20 -20 -20 -20 -20 -20 -20 1 -5 -16 -13 -10 4 -20 -20 -20 -19 -20 -20 -20 -20 -20 -20 -20 -20 4 1 -20 -20 -20 -20 -20 -20 -20 -20 -20 -19
-20 -20 17 -14 11 -12 -20 -20 -20 -20 -20 -20 -14 -9 -20 -20 -20 -20 -19 -10 -20 -20 -20 -19 -20 -20 7 -20 -20 -20 -12 -20 -20 -20 -20 -20 -20 -20 -20 -20 -20 -20 -7 -19
-20 -20 2 -20 -18 -5 -20 -20 -20 -20 -20 -20 13 -19 -20 -20 -20 -20 -20 -20 -20 -20 -20 -20 -20 -20 -20 -20 -20 -20 -20 -20 -20 -20 -20 -20 -20 -20 -20 -20 -20 -20 -20 -14
-20 -20 8 -20 -20 -7 -20 -18 -20 -20 -20 -16 -7 -20 -20 -20 -20 -20 -20 -20 -20 -20 -20 -20 -20 -20 -20 -20 -20 -20 -20 -20 -20 -20 -20 -20 -20 -20 -20 -20 -20 14 -2 -20
-20 -20 -4 28 -20 -20 -20 -17 -20 -20 -20 -20 -20 -20 -20 -20 -20 -20 -20 -20 -20 -20 -20 -20 -20 -20 -20 -20 -20 -20 -20 -20 -20 -20 -20 -20 -20 -20 -20 -20 7 -20 10 5
-20 -20 9 4 -18 -20 -20 -20 -20 -20 -20 -20 -20 -20 -20 -20 -20 -20 -20 -20 -20 -20 -20 -20 -20 -20 -20 -20 -20 -20 -20 -20 -20 -20 -20 -20 -20 -20 -19 -16 -3 4 -4 27
-20 -20 1 6 -20 -20 -20 -20 -15 -20 -20 -20 -20 -20 -20 -20 -20 -20 -20 -20 -20 -20 -20 -20 -20 -20 -20 -20 -20 -20 -20 -20 -20 -20 -20 -20 -20 -20 -20 -3 -12 -15 9 8
-20 -20 -20 -20 -20 -14 -20 -20 -20 -20 -20 -20 -20 -20 -20 -20 -20 -20 -20 -20 -20 -20 -20 -20 -20 -20 -20 -20 -20 -20 -20 -20 -20 -20 -20 -20 -19 -4 3 8 22 -20 -18 -20
-20 -20 -20 -20 -20 -20 -20 -20 -20 -20 -20 -20 -20 -20 -20 -20 -20 -20 -20 -20 -20 -20 -20 -20 -20 -20 -20 -20 -20 -20 -20 -20 -20 -20 -20 -20 -9 -9 6 5 -3 -18 8 6
-20 -20 -20 -20 -20 -20 -20 -20 -20 -20 -20 -20 -20 -20 -20 -20 -20 -20 -20 -20 -20 -20 -20 -20 -20 -20 -20 -20 -20 2 2 -20 -20 -20 -20 -18 -10 -4 15 -8 -14 15 -5 -7
-20 -20 -20 -20 -20 -20 -20 -20 -20 -20 -20 -20 -20 -20 -20 -20 -20 -20 -20 -20 -20 -20 -20 -20 -20 -20 22 -19 -19 -20 -20 -5 1 -19 -19 -11 -14 -5 8 -20 9 5 1 -20
-20 -20 -20 -20 -20 -20 -20 -20 -20 -20 -20 -20 -20 -20 -20 -20 -20 -20 -20 -20 -20 -20 -20 -20 -20 -20 -20 -20 -20 -10 6 14 8 14 -3 -8 8 14 -14 -20 -17 -7 -7 11
-20 -20 -20 -20 -20 -20 -20 -20 -20 -20 -20 -20 -20 -20 -20 -20 -20 -20 -20 -20 -20 -20 -20 -20 -20 -20 -20 -20 -20 -20 10 8 -11 -20 -20 -20 -20 8 -1 0 19 6 6 17
1 -20 -20 -20 -20 -20 -20 -20 -20 -20 -20 -20 -20 -20 -20 -20 -20 -20 -20 -20 -20 -20 -20 -20 -20 -20 -20 -20 -20 -20 -14 -20 -20 -20 -20 -20 -17 -18 -15 16 16 21 10 -3
-20 -20 -20 -20 -20 -20 -20 -20 -20 -20 -20 -20 -20 -20 -20 -20 -20 -20 -20 -20 -20 -20 -20 -20 -20 -20 -20 -20 -20 -20 -19 -20 -20 -20 -20 -20 21 24 20 15 -3 -6 -11 3
-20 -20 -20 -20 -20 -20 -20 -20 -20 -20 -20 -20 -20 -20 -20 -20 -20 -20 -20 -20 -20 -20 -20 -20 -20 -20 -20 -20 -20 -20 -12 -4 3 1 18 16 27 16 6 -11 -17 -20 -20 -20
-20 -20 -20 -20 -20 -20 -20 -20 -20 -20 -20 -20 -20 -20 -20 -20 -20 -20 -20 -20 -20 -20 -20 -20 -20 -20 -20 -20 -17 5 6 7 8 -3 20 9 -16 -14 -19 -20 -20 -19 -18 -20
-20 -20 -20 -20 -20 -20 -20 -20 -20 -20 -20 -20 -20 -20 -20 -20 -20 -20 -20 -20 -20 -20 -20 -20 -20 -20 -17 -6 -7 -19 -15 19 21 3 -19 -20 -20 -20 -20 -20 -20 -20 -20 -20
-20 -20 -20 -20 -20 -20 -20 -20 -20 -20 -20 -20 -20 -20 -20 -20 -20 -20 -20 -20 -20 -20 -20 -20 -20 -20 -20 -20 -20 -20 -20 -20 -20 -20 -20 -20 -20 -20 -20 -20 -20 -20 -20 -20
-20 -20 -20 -20 -20 -20 -20 -20 -20 -20 -20 -20 -20 -20 -20 -20 -20 -20 -20 -20 -20 -20 -20 -20 -20 -20 -20 -20 -20 -20 -20 -20 -20 -20 -20 -20 -20 -20 -20 -20 -20 -20 -20 -20
-20 -20 -20 -20 -20 -20 -20 -20 -20 -20 -20 -20 -20 -20 -20 -20 -20 -20 -20 -20 -20 -20 -20 -20 -20 -20 -20 -20 -20 -20 -20 -20 -20 -20 -20 -20 -20 -20 -20 -20 -20 -20 -20 -20

GFSCGP_prec_radar_036.txt.gz
Reflectivity
-20 -20 -20 -20 -20 -20 -20 -20 -20 -20 3 -20 -20 -20 -20 -20 -20 -20 -20 -20 -20 -20 -20 -20 -20 -20 -20 -20 -20 -20 -20 -20 -20 -20 -20 -20 -20 -20 -20 -20 -20 -20 -20 -20
-20 -20 -20 -20 -20 -20 -20 -20 -20 -20 -20 -20 -20 6 -20 -20 -20 -20 -20 -20 -20 -20 -20 -20 -20 -20 -20 -20 -20 28 -20 -20 -20 -20 -20 -20 -20 -20 -20 -20 -20 -20 -20 -20
-20 -20 -20 -20 -14 -10 -20 -20 -20 -20 -20 -20 -20 -20 -20 -20 -20 -20 -20 -4 -20 -20 -20 -20 -20 -20 -20 -20 -20 -20 -14 -20 -20 -20 -20 -20 -20 -20 -20 -20 -20 -20 -20 -20
-20 -20 -20 -20 -20 -19 -20 -20 -20 -20 -20 -20 -20 -20 -20 -20 -20 -20 -20 -20 -20 -20 -20 -20 -20 -20 -20 -20 -20 -20 -20 -15 -20 -20 -20 -20 -20 -20 -20 -20 -20 -20 -20 -20
-20 -20 -20 -20 -20 -20 -20 -20 -20 -20 -20 -20 -20 -20 -20 -20 -20 -20 -20 -20 -20 -20 -20 -20 -20 -20 -20 -19 -20 -20 -20 -20 -20 -20 -20 -20 -20 -20 -20 -20 -20 -20 -20 -20
-20 -20 -20 -9 -20 -20 -20 -20 -20 -20 -20 -20 -20 -20 -20 -20 -20 -20 -20 -20 -20 -20 13 -20 -20 30 28 -4 35 -14 -20 -19 -20 -20 -20 -20 -20 -20 -20 -20 -20 -20 -20 -20
-20 -20 -20 -20 -20 -20 -20 -20 -20 -20 -20 -20 -20 -20 -20 -20 -20 -20 -20 -20 -20 -20 -17 -16 -20 -20 -20 -10 11 -20 -20 -20 -20 -20 -20 -20 -20 -20 -20 -20 -20 -20 -20 -5
-20 -20 -20 -20 -20 -20 -20 -20 -20 -20 -20 -20 -20 -20 -20 -20 -20 -20 -20 -20 -20 -20 -20 -20 -20 -20 -20 -20 -20 -20 22 -20 -20 -20 -20 -20 -20 -20 -20 -20 -20 -20 13 -5
-20 -20 -20 -20 -20 -17 -20 -20 -20 -20 -20 -20 -20 -20 -20 -20 -20 -20 -20 -20 -20 -20 -20 -20 -20 -20 -20 -20 -8 -20 -20 -20 -20 -20 -20 -20 -20 -20 -16 7 8 15 13 11
-20 -20 -20 -13 -20 -20 -20 -20 -20 -20 -20 -20 -20 -20 -20 -20 -20 -20 -20 -20 -20 -20 -20 -20 -20 -20 -20 -20 -20 -20 -20 -6 -20 -20 -20 -20 -20 10 -14 -12 17 18 23 -0
-20 -20 -20 -20 -20 -20 -20 -20 -20 -20 -20 -20 -20 -20 -20 -20 -20 -20 -20 -20 -20 -20 -20 -20 -20 -20 -20 -20 -20 -20 -20 -20 -20 -20 -20 -20 -20 -20 -20 6 5 11 10 -18
-20 -20 -20 -20 -20 -20 -20 -20 -20 -20 -20 -20 -20 -20 -20 -20 -20 -20 -20 -20 -20 -20 -20 -20 -20 -20 -20 -20 -20 -20 -20 -20 -20 -20 -20 -20 -20 -20 -12 -15 -7 -20 -20 -2
-20 -20 -20 -20 -20 -20 -20 -20 -20 -20 -20 -20 -20 -20 -20 -20 -20 -20 -20 -20 -20 -20 -20 -20 -20 -20 -20 -20 -20 -20 -20 -20 -20 -19 1 -20 -20 -20 -13 -10 -20 -20 10 -20
-20 -20 -20 -20 -20 -20 -20 -20 -20 -20 -20 -20 -20 -20 -20 -20 -20 -20 -20 -20 -20 -20 -20 -20 -20 -20 -20 -20 -20 -20 2 -14 -20 -20 -20 -20 -20 -17 -9 -7 -20 -20 -20 -20
-20 -20 -20 -20 -20 -20 -20 -20 -20 -20 -20 -20 -20 -20 -20 -20 -20 -20 -20 -20 -20 -20 -20 -7 -16 -20 -20 -20 -17 -20 11 -10 -12 18 -20 -0 13 -18 -20 -0 33 -1 28 -20
-20 -20 -20 -20 -20 -20 -20 -20 -20 -20 -20 -20 -20 -20 -20 -20 -20 -20 -20 -20 -20 -20 -20 -20 -20 -20 -20 -20 -20 -20 -9 -6 23 -20 -9 -7 -1 5 11 -20 8 11 -18 -3
-20 -20 -20 -20 -20 -20 -20 -20 -20 -20 -20 -20 -20 -20 -20 -20 -20 -20 -20 -20 -20 -20 -20 -20 -20 -20 -20 -20 -20 -20 -20 -16 11 15 10 14 -20 -20 -20 3 -1 -9 18 26
-20 -20 -20 -20 -20 -20 -20 -20 -20 -20 -20 -20 -20 -20 -20 -20 -20 -20 -20 -20 -20 -20 -20 -20 -20 -20 -20 -20 -20 -20 -6 -4 14 -3 -5 -20 -8 1 -20 -20 -10 12 25 16
-7 -20 -20 -20 -20 -20 -20 -20 -20 -20 -20 -20 -20 -20 -20 -20 -20 -20 -20 -20 -20 -20 -20 -20 -20 -20 -20 -20 -20 -20 -20 -20 1 -20 -20 -20 -20 -20 -1 36 36 11 -13 -20
-20 15 14 -20 -20 -20 -20 -20 -20 -20 -20 -20 -20 -20 -20 -20 -20 -20 -20 -20 -20 -20 -20 -20 -20 -20 -20 -20 -20 -20 -20 -20 -20 -20 -18 -3 -12 30 30 9 -18 -20 -20 -20
-20 -20 -20 -20 -20 -20 -20 -20 -20 -20 -20 -20 -20 -20 -20 -20 -20 -20 -20 -20 -20 -20 -20 -20 -20 -20 -20 -20 -20 -20 -20 -14 14 29 25 9 30 24 -8 -20 -20 -20 -20 -20
-20 -20 -20 -20 -20 -20 -20 -20 -20 -20 -20 -20 -20 -20 -20 -20 -20 -20 -20 -20 -20 -20 -20 -20 -20 -20 -20 -20 -15 -11 15 11 -4 -20 16 3 -20 -20 -20 -20 -20 -20 -20 -20
-20 -20 -20 -20 -20 -20 -20 -20 -20 -20 -20 -20 -20 -20 -20 -20 -20 -20 -20 -20 -20 -20 -20 -20 -20 -20 -20 -20 -20 -20 -20 -20 -1 15 -19 -20 -20 -20 -20 -20 -20 -20 -20 -20
-20 -20 -20 -20 -20 -20 -20 -20 -20 -20 -20 -20 -20 -20 -20 -20 -20 -20 -20 -20 -20 -20 -20 -20 -20 -20 -20 -20 -20 -19 -19 -20 -20 -20 -20 -20 -20 -20 -20 -20 -20 -20 -20 -20
-20 -20 -20 -20 -20 -20 -20 -20 -20 -20 -20 -20 -20 -20 -20 -20 -20 -20 -20 -20 -20 -20 -20 -20 -20 -20 -20 -20 -20 -20 -20 -20 -20 -20 -20 -20 -20 -20 -20 -20 -20 -20 -20 -20
-20 -20 -20 -20 -20 -20 -20 -20 -20 -20 -20 -20 -20 -20 -20 -20 -20 -20 -20 -20 -20 -20 -20 -20 -20 -20 -20 -20 -20 -20 -20 -20 -20 -20 -20 -20 -20 -20 -20 -20 -20 -20 -20 -20

GFSCGP_prec_radar_039.txt.gz
Reflectivity
-20 -20 -20 -20 -20 -20 -20 -20 -20 -20 -20 -20 -20 -20 -20 -20 -20 -20 -20 -20 -20 -20 -20 -20 -20 -20 -20 -20 -20 -20 -20 -20 -20 -20 -20 -20 -20 -20 -20 -20 -20 -20 -20 -20
-20 -20 -20 -20 -20 -20 -20 -20 -20 -20 -20 -20 -20 -20 -20 -20 -20 -20 -20 -20 -20 -20 -20 -20 -20 -20 -20 -20 -20 -20 -20 -20 -20 -20 -20 -20 -20 -20 -20 -20 -20 -20 -20 -20
-20 -20 -20 -20 -20 -20 -20 -20 -20 -20 -20 -20 -20 -20 -20 -20 -20 -20 -20 -20 -20 -20 -20 -20 -20 -20 -20 -20 -20 -20 -20 -20 -20 -20 -20 -20 -20 -20 -20 -20 -20 -20 -20 -20
-20 -20 -20 -20 -20 -20 -20 -20 -20 -20 -20 -20 -20 -20 -20 -20 -20 -20 -20 -20 -20 -20 -20 -20 -20 -20 -20 -20 -20 -20 -20 -20 -20 -20 -20 -20 -20 -20 -20 -20 -20 -20 -20 -20
-20 -20 -20 -20 -20 -20 -20 -20 -20 -20 -20 -20 -20 -20 -20 -20 -20 -20 -20 -20 -20 -20 -20 -20 -20 -20 -20 -20 -20 -20 -20 28 12 -20 -20 -20 -17 -20 -20 -20 -20 -20 -20 -20
-20 -20 -20 -20 -20 -20 -20 -20 -20 -20 -20 -20 -20 -20 -20 -20 -20 -20 -20 -20 -20 -20 -20 -20 -20 -20 -20 -20 -20 -20 -20 3 13 -19 -20 -20 -14 -20 -20 -20 -20 -20 -20 -20
-20 -20 -20 -20 -20 -20 -20 -20 -20 -20 -20 -20 -20 -20 -20 -20 -20 -20 -20 -20 -20 -20 -20 4 -20 -20 -20 -20 -20 -17 -10 -6 -18 28 -20 -20 25 -20 3 -20 -20 -20 -20 -20
-20 -20 -20 -20 -20 -20 -20 -20 -20 -20 -20 -20 -20 -20 -20 -20 -20 -20 -20 -20 -20 -20 -20 -18 -20 -20 -12 -17 -15 -1 -16 -20 -18 -20 -20 -20 21 -20 24 -15 -20 -20 -12 -20
-20 -20 -20 -20 -20 -20 -20 -20 -20 -20 -20 -20 -20 -20 -20 -20 -20 -20 -20 -20 -20 -20 -20 -20 -20 -20 -20 28 -3 -4 -20 -16 -19 -20 -20 -20 -20 -20 3 -2 -20 -1 5 9
-20 -20 -20 -20 -20 -20 -20 -20 -20 -20 -20 -20 -20 -20 -20 -20 -20 -20 -20 -20 -20 -20 -20 -20 -20 -20 -20 -8 -20 -20 -20 -20 -20 -20 -20 -20 -6 -20 24 5 6 13 -0 12
-20 -20 -20 -20 -20 -20 -20 -20 -20 -20 -20 -20 -20 -20 -20 -20 -20 -20 -20 -20 -20 -20 -20 -20 -20 -20 -20 -20 -20 -20 -20 -20 -20 -20 -20 -20 9 -20 -20 -20 -17 -16 -16 12
-20 -20 -20 -20 -20 -20 -20 -20 -20 -20 -20 -20 -20 -20 -20 -20 -20 -20 -20 -20 -20 -20 -20 -20 -20 -20 -20 -20 -20 -20 -20 -20 -20 20 8 7 -20 11 -20 -20 -20 -20 -20 -18
-20 -20 -20 -20 -20 -20 -20 -20 -20 -20 -20 -20 -20 -20 -20 -20 -20 -20 -20 -20 -20 -20 -20 -20 -20 -20 -20 -20 -20 -12 -20 -20 23 -12 -11 13 -20 -20 -16 -13 18 5 -20 -20
-20 -20 -20 -20 -20 -20 -20 -20 -20 -20 -20 -20 -20 -20 -20 -20 -20 -20 -20 -20 -20 -20 -20 -20 -20 -20 -20 -20 1 -20 -2 -5 -15 2 -5 -4 -5 1 -10 -9 17 -6 11 19
-20 -20 -20 -20 -20 -20 -20 -20 -20 -20 -20 -20 -20 -20 -20 -20 -20 -20 -20 -20 -20 -20 -20 -20 -20 8 -20 21 20 -9 -9 10 -18 -19 11 8 4 -17 5 1 -16 15 -19 5
-20 -20 -20 -20 -20 -20 -20 -20 -20 -20 -20 -20 -20 -20 -20 -20 -20 -20 -20 -20 -20 -20 -20 -20 -20 -20 -20 -20 -20 -20 -7 -20 -19 -20 -20 -20 -20 7 2 -12 -9 -6 5 10
-20 -20 -20 -20 -20 -20 -20 -20 -20 -20 -20 -20 -20 -20 -20 -20 -20 -20 -20 -20 -20 -20 -20 -20 -20 -20 -20 -20 -20 -20 -20 -20 -20 -19 10 -20 -10 10 -7 5 -3 13 14 27
-20 -20 -20 -20 -20 -20 -20 -20 -20 -20 -20 -20 -20 -20 -20 -20 -20 -20 -20 -20 -20 -20 -20 -20 -20 -20 -20 -20 -20 -20 -20 -20 -20 -7 -1 5 -2 -5 -17 -5 -6 2 30 27
-20 -20 -20 -20 -20 -20 -20 -20 -20 -20 -20 -20 -20 -20 -20 -20 -20 -20 -20 -20 -20 -20 -20 -20 -20 -20 -20 -20 -20 -20 -20 -20 -20 -2 -7 -2 -20 -20 -20 13 19 33 11 -20
-20 -20 -20 -20 -20 -20 -20 -20 -20 -20 -20 -20 -20 -20 -20 -20 -20 -20 -20 -20 -20 -20 -20 -20 -20 -20 -20 -20 -20 -20 -20 -20 -20 -20 -20 -20 -12 21 36 30 18 -20 -20 -20
-17 -20 -20 -20 -20 -20 -20 -20 -20 -20 -20 -20 -20 -20 -20 -20 -20 -20 -20 -20 -20 -20 -20 -20 -20 -20 -20 -20 -20 -20 -20 -20 -20 -14 14 23 13 8 21 -9 -18 -20 -20 -20
-20 -20 -20 -20 -20 -20 -20 -20 -20 -20 -20 -20 -20 -20 -20 -20 -20 -20 -20 -20 -20 -20 -20 -20 -20 -20 -20 -20 -20 -20 -20 -15 3 6 -11 -9 -5 -19 -20 -20 -20 -20 -20 -20
-20 -20 -20 -20 -20 -20 -20 -20 -20 -20 -20 -20 -20 -20 -20 -20 -20 -20 -20 -20 -20 -20 -20 -20 -20 -20 -20 -20 -20 -20 -19 -20 -20 -20 -19 -20 -20 -20 -20 -20 -20 -20 -20 -20
-20 -20 -20 -20 -20 -20 -20 -20 -20 -20 -20 -20 -20 -20 -20 -20 -20 -20 -20 -20 -20 -20 -20 -20 -20 -20 -20 -20 -20 -20 -20 -20 -20 -20 -20 -20 -20 -20 -20 -20 -20 -20 -20 -20
-20 -20 -20 -20 -20 -20 -20 -20 -20 -20 -20 -20 -20 -20 -20 -20 -20 -20 -20 -20 -20 -20 -20 -20 -20 -20 -20 -20 -20 -20 -20 -20 -20 -20 -20 -20 -20 -20 -20 -20 -20 -20 -20 -20
-20 -20 -20 -20 -20 -20 -20 -20 -20 -20 -20 -20 -20 -20 -20 -20 -20 -20 -20 -20 -20 -20 -20 -20 -20 -20 -20 -20 -20 -20 -20 -20 -20 -20 -20 -20 -20 -20 -20 -20 -20 -20 -20 -20

GFSCGP_prec_radar_045.txt.gz
Reflectivity
-20 -20 -20 -20 -20 -20 -20 -20 -20 -20 -20 -20 -20 -20 -20 -16 -20 -19 -20 -20 -20 -20 -20 -20 -20 -20 -20 -20 -20 -20 -20 -20 -20 -20 -20 -20 -20 -20 -20 -20 -20 -20 -20 -20
-20 -20 -20 -20 -20 -20 -20 -20 -20 -20 -20 -20 -20 -20 -20 -20 -20 -20 -20 -20 -20 -20 -20 -20 -20 -20 -20 -20 -20 -20 -20 -20 -20 -20 -20 -20 -20 -20 -20 -20 -20 -20 -20 -20
-20 -20 -20 -20 -20 -20 -20 -20 -20 -20 -20 -20 -20 -20 -20 -20 -20 -20 -20 -20 -20 -20 -20 -20 -20 -20 -20 -20 -20 -20 -20 -20 -20 -20 -20 -20 -20 -20 -20 -20 -20 -19 -20 -20
-20 -20 -20 -20 -20 -20 -20 -20 -20 -20 -20 -20 -20 -20 -20 -20 -20 -20 -20 -20 -20 -20 -20 -20 -20 -20 -20 -20 -20 -20 -20 -20 -20 -20 -20 -20 -20 -20 -20 -20 -20 -20 -20 -20
-20 -20 -20 -20 -20 -20 -20 -20 -20 -20 -20 -20 -20 -20 -20 -20 -20 -20 -20 -20 -20 -20 -20 -20 -20 -20 -20 -20 -20 -20 -20 -20 -20 -20 -20 -20 -20 -20 -20 -17 18 16 -20 -20
-20 -20 -20 -20 -20 -20 -20 -20 -20 -20 -20 -20 -20 -20 -20 -20 -20 -20 -20 -20 -20 -4 -1 -17 -20 -20 -20 -20 -20 -20 7 -20 -20 -20 -20 -20 -20 -20 -20 -3 1 -6 -3 -20
-20 -20 -20 -20 -20 -20 -20 -20 -20 -20 -20 -20 -20 -20 -20 -20 -20 -20 -20 -20 -20 -20 -20 -20 -20 -20 -20 -20 -20 -20 -20 2 -20 -20 -19 2 -20 -20 -20 -20 -20 -0 -0 -20
-20 -20 -20 -20 -20 -20 -20 -20 -20 -20 -20 -20 -20 -20 -20 -20 -20 -20 -20 -20 -20 -20 -20 -20 -20 -20 -20 -20 -20 -20 -20 -20 -20 4 6 -10 -17 -20 -20 -20 -20 -8 -3 -20
-20 -20 -20 -20 -20 -20 -20 -20 -20 -20 -20 -20 -20 -20 -20 -20 -20 -20 -20 -20 -20 -20 -20 -20 -20 -20 -20 -20 -20 -20 -20 -20 -19 -8 -11 -16 -20 -20 -20 5 16 -19 6 -7
-20 -20 -20 -20 -20 -20 -20 -20 -20 -20 -20 -20 -20 -20 -20 -20 -20 -20 -20 -20 -20 -20 -20 -20 -20 -20 -20 -20 -20 -20 -20 -20 -20 -20 -20 -20 -20 -20 -9 18 -7 24 15 1
-20 -20 -20 -20 -20 -20 -20 -20 -20 -20 -20 -20 -20 -20 -20 -20 -20 -20 -20 -20 -20 -20 -20 -20 -20 -20 -20 -20 -20 -20 -20 -12 -20 -20 -20 -20 -16 10 -6 23 24 19 8 -7
-20 -20 -20 -20 -20 -20 -20 -20 -20 -20 -20 -20 -20 -20 -20 -20 -20 -20 -20 -20 -20 -20 -20 -20 -20 -20 -20 -20 -20 -20 -20 -20 -20 -20 -20 24 -20 -20 -13 23 -16 22 13 -8
-20 -20 -20 -20 -20 -20 -20 -20 -20 -20 -20 -20 -20 -20 -20 -20 -20 -20 -20 -20 -20 -20 -20 -20 -20 -20 -20 -20 -20 -20 -20 -20 -20 -20 -13 -4 22 19 19 25 22 20 14 14
-20 -20 -20 -20 -20 -20 -20 -20 -20 -20 -20 -20 -20 -20 -20 -20 -20 -20 -20 -20 -20 -20 -20 -20 -20 -20 -20 -20 -20 -20 -20 -20 -20 -20 -20 -11 -20 -20 22 19 18 14 -4 -11
-20 -20 -20 -20 -20 -20 -20 -20 -20 -20 -20 -20 -20 -20 -20 -20 -20 -20 -20 -20 -20 -20 -20 -20 -20 -20 -20 -20 -20 -20 -20 -20 -20 -20 -6 -8 -15 -20 -7 -13 -20 -20 -20 -7
-20 -20 -20 -20 -20 -20 -20 -20 -20 -20 -20 -20 -20 -20 -20 -20 -20 -20 -20 -20 -20 -20 -20 -20 -20 -20 -20 -20 -20 -20 -20 -20 -20 -20 -20 -20 -20 -20 -20 -17 -19 -8 16 16
-20 -20 -20 -20 -20 -20 -20 -20 -20 -20 -20 -20 -20 -20 -20 -20 -20 -20 -20 -20 -20 -20 -20 -20 -20 -20 -20 -20 -20 -20 -20 -20 -20 -20 -20 -20 -20 -20 -19 -20 -20 -13 -12 23
-20 -20 -20 -20 -20 -16 -20 -20 -20 -20 -20 -20 -20 -20 -20 -20 -20 -20 -20 -20 -20 -20 -20 -20 -20 -20 -20 -20 -20 -20 -20 -20 -20 -20 -20 -20 -20 -20 -20 -20 -17 -18 6 26
-20 -20 -20 -20 -20 -20 -20 -20 -20 -20 -20 -20 -20 -20 -20 -20 -20 -20 -20 -20 -20 -20 -20 -20 -20 -20 -20 -20 -20 -20 -20 -20 -20 -20 -20 -20 -20 -20 -20 -20 -11 18 0 -9
-20 -20 -20 -20 -20 -20 -20 -20 -20 -20 -20 -20 -20 -20 -20 -20 -20 -20 -20 -20 -20 -20 -20 -20 -20 -20 -20 -20 -20 -20 -20 -20 -20 -20 -20 -20 -20 -20 -20 -15 -4 5 -20 -20
-20 -20 -20 -20 -20 -20 -20 -20 -20 -20 -20 -20 -20 -20 -20 -20 -20 -20 -20 -20 -20 -20 -20 -20 -20 -20 -20 -20 -20 -20 -20 -20 -20 -20 -20 -20 -19 -6 -10 -9 -20 -20 -20 -20
-20 -10 -20 -20 -20 -20 -20 -20 -20 -20 -20 -20 -20 -20 -20 -20 -20 -20 -20 -20 -20 -20 -20 -20 -20 -20 -20 -20 -20 -20 -20 -20 -20 -20 -20 -20 -20 -20 -20 -20 -20 -20 -20 -20
-20 -20 -20 -20 -20 -20 -20 -20 -20 -20 -20 -20 -20 -20 -20 -20 -20 -20 -20 -20 -20 -20 -20 -20 -20 -20 -20 -20 -20 -20 -20 -20 -20 -20 -20 -20 -20 -20 -20 -20 -20 -20 -20 -20
-20 -20 -2 -17 -20 -20 -20 -20 -20 -20 -20 -20 -20 -20 -20 -20 -20 -20 -20 -20 -20 -20 -20 -20 -20 -20 -20 -20 -20 -20 -20 -20 -20 -20 -20 -20 -20 -20 -20 -20 -20 -20 -20 -20
-20 -7 17 -20 -20 -20 -20 -20 -20 -20 -20 -20 -20 -20 -20 -20 -20 -20 -20 -20 -20 -20 -20 -20 -20 -20 -20 -20 -20 -20 -20 -20 -20 -20 -20 -20 -20 -20 -20 -20 -20 -20 -20 -20
-20 -20 -20 -20 -7 -20 -20 -20 -20 -20 -20 -20 -20 -20 -20 -20 -20 -20 -20 -20 -20 -20 -20 -20 -20 -20 -20 -20 -20 -20 -20 -20 -20 -20 -20 -20 -20 -20 -20 -20 -20 -20 -20 -20

GFSCGP_prec_radar_048.txt.gz
Reflectivity
-20 -20 -20 -20 -20 -20 -20 -20 -20 -20 -20 -20 -20 -20 -20 -20 -20 -20 -20 -20 -20 -20 -20 -20 -20 -20 -20 -20 -20 -20 -20 -9 31 -20 -20 -20 -20 -20 -1 -20 -20 -20 -20 -20
-20 -20 -20 -20 -20 -20 -20 -20 -20 -20 -20 -20 -20 -20 -20 -20 -20 -20 -20 -20 -20 -20 -20 -20 -20 -20 -20 -20 -20 -20 -20 -20 7 -20 -20 -20 -20 -20 -20 -20 -20 -20 -20 -20
-20 -20 -20 -20 -20 -20 -20 -20 -20 -20 -20 -20 -20 -20 -20 -20 -20 -20 -20 -20 -20 -20 -20 -20 -20 -20 -20 -20 -20 -20 -20 -20 -20 -20 -20 -20 -20 -20 -20 -20 4 -20 -20 -19
-20 -20 -20 -20 -20 -20 -20 -20 -20 -20 -20 5 -20 3 -20 -20 -20 -20 -20 -20 -20 -20 -20 -20 -20 -20 -20 -20 -20 -20 -20 -20 -20 1 -20 -20 -20 -20 -20 -20 -20 -20 -14 -20
-20 -20 -20 -20 -20 -20 -20 -20 -20 -20 -20 -20 -20 -20 7 -20 -20 -20 -20 -20 -20 -20 -20 -20 -20 -20 -20 -20 -20 -20 -20 -20 -20 -20 -20 -20 -20 -20 -20 -20 -20 -20 -20 3
-20 -20 -20 -20 -20 -20 -20 -20 -20 -20 -20 -20 -20 -20 -20 -20 -20 -20 -20 -20 -20 -20 -20 -20 -20 -20 -20 -20 -20 -20 -20 -20 -20 -20 -20 -20 -20 -20 -20 -20 -20 -20 -20 -13
-20 -20 -20 -20 -20 -20 -20 -20 -20 -13 -1 -20 -20 -20 -15 -20 -20 -20 -20 -20 -20 -20 -20 -20 -20 -20 -20 -20 -20 -20 -20 -20 -20 -20 -20 -20 -1 -20 -20 -20 -20 -9 -8 -20
-20 -20 -20 -20 -20 -20 -20 -20 -19 19 10 -20 -20 -20 -10 -20 -20 -20 -20 -20 -20 -20 -20 -20 -20 -20 -20 -20 -20 -20 -20 -20 -6 -20 -20 -20 -20 7 -13 -20 -20 -20 16 -3
-20 -20 -20 -20 -20 -20 -20 -20 -20 -18 -20 -20 -20 -20 -20 -20 -20 -20 -20 -20 -20 -20 -20 -20 -20 -20 -20 -20 -20 -20 -20 -20 -20 -20 -20 -15 6 3 -4 -15 -12 -18 14 14
-20 -20 -20 -20 -20 -20 -20 -20 -20 -20 14 -11 -20 -20 -20 -20 -20 -20 -20 -20 -20 -20 -20 -20 -20 -20 -20 -20 -20 -20 -20 -20 -20 -20 -20 -20 -20 10 -9 -8 -0 -5 -0 -1
-20 -20 -20 -20 -20 -20 -20 -20 -20 -20 -20 -20 -20 -20 -20 -20 -20 -20 -20 -20 -20 -20 -20 -20 -20 -20 -20 -20 -20 -20 -20 -20 -20 -20 -20 -20 -20 -20 -20 10 6 9 4 14
-20 -20 -20 -20 -20 -20 -20 -20 -20 -20 -20 -20 -20 -20 -20 -20 -20 -20 -20 -20 -20 -20 -20 -20 -20 -20 -20 -20 -20 -20 -20 -20 -20 -20 -20 -20 1 -7 -19 1 -19 -19 19 17
-20 -20 -20 -20 -20 -20 -20 -20 -20 -20 -20 -20 -9 -20 -20 -20 -20 -20 -20 -20 -20 -20 -20 -20 -20 -20 -20 -20 -20 -20 -20 -20 -20 -20 -20 -20 -18 -5 -12 -11 -19 -18 18 28
-20 -20 -20 -20 -20 -20 -20 -20 -20 -20 -20 -20 -20 -20 -20 -20 -20 -20 -20 -20 -20 -20 -20 -20 -20 -20 -20 -20 -20 -20 -20 -20 -20 -20 -20 -20 -20 -20 -20 -20 -20 -20 -12 -5
-20 -20 -20 -20 -20 -20 -20 -20 -20 -20 -20 -20 -20 -20 -20 -20 -20 -20 -20 -20 -20 -20 -20 -20 -20 -20 -20 -20 -20 -20 -17 -1 -20 -20 -20 -8 -9 -20 -20 -20 -20 -20 -20 -20
-20 -20 -20 -20 -20 -20 -20 -20 -20 -20 -20 -20 -20 -20 -20 -20 -20 -20 -20 -20 -20 -20 -20 -20 -20 -20 -20 -20 -19 28 -20 -20 -20 -20 -20 -20 -20 -20 -20 -20 -20 -20 -20 -20
-20 -20 -20 -20 -20 -20 -20 -20 -20 -20 -20 -20 -20 -20 -20 -20 -20 -20 -20 -20 -20 -20 -20 -20 -20 -20 -20 -20 -20 -20 -20 -20 -20 -20 -20 -20 -20 -20 -20 -20 -20 -20 -20 -20
-20 -20 -20 -20 -20 -20 -20 -20 -20 -20 -20 -20 -20 -20 -20 -20 -20 -20 -20 -20 -20 -20 -20 -20 -20 -20 -20 -20 -20 -20 -20 -20 -20 -20 -20 -20 -20 -20 -20 -20 -20 -20 -20 -20
-20 -20 -20 -20 -20 -20 -20 -20 -20 -20 -20 -20 -20 -20 -20 -20 -20 -20 -20 -20 -20 -20 -20 -20 -20 -20 -20 -20 -20 -20 -20 -20 -20 -20 -20 -20 -20 -20 -20 -20 -20 -20 -20 -15
-20 -20 -20 -20 -20 -20 -16 -20 -20 -20 -20 -20 -20 -20 -20 -20 -20 -20 -20 -20 -20 -20 -20 -20 -20 -20 -20 -20 -20 -20 -20 -20 -20 -20 -20 -20 -20 -20 -18 -20 -20 -20 -20 -20
-20 -20 -20 -20 -16 -20 -20 -20 -20 -20 -20 -20 -20 -20 -20 -20 -20 -20 -20 -20 -20 -20 -20 -20 -20 -20 -20 -20 -20 -20 -20 -20 -20 -20 -20 -20 -19 -20 -20 -6 -20 -20 -20 -20
-20 -20 -20 -20 -20 -20 -15 -20 -20 -20 -20 -20 -20 -20 -20 -20 -20 -20 -20 -20 -20 -20 -20 -20 -20 -20 -20 -20 -20 -20 -20 -20 -20 -20 -20 -20 -20 -20 -20 -20 -20 -20 -20 -20
4 -18 -15 -20 -20 -20 -20 -20 -20 -20 -20 -20 -20 -20 -20 -20 -20 -20 -20 -20 -20 -20 -20 -20 -20 -20 -20 -20 -20 -20 -20 -20 -20 -20 -20 -20 -20 -20 -20 -20 -20 -20 -20 -20
-6 -20 -20 -20 -20 -20 -19 -20 -20 -20 -20 -20 -20 -20 -20 -20 -20 -20 -20 -20 -20 -20 -20 -20 -20 -20 -20 -20 -20 -20 -20 -20 -20 -20 -20 -20 -20 -20 -20 -20 -20 -20 -20 -20
-15 -18 -20 -20 -20 -20 -8 -20 -20 -20 -20 -20 -20 -20 -20 -20 -20 -20 -20 -20 -20 -20 -20 -20 -20 -20 -20 -20 -20 -20 -20 -20 -20 -20 -20 -20 -20 -20 -20 -20 -20 -20 -20 -20
-20 -20 -20 -20 -1 14 8 -20 -12 -20 -20 -20 -20 -20 -20 -20 -20 -20 -20 -20 -20 -20 -20 -20 -20 -20 -20 -20 -20 -20 -20 -20 -20 -20 -20 -20 -20 -20 -20 -20 -20 -20 -20 -20

GFSCGP_prec_radar_051.txt.gz
Reflectivity
-20 -20 -20 -20 -20 -20 -20 -20 -20 -20 7 -19 -0 -1 -20 -6 -20 -20 -20 -20 -20 -20 -20 -20 -9 -10 -7 -20 -20 -20 -20 -20 20 -1 -20 -20 -20 -20 -20 -20 -20 -20 -20 -20
-20 -20 -20 -20 -20 -20 -20 -20 -20 -20 -20 -20 10 -18 12 3 -20 -20 -20 -20 -20 -20 -20 -20 -20 -20 -20 -20 -20 -20 -20 -20 0 -20 -20 -20 -20 -20 -20 -20 -20 -20 -14 -20
-20 -20 -20 -20 -20 -20 -20 -19 -4 -1 -7 -20 -20 -20 -16 -20 -20 -20 -20 -20 -20 -20 -20 -20 -20 -20 -20 -20 -20 -20 -20 -20 -13 -20 -20 -20 -20 -20 -20 -20 -20 -20 -16 -20
-20 -20 -20 -20 -20 -20 -20 -20 -20 -18 -19 -4 -5 -20 5 8 -20 -20 -20 -20 -20 -20 -20 -20 -20 -20 -20 -20 -20 -20 -20 -20 -20 -20 -17 -20 -20 -20 -20 -20 -20 -20 -20 -20
-20 -20 -20 -20 -20 -20 -20 -11 -20 -20 -20 1 6 -15 6 -8 -20 -20 -20 -20 -20 -20 -20 -20 -20 -20 -20 -20 -20 -20 -20 -20 -20 -20 -20 -20 -20 -20 -20 -20 -20 -14 -20 -20
-20 -20 -20 -20 -20 -20 -20 -20 -20 -20 -20 -9 -20 -20 9 10 -14 -20 -14 -20 -20 -20 -20 -20 -20 -20 -20 -20 -20 -20 -20 -20 -20 -20 -20 -20 -20 -20 -20 -20 -20 13 -20 -20
-20 -20 -20 -20 -20 -20 -20 -20 -18 -3 -20 -20 4 -20 -12 20 4 -20 -20 -20 -20 -20 -20 -20 -20 -20 -20 -20 -20 -20 -20 -20 -20 -20 -20 -20 -20 -20 -20 -20 7 -20 -14 -20
-20 -20 -20 -20 -20 -20 -20 -20 -20 24 13 -16 10 -20 -20 16 -19 -20 -20 -20 -20 -20 -20 -20 -20 -20 -20 -20 -20 -20 -20 -20 -20 16 33 13 -19 -18 -15 1 -1 -13 -10 -12
-20 -20 -20 -20 -20 -20 -9 -20 -20 1 -18 -20 -7 -20 -20 -4 -20 -20 -20 -20 -20 -20 -20 -20 -20 -20 -20 -20 -20 -20 -20 -20 -12 -14 -3 23 42 6 -20 -20 -20 -8 -7 25
-20 -20 -20 -20 -20 -20 -20 -7 -20 -20 6 13 -20 -20 -1 -20 -20 -20 -20 -20 -20 -20 -20 -20 -20 -20 -20 -20 -20 -20 -20 -20 -20 -20 -20 -20 -3 -1 -20 -3 3 -2 13 -7
-7 -20 -20 -20 -20 -20 -20 -20 -20 0 -20 8 -17 -12 12 -19 -20 -20 -20 -20 -20 -20 -20 -20 -20 -20 -20 -20 -20 -20 -20 -20 -20 -20 -20 -2 -20 -20 -20 -20 9 -17 -20 3
9 -16 -20 -20 -20 -20 6 -20 -20 -20 -4 -19 -20 -19 6 -20 -20 -20 -20 -20 -20 -20 -20 -20 -20 -20 -20 -20 -20 -20 -20 -20 -20 -20 -20 -14 -20 -20 -20 -12 -19 15 -6 -20
7 -19 -20 -20 -20 -20 -20 -10 -20 -2 -19 -4 13 -20 3 -20 -20 -20 -20 -20 -20 -20 -20 -20 -20 -20 -20 -20 -20 -20 -20 -20 -20 -20 -20 5 14 -8 1 -1 11 11 17 13
7 -6 -20 -20 -20 -20 -20 -20 -20 -20 -4 -20 -20 -20 -11 -0 -20 -20 -20 -20 -20 -20 -20 -20 -20 -20 -20 -20 -20 -20 -20 -20 -20 -20 -20 -20 -7 4 16 10 11 -11 -3 2
-3 -3 -16 -20 -20 -20 -20 -20 -20 -20 -20 -18 -20 -20 3 -12 8 -17 3 -16 -20 -20 -20 -20 -20 -20 -20 -20 -20 -20 -20 -20 -20 -20 -20 -20 -20 -18 -19 6 -10 -20 -20 -20
-9 -6 -18 -20 -20 -20 -20 -20 -0 -20 -20 -20 -20 -20 -20 -20 -20 -20 -20 -20 -20 -20 -20 -20 -20 -20 -20 -20 -20 -20 -20 -20 -20 -20 -20 -20 -20 -20 -20 -20 -20 -20 -20 -20
-20 -20 -20 -20 -20 -20 -20 -20 -20 -20 -20 -20 -20 -20 -20 -20 -20 -20 -20 -20 -20 -20 -20 -20 -20 -20 -20 -20 -20 -20 -8 -20 8 1 -20 -20 -20 -20 -20 -20 -20 -20 -20 -20
-20 -17 10 -18 -20 -8 -16 -20 -20 -20 -20 -20 -20 -20 -20 -20 -20 -20 -20 -20 -20 -20 -20 -20 -20 -20 -20 -20 10 -20 -20 -20 -20 -20 -20 -20 -20 -20 -20 -20 -20 -20 -20 -5
-20 -20 -12 15 -20 -20 -20 -20 -20 -20 -20 -20 -20 -20 -20 -20 -20 -20 -20 -20 -20 -20 -20 -20 -20 -20 -20 -20 -20 -20 -20 -20 -20 -20 -20 -20 -20 -20 -20 -20 -20 -20 -19 -20
-20 -20 18 -17 -20 -20 -20 -12 -20 -20 -20 -20 -20 -20 -20 -20 -20 -20 -20 -20 -20 -20 -20 -20 -20 -20 -20 -20 -20 -20 -20 -20 -20 -20 -20 -20 -20 -20 -20 -20 -18 -20 -20 -20
-7 3 -2 21 -4 -20 -19 -3 -20 -20 -20 -20 -20 -20 -20 -20 -20 -20 -20 -20 -20 -20 -20 -20 -20 -20 -20 -20 -20 -20 -20 -20 -20 -20 -20 -20 -20 -20 -17 -20 -20 -20 -20 -20
19 -20 -20 -20 -10 -20 -19 1 -20 -20 -20 -20 -20 -20 -20 -20 -20 -20 -20 -20 -20 -20 -20 -20 -20 -20 -20 -20 -20 -20 -20 -20 -20 -20 -20 -20 -20 -20 -20 -20 -20 -20 -20 -20
15 24 20 -16 -20 -20 8 -3 -20 -20 -20 -20 -20 -20 -20 -20 -20 -20 -20 -20 -20 -20 -20 -20 -20 -20 -20 -20 -20 -20 -20 -20 -20 -20 -20 -20 -20 -20 -20 -20 -20 -20 -20 -20
-15 3 13 4 -12 -20 -4 -1 -20 -20 -20 -20 -20 -20 -20 -20 -20 -20 -20 -20 -20 -20 -20 -20 -20 -20 -20 -20 -20 -20 -20 -20 -20 -20 -20 -20 -20 -20 -20 -20 -20 -20 -20 -20
-20 -20 -20 -20 -20 -19 -5 -16 7 15 -20 -20 -20 -20 -20 -20 -20 -20 -20 -20 -20 -20 -20 -20 -20 -20 -20 -20 -20 -20 -20 -20 -20 -20 -20 -20 -20 -20 -20 -20 -20 -20 -20 -20
-20 -20 -20 -20 2 14 7 16 16 -16 -20 -20 -20 -20 -20 -20 -20 -20 -20 -20 -20 -20 -20 -20 -20 -20 -20 -20 -20 -20 -20 -20 -20 -20 -20 -20 -20 -20 -20 -20 -20 -20 -20 -20

GFSCGP_prec_radar_054.txt.gz
Reflectivity
-20 -20 -20 -20 -12 -20 -20 -20 -20 9 -20 -20 -20 9 28 -19 -19 -20 -20 -20 -20 -20 -20 -20 -20 -20 -20 -20 -20 -20 -20 -20 -9 -10 -16 -20 -9 -14 -9 -15 -3 -0 -18 0
-20 -20 -20 -20 -20 -20 -20 -20 -20 5 4 -20 -20 -20 -20 -14 44 -6 -20 -20 -20 -20 -20 -20 -20 -20 -1 -17 -20 -20 -20 -20 -20 -20 -15 -9 -20 -20 -18 -19 -4 -20 -20 -20
-20 -20 -20 -20 -20 -20 -20 -20 -20 -13 -20 -20 -20 -20 -20 -20 12 -18 -20 -20 -20 -20 -20 -20 -20 -20 -20 -20 -16 -20 -20 -20 -20 -20 -19 -20 -20 -20 -20 -20 -20 -20 -20 -20
-20 -20 -20 -20 -20 -20 -20 -20 -20 -20 -20 -20 -20 -20 -20 -20 -14 -20 -20 -20 -20 -20 -20 -20 -20 -20 -20 -20 -20 -20 -20 -20 -20 -20 -20 2 -20 -20 -20 -20 -20 -20 -20 -20
-20 -20 -20 -20 -20 -20 -20 -20 -20 -20 -20 -20 4 -20 -20 -14 -20 -20 -20 -20 -20 -20 -20 -20 -20 -20 -20 -20 -20 -20 -20 -20 -20 -20 -20 11 -20 -20 -20 -20 -20 -20 -20 -20
-20 -20 -20 -20 -20 -20 -20 -20 -20 -20 -20 -20 -20 -10 -20 3 -20 10 12 -20 -20 -20 -20 -20 -20 -20 -20 -20 -20 -20 -20 -20 -20 -20 -20 -20 -3 -20 -20 -20 -20 -20 -20 -20
-20 -19 -17 -20 -20 -20 -20 -20 -20 -20 -20 -20 -17 -20 -20 -20 -9 13 7 -16 -20 -20 -20 -20 -20 -20 -20 -20 -20 -20 -20 -20 -20 -20 -20 -20 -20 -18 4 -20 -20 -9 -8 -20
-20 -20 -20 -20 -20 -20 -20 -20 -20 -4 1 -4 -7 -20 22 -14 -14 -0 -19 -16 -20 -20 -20 -20 -20 -20 -20 -20 -20 -20 -20 -20 -20 -20 -20 4 13 1 13 34 -19 22 -20 -20
-20 -20 -20 -20 -20 -20 -8 -20 -20 -20 -20 -19 -16 -15 -20 -20 -20 -20 -20 -20 -20 -20 -20 -20 -20 -20 -20 -20 -20 -20 -20 -20 -20 -20 4 -19 -10 -19 28 29 7 24 -13 -13
-17 -19 -20 1 -20 -20 -20 -13 -10 -20 -7 11 -20 -20 11 1 -20 -20 -20 -20 -20 -20 -20 -20 -20 -20 -20 -20 -20 -20 -20 -20 -20 -20 -20 -20 -20 -20 -18 34 -6 -18 -12 4
-20 2 -2 9 -11 -20 -20 -20 -13 -19 -20 -20 -20 -19 -5 27 17 -20 -20 -20 -20 -20 -20 -20 -20 -20 -20 -20 -20 -20 -20 -20 -5 2 29 23 33 29 -20 -20 -20 15 -18 8
-20 -0 -14 18 -7 -20 -20 -20 -20 -20 -20 -20 -20 -20 11 10 4 -20 -20 -20 -20 -20 -20 -20 -20 -20 -20 -20 -20 -20 -20 -20 -11 -2 32 10 -2 8 -12 16 27 24 19 12
-15 9 0 -8 8 -18 -17 -19 -19 -20 -20 -19 -11 -20 -2 -20 -20 -20 -20 -20 -20 -20 -20 -20 -20 -20 -20 -20 -20 -10 -5 -20 -20 36 19 9 8 2 -1 28 23 15 6 -6
3 14 -20 -20 -13 1 9 -20 -20 -20 1 -20 -20 -20 -20 -20 -20 -20 -20 -20 -20 -20 -20 -20 -20 -20 -20 -20 -20 -20 -20 -20 -20 -20 -18 -20 -20 -20 14 8 9 6 10 9
-0 5 -20 -20 -17 7 -11 -12 -16 -2 -15 -20 -17 -4 -20 -18 6 -10 -10 13 13 -20 -20 -20 -20 -20 -20 -20 -20 -20 -20 -0 -13 -17 -13 -20 -19 -9 17 10 11 4 9 3
-20 -20 -20 -20 -20 -20 12 0 -20 -20 -20 -20 -20 -20 -20 3 -13 -10 -20 -8 -20 -20 -20 -20 -20 -20 -20 -20 -20 -20 -20 -20 -20 -20 -4 -20 -20 27 -20 -20 -20 -20 -20 -20
-20 -20 -20 -20 -20 -20 -20 -20 -14 -9 8 -20 -20 -20 -12 -20 -4 -6 -20 -20 -20 -20 -20 -20 -20 -20 -20 -20 -18 -13 -20 -20 -20 -20 -20 -20 -20 5 -20 -20 -20 -20 -20 -20
-20 -20 -20 -8 -12 -3 -20 -20 -20 -20 -20 -20 -20 -20 -20 -20 -20 -20 -18 -20 -20 -20 -20 -20 -20 6 -17 -5 -20 -20 -20 -20 -20 -20 -20 -20 -20 -20 -20 -20 -20 -20 -20 -20
-10 -13 30 18 6 -20 -20 -20 -14 -20 -20 -20 -20 -20 -20 -18 -15 -20 -20 -20 -20 -20 -20 -20 -20 -20 -20 -20 -20 -20 15 -20 -20 -20 -20 -20 -20 -20 -20 -20 -20 -20 -20 -20
16 15 -20 11 -20 -20 -20 -2 5 -12 -20 -20 -20 -20 -20 -20 -20 -20 -20 -20 -20 -20 -20 -20 -20 -20 -20 -20 -20 -20 -20 -20 -20 -20 -20 -20 -20 -20 -20 -20 -20 -20 -20 -20
9 23 5 19 -7 -20 -20 17 3 -13 -15 -16 -20 -20 -20 -15 -20 -20 -20 -20 -20 -20 -20 -20 -20 -20 -20 -20 -20 -20 -20 -20 -20 -20 -20 -20 -20 -20 -20 -20 -20 -20 -20 -20
-5 8 24 5 17 4 -20 5 -0 -2 4 -10 -20 -16 -12 -20 -20 -20 -20 -20 -20 -20 -20 -20 -20 -20 -20 -20 -20 -20 -20 -20 -20 -20 -20 -20 -20 -20 -20 -20 -20 -20 -20 -20
23 -20 12 7 -19 -20 2 24 10 7 -12 -20 -0 3 -20 -20 -20 -20 -20 -20 -20 -20 -20 -20 -20 -20 -20 -20 -20 -20 -20 -20 -20 -20 -20 -20 -20 -20 -20 -20 -20 -20 -20 -20
-19 16 9 11 -11 -20 -6 7 9 -4 -20 -20 5 8 -20 -20 -20 -20 -20 -20 -20 -20 -20 -20 -20 -20 -20 -20 -20 -20 -20 -20 -20 -20 -20 -20 -20 -20 -20 -20 -20 -20 -20 -20
-3 5 19 -12 -20 10 5 22 30 18 -17 -20 -20 -20 -20 -20 -20 -20 -20 -20 -20 -20 -20 -20 -20 -20 -20 -20 -20 -20 -20 -20 -20 -20 -20 -20 -20 -20 -20 -20 -20 -20 -20 -20
-12 -20 -20 -20 -8 14 4 1 19 2 -20 -20 -20 -16 -20 -20 -20 -20 -20 -20 -20 -20 -20 -20 -20 -20 -20 -20 -20 -20 -20 -20 -20 -20 -20 -20 -20 -20 -20 -20 -20 -20 -20 -20

GFSCGP_prec_radar_057.txt.gz
Reflectivity
-20 -20 -20 -20 -20 -20 -20 -20 -20 -20 -20 -11 -20 -20 -20 -20 -20 -14 -20 -20 -20 -20 -20 -20 -20 -20 -20 -20 -20 -20 -20 -20 -20 -20 -20 -20 -20 -20 -20 -3 2 1 -20 -20
-20 -20 -20 -20 -20 -20 -15 -20 -20 -20 -14 -20 -20 -20 -20 -20 -20 -19 -12 -20 -20 -20 -20 -20 -20 -20 -20 -20 -20 -20 -20 -20 -20 -20 -20 -20 -20 -20 -16 -10 -2 -20 -18 -19
-20 -20 -20 -20 -20 -20 -20 -20 -20 -20 -20 -20 -20 -20 -20 -20 -20 -1 10 -20 -20 -20 -20 -20 -20 -20 -20 -20 -20 -20 -20 -20 -20 -20 -20 -20 -20 -19 -4 -2 -12 -15 -20 -20
-20 -20 -20 -20 -20 -20 -20 -20 -20 -20 -20 -20 -20 -20 -20 -20 -20 -10 -6 -20 -20 -20 -20 -20 -20 -20 -20 -20 -20 -20 -20 -20 -20 -20 -20 -20 -20 -20 -20 -20 -20 -20 -20 -20
-20 -20 -20 -20 -20 -20 -20 -20 -20 -20 -20 -20 -20 -20 -20 -20 -20 -20 -20 -20 -20 -20 -20 -20 -20 -20 -20 -20 -20 -20 -20 -20 -20 -20 -20 -20 -20 -20 -20 -20 -20 -20 -20 -20
-20 -20 -20 -20 -20 -20 -20 -20 -20 -20 -20 -20 -20 -20 -20 -20 -19 -20 -20 -20 -20 -20 -20 -20 -20 -20 -20 -20 -20 -20 -20 -20 -20 -20 -20 -20 -20 -20 -20 -20 -20 -20 -20 -20
-20 -20 -20 -20 -20 -20 -20 -20 -20 -20 -20 -20 -20 -20 -20 -20 -20 -20 -20 -20 -20 -20 -20 -20 -20 -20 -20 -20 -20 -20 -20 -20 -20 -20 -20 -20 -20 -20 -20 4 -20 -20 -20 -20
-20 -20 -20 -20 -20 -20 -20 -20 -20 -20 -20 -20 -20 -20 -20 -20 -20 -20 -20 -20 -20 -20 -20 -20 -20 -20 -20 -20 -20 -20 -20 -20 -20 -20 -20 -20 -19 -20 16 -16 26 -20 -11 3
-20 -20 -20 -20 -20 -20 -20 -13 -20 -20 -20 -20 -20 -20 -20 -20 -20 -20 -20 -20 -20 -20 -20 -20 -20 -20 -20 -20 -20 -20 -20 -20 -20 -20 -20 -20 -7 -20 -20 -20 -13 -9 -4 8
-20 -20 -20 -20 -20 -20 -20 -16 -20 -20 -7 -13 -20 -20 -20 -20 -20 -12 -20 -20 -20 -20 -20 -20 -20 -20 -20 -20 -20 -20 -20 -20 -20 -20 -20 -20 -20 -10 -5 -20 -20 13 -15 -5
-20 -20 -20 -20 -20 -20 -20 -20 -20 -18 -20 -15 -20 -20 -20 -20 -20 12 -20 -20 -20 -20 -20 -20 -20 -20 -20 -20 -20 -20 -20 -2 -19 -13 -15 -20 -18 14 31 21 32 -20 -20 -17
-20 -20 -20 -20 -20 -18 -20 -20 -20 -20 -20 -20 -20 -20 -20 -20 -20 1 -20 -20 -20 -20 -20 -20 -20 -20 -20 -20 -20 -20 -20 -20 -14 -7 29 36 39 38 38 41 25 -16 2 -0
-20 -17 -20 -20 -20 5 -20 -20 -20 -20 -20 -20 -20 -17 -18 -20 4 2 -4 -20 -20 -20 -20 -20 -20 -20 -20 -20 -20 -20 -20 -15 12 36 35 18 8 18 8 36 28 7 21 17
12 -4 -20 -20 -20 -20 -20 -20 -20 -20 -20 -20 -20 -20 6 2 -16 11 -20 -20 -20 -20 -20 -20 -20 -20 -20 -20 -20 -20 -15 25 17 7 30 -18 26 8 -7 2 -5 27 -8 -19
7 10 -20 -20 -12 -16 -20 -20 -14 -20 -20 -20 -7 -20 -20 -13 -13 -20 -20 -20 -20 -20 -20 -20 -20 -20 -20 -20 -20 -20 -20 -20 -20 -20 -12 -17 -20 35 22 -20 -19 -16 -7 -2
19 -5 -20 -20 -20 3 2 -20 -20 -20 -20 -20 -20 2 -20 -20 -20 -20 -20 -20 -20 -20 -20 -20 -20 -20 -20 -20 -20 -20 -20 -20 -20 -20 -20 -20 -20 -20 -20 -20 5 13 11 5
-11 -1 -3 -20 -20 7 -3 -20 -19 -19 -20 -20 -13 -20 -20 -20 -20 -5 3 -20 -20 -20 -20 -20 -20 -20 -20 -20 -20 -20 -16 -15 -20 -20 -8 -20 -20 -20 -20 -20 -20 -20 -18 -13
28 -20 -10 -20 -15 20 9 -16 -20 -10 -20 -20 -20 -20 -20 -20 -4 -20 -1 -20 -20 -20 -20 -20 -20 -20 -20 -20 -20 -20 -20 -20 -20 -20 -20 -20 -20 -20 14 -20 -20 -20 -20 -20
40 10 4 6 9 -19 -14 -20 -20 -20 -20 -20 -20 -20 -20 -20 -20 -20 -20 -20 -20 -20 -20 -20 -20 -20 -20 -20 -20 -20 -20 -20 -20 -20 -20 -20 -20 -20 -20 -20 -20 -20 -20 -20
39 28 -19 -18 -13 -13 -20 -20 -19 -20 -20 -20 -16 -20 -20 -20 -20 -20 -20 -20 -20 -20 -20 -20 -20 -20 5 12 -11 -20 -20 -20 -20 -20 -20 -20 -20 -20 -20 -20 -20 -20 -20 -20
25 41 1 -12 7 -11 -20 -20 10 7 -8 -11 15 -0 -20 -20 -20 -20 -20 -20 -20 -20 -20 -20 -20 -20 -20 -20 -20 -20 -20 -20 -20 -20 -20 -20 -20 -20 -20 -20 -20 -20 -20 -20
16 28 23 26 17 -2 -20 -20 8 5 -20 13 20 -1 -20 -20 -20 -20 -20 -20 -20 -20 -20 -20 -20 -20 -20 -20 -20 -20 -20 -20 -20 -20 -20 -20 -20 -20 -20 -20 -20 -20 -20 -20
12 4 0 10 -1 -16 -20 -19 -7 -9 -19 11 -4 -20 -20 -20 -20 -20 -20 -20 -20 -20 -20 -20 -20 -20 -20 -20 -20 -20 -20 -20 -20 -20 -20 -20 -20 -20 -20 -20 -20 -20 -20 -20
-20 1 -20 3 -19 -20 -14 11 25 11 14 12 -9 -17 -20 -20 -11 7 -20 -20 -20 -20 -20 -20 -20 -20 -20 -20 -20 -20 -20 -20 -20 -20 -20 -20 -20 -20 -20 -20 -20 -20 -20 -20
-20 -20 -20 -20 -7 -14 16 8 -12 21 15 10 -13 -9 -20 -20 10 10 -16 -20 -20 -20 -20 -20 -20 -20 -20 -20 -20 -20 -20 -20 -20 -20 -20 -20 -20 -20 -20 -20 -20 -20 -20 -20
-20 -20 -20 -20 14 26 27 0 -15 -2 22 29 3 -20 -20 7 -18 -20 -20 -20 -20 -20 -20 -20 -20 -20 -20 -20 -20 -20 -20 -20 -20 -20 -20 -20 -20 -20 -20 -20 -20 -20 -1 -11

GFSCGP_prec_radar_060.txt.gz
Reflectivity
-20 -20 -20 -20 -20 -20 -20 -20 -20 -20 -20 -20 -20 -20 -20 -20 -20 -20 -20 -20 -20 -20 -20 -20 -20 -20 -20 -20 -20 -20 -20 -20 -20 -20 -3 -7 -4 7 22 -12 -20 -20 -20 -20
-20 -20 -20 -20 -20 -20 -20 -20 -20 -20 -20 -20 -20 -20 -20 -20 -20 -20 -20 -19 -20 -20 -20 -20 -20 -20 -20 -20 -20 -20 -20 -20 -20 -20 -9 -6 -19 0 -12 -17 -10 -0 -20 -20
-20 -20 -20 -20 -20 -20 -20 -20 -20 -20 -20 -20 -20 -20 -20 -20 -20 -20 -20 -20 -20 -20 -20 -20 -20 -20 -20 -20 -20 -20 -20 -20 -20 -20 -20 -20 -20 -20 -19 -2 -2 -16 -20 -20
-20 -20 -20 -20 -20 -20 -20 -20 -20 -20 -20 -20 -20 -20 -20 -20 -20 -20 -20 -20 -20 -20 -20 -20 -20 -20 -20 -20 -20 -20 -20 -20 -20 -20 -20 -20 -20 -20 -20 -18 -10 -18 -20 -20
-20 -4 -20 -20 -20 -20 -20 -20 -20 -20 -20 -20 -20 -20 -20 -20 -20 -20 -20 -20 -20 -20 -20 -20 -20 -20 -20 -20 -20 -20 -20 -20 -20 -20 -20 -20 -20 -20 -20 -20 -20 -20 -20 -20
-20 -20 -20 -20 -20 -20 -20 -20 -20 -20 -20 -20 -20 -20 -20 -20 -20 -20 -20 -20 -20 -20 -20 -20 -20 -20 -20 -20 -20 -20 -20 -20 -20 -20 -20 -20 -20 -20 -20 -20 -20 -20 -20 -20
-20 -18 -0 -20 -20 -20 -20 -20 -20 -20 -20 -20 -20 -20 -20 -20 -20 -20 -20 -20 -20 -20 -20 -20 -20 -20 -20 -20 -20 -20 -20 -20 -20 -20 -20 -20 -20 -20 -20 -20 -20 -20 -20 -20
-20 -20 -20 -20 -20 -20 -20 -20 -20 -20 -20 -20 -20 -20 -20 -20 -20 -20 -20 -20 -20 -20 -20 -20 -20 -20 -20 -20 -20 -20 -20 -20 -20 -20 -20 -20 -20 -20 -20 -20 -20 -20 -20 -20
-20 -20 -19 -20 -20 -20 -20 -20 -20 -20 -20 -20 -20 -20 -20 -20 -20 -20 -20 -20 -20 -20 -20 -20 -20 -20 -20 -20 -20 -20 -20 -20 -20 -20 -20 -20 -20 -20 -1 -20 -20 11 21 -18
-20 -20 -20 -20 -20 -20 -20 -20 -20 -20 -20 -20 -20 -20 -20 -20 -20 -20 -20 -20 -20 -20 -20 -20 -20 -20 -20 -20 -20 -20 -20 -20 -20 -20 -20 -20 -20 -20 -20 -20 20 -8 0 -19
-20 -20 -20 -20 -20 -20 -20 -20 -20 -20 -20 -20 -20 -20 -20 -20 -20 -20 -20 -20 -20 -20 -20 -20 -20 -20 -20 -20 -20 -20 -20 -5 2 11 -20 -20 -20 -20 -20 29 27 26 32 23
-20 -20 -20 -20 -20 -20 -20 -20 -20 -20 -20 -20 -20 -20 -20 -20 -20 -20 -20 -20 -20 -20 -20 -20 -20 -20 -20 -20 -20 -20 -20 -20 -20 31 30 23 24 22 35 33 18 40 48 29
-20 6 -18 -20 -20 -20 -3 -20 -20 -20 -20 -20 -20 -14 -20 -20 -20 -20 -20 -20 -20 -20 -20 -20 -20 -20 -20 -20 -20 -20 -20 -20 30 31 26 33 6 28 13 10 28 31 24 7
23 -20 -14 -20 -20 -20 -20 -20 -20 -20 -20 -20 -20 -12 -17 -20 -20 -20 -20 -20 -20 -20 -20 -20 -20 -20 -20 -20 -20 -20 -20 -9 14 11 31 29 17 -3 2 4 -3 -4 -5 -2
20 -10 -20 -20 -20 -19 3 -9 -5 -20 -20 -20 -20 -20 -20 -20 -20 -20 -20 -20 -20 -20 -20 -20 -20 -20 -20 -20 -20 -20 -20 -20 23 29 3 -3 -12 -20 -20 -18 28 -20 -20 -5
29 20 -20 -20 -20 -20 -20 -20 -20 -20 -17 -20 -20 -20 -20 -20 -20 -20 -20 -20 -20 -20 -20 -20 -20 -20 -20 -20 -20 -20 -20 -20 -20 -20 -17 12 -6 -20 -20 -20 -20 9 16 4
15 40 4 -20 -20 -1 9 -19 -20 -20 -12 -20 -20 -20 -10 -16 -20 -20 -20 -20 -20 -16 -20 -20 -20 -20 -20 -20 -20 -20 -20 -20 -20 -18 -20 -20 -20 -20 -14 3 16 -2 -19 -20
2 28 31 20 -20 16 3 -9 -20 -20 -20 -20 -20 -20 -20 -20 -20 -20 -20 -20 -20 -20 -20 -20 -20 -20 -20 -20 -20 -20 -20 -20 -20 3 -20 6 8 6 -7 -15 -20 26 24 9
-20 24 26 22 13 -16 -20 -20 -20 -20 -20 -13 -20 -20 -20 -20 -16 -20 -20 -20 -20 -20 -20 -20 -20 -20 -20 -20 -20 -20 -20 -20 -20 -20 -20 -20 -20 -20 -7 14 24 -20 -20 -18
-10 19 23 22 21 24 -20 -20 -20 -20 -20 -17 13 9 6 -19 -20 -20 -20 -20 -20 -20 -20 -20 -20 -20 -20 -20 -20 -20 -20 -20 13 8 -18 19 21 -20 16 -20 -20 -20 -20 -20
-14 1 8 16 17 18 -20 -20 -20 -20 -19 -12 7 15 9 -6 -20 -20 -20 -20 -20 -20 -20 -20 -20 -20 -20 -20 -20 -20 -10 -15 -20 -8 -10 -20 -20 -20 -20 -20 -20 -20 -20 -20
-16 -20 -20 -2 6 31 3 -20 5 -16 -20 -2 -19 -20 -20 -20 -20 -15 -20 -20 -20 -20 -20 -20 -20 -20 -20 -20 -20 -20 -7 -14 2 -3 -20 -20 -20 -20 -20 -20 -20 -20 -20 -20
-20 -20 -8 5 12 28 24 6 -12 -20 -20 -20 -20 -20 -20 -20 -20 -20 -20 -20 -12 -20 -20 -20 -20 -20 -20 -20 -20 -20 -20 -20 -20 -20 -20 -20 -20 -20 -20 -20 -20 -20 -20 -20
-20 -20 -4 6 18 20 15 13 24 11 9 -1 -19 -20 -20 -20 -20 -9 -20 -20 -20 -20 -20 -20 -20 -20 -20 -20 -20 -20 -20 -20 -20 -20 -20 -20 -20 -20 -20 -20 -20 -20 -20 -20
-20 -20 2 -2 14 9 -12 -20 -20 -12 -18 -15 -17 -20 -6 -20 -20 -20 -20 -15 -20 -20 -20 -19 -20 -20 -20 -20 -20 -20 -20 -20 -20 -20 -20 -20 -20 -20 -20 -20 -20 -20 -20 -20
-8 -16 5 -16 -2 -1 -20 -20 -20 -19 -20 1 24 3 14 -5 -20 -20 -20 -7 -4 -2 -2 -20 -20 -20 -20 -20 -20 -20 -20 -20 -20 -20 -20 -20 -20 -20 -20 -20 -20 -20 -20 -18

GFSCGP_prec_radar_063.txt.gz
Reflectivity
-20 -20 -20 -20 -20 -20 -20 -20 -20 -20 -20 -20 -20 -20 -20 -20 -20 -20 -20 -20 -20 -20 -20 -20 -20 -20 -20 -20 -11 6 -20 -20 -12 -6 7 12 17 14 24 -5 -1 19 -2 3
-20 -20 -20 -20 -20 -20 -20 -20 -20 -20 -20 -20 -20 -20 -20 -20 -20 -20 -20 -20 -20 -20 -20 -20 -20 -20 -20 -20 -1 -16 -10 -20 -20 -20 -20 -20 16 -2 -14 0 12 -2 -6 -14
-20 -20 -20 -20 -20 -20 -20 -20 -20 -20 -20 -20 -20 -20 -20 -20 -20 -20 -20 -20 -20 -20 -20 -20 -20 -20 -20 -20 -20 -20 -20 -20 -20 -20 -20 -20 -7 -4 2 -2 -20 -20 -20 -7
-20 -20 -20 -20 -20 -20 -20 -20 -20 -20 -20 -20 -20 -20 -20 -20 -20 -20 -20 -20 -20 -20 -20 -20 -20 -20 -20 -20 -20 -20 -20 -20 -20 -20 -20 -20 -20 -20 -18 -20 -20 -20 -20 -20
-20 -20 -20 -20 -20 -20 -20 -20 -20 -20 -20 -20 -20 -20 -20 -20 -20 -20 -20 -20 -20 -20 -20 -20 -20 -20 -20 -20 -20 -20 -20 -20 -20 -20 -20 -20 -20 -20 -20 -20 -20 -20 -20 -16
-20 -20 -20 -20 -20 -11 -18 -20 -20 -20 -20 -20 -20 -20 -20 -20 -20 -20 -20 -20 -20 -20 -20 -20 -20 -20 -20 -20 -20 -20 -20 -20 -20 -20 -20 -20 -20 -20 -20 -20 -20 -20 -20 -20
-20 -20 -20 -20 -20 -20 -20 -20 -20 -20 -20 -20 -20 -20 -20 -20 -20 -20 -20 -20 -20 -20 -20 -20 -20 -20 -20 -20 -20 -20 -20 -20 -20 -20 -20 -20 -20 -20 -20 -20 -20 -20 -20 -20
-20 -20 -20 -20 -20 -20 -20 -20 -20 -20 -20 -20 -20 -20 -20 -20 -20 -20 -20 -20 -20 -20 -20 -20 -20 -20 -20 -20 -20 -20 -20 -20 -20 -20 -20 -20 -20 -20 -20 -20 -20 -20 -20 -20
-20 -20 -5 -15 -14 7 2 -20 -20 -20 -20 -20 -20 -20 -20 -20 -20 -20 -20 -20 -20 -20 -20 -20 -20 -20 -20 -20 -20 -20 -20 -20 -20 -20 -20 -20 -20 -20 -20 -20 -20 -20 -20 -20
-20 -20 -11 2 -20 -20 -20 -20 -20 -20 -20 -20 -20 -20 -20 -20 -20 -20 -20 -20 -20 -20 -20 -20 -20 -20 -20 -20 -20 -20 -12 14 -3 -20 -20 -20 -20 -20 -20 -20 -20 -13 -19 10
-20 -20 -20 -15 0 -20 -20 -20 -20 -20 -20 -20 -20 -20 -20 -20 -20 -20 -20 -20 -20 -20 -20 -20 -20 -20 -20 -20 -20 -20 -20 -8 24 27 4 -20 -20 -20 -20 -20 -20 -20 23 20
-20 -20 -20 -5 -6 -19 -20 -20 -20 -18 -20 -20 -20 -20 -20 -20 -20 -20 -20 -20 -20 -20 -20 -20 -20 -20 -20 -20 -20 -20 -20 -20 -15 28 -3 22 23 21 18 1 -11 -4 12 21
-20 -20 -20 -20 -20 -20 -20 -20 -20 -4 -20 -20 -20 -20 -20 -20 -20 -20 -20 -20 -20 -20 -17 -20 -20 -20 -20 -20 -20 -20 -20 -20 -11 20 22 22 31 35 45 30 37 21 25 30
-17 -20 6 4 -20 -20 -20 -20 -20 -20 -20 -20 -20 -20 -20 -20 -20 -20 -20 -20 -20 -20 -20 -20 -20 -20 -20 -20 -20 -20 -20 -20 -20 3 -13 23 14 17 5 11 5 -2 -10 -7
-20 -10 -18 -20 -20 -20 -20 -20 -20 -20 -20 -20 -20 -20 -20 -20 -20 -20 -20 -20 -20 -20 -20 -20 -20 -20 -20 -20 -20 -20 -20 -20 -20 -20 -20 -20 -14 -20 -19 -16 -17 -20 -14 -15
-20 -20 -20 -10 0 -14 -20 -20 -20 -20 -20 -20 -20 -20 -20 -20 -20 -20 -20 -20 -20 -20 -20 -20 -20 -20 -20 -20 -20 -20 -20 -20 -20 -20 -20 -20 -20 27 -20 11 -20 18 -20 31
-20 -1 -19 -20 -11 24 -20 -20 -20 -20 -20 -20 -20 -20 -20 -20 -20 -20 -20 -20 -20 -20 -20 -20 -20 -20 -20 -20 -20 -20 -20 -20 -20 -20 -20 -20 -15 -7 -20 -20 -7 -20 -10 26
-5 -8 1 -16 -3 17 -17 -20 -20 -20 -20 -20 -20 -20 -20 -16 -13 -20 -20 -20 -20 -20 -20 -20 -20 -20 -20 -20 -20 -20 -20 -20 -20 -20 -20 -20 -20 23 17 5 -20 8 24 5
-20 -20 -7 3 -17 3 -1 -6 -12 -20 -20 -20 -20 -20 -20 3 -18 -20 -20 -20 -20 -20 -20 -20 -20 -20 -20 -20 -20 -20 -20 -20 -20 -20 -20 -20 -20 -20 13 -1 31 27 -16 18
-1 7 -12 -20 -13 -20 -20 6 14 1 21 -20 -7 1 6 -20 -20 -20 -20 -20 -20 -20 -20 -20 -20 -20 -20 -20 -20 -20 -20 -20 -20 17 9 -20 -20 -19 -20 -20 -8 -14 2 14
-1 10 3 -20 -10 -20 -19 7 2 4 -6 -19 -20 -20 -20 -20 -20 -20 -20 -20 -20 -20 -20 -20 -20 -20 -20 -20 -20 -20 -20 -20 -3 -20 -5 -9 -20 -15 -20 -20 -7 2 9 15
-20 -7 -20 -20 -20 -20 -11 11 12 18 17 -8 2 -20 -20 -20 -20 -20 -2 -20 -8 -14 -20 -20 -20 -20 -20 -20 -20 -20 -20 -20 -20 -20 -20 -20 -16 3 16 17 10 -6 -20 -20
-12 -20 -20 -20 -20 -13 -4 4 1 30 25 17 14 3 -20 -20 -20 -20 -20 -20 -20 4 -18 -20 -20 -20 -14 -20 -20 -20 -20 -20 -20 -20 -20 -13 -20 -14 1 -18 -20 -20 -20 -20
-20 -20 -20 -20 -20 -20 -9 -2 3 30 11 28 13 -3 -20 -20 -20 -20 -20 -20 -19 -20 -20 -20 -20 -20 -20 -20 -20 -20 -20 -20 -20 -20 -20 -20 -4 -17 -20 -20 -20 -20 -20 -20
-20 -20 -20 -20 -20 -10 -14 -1 -5 16 7 10 29 3 4 6 -18 -17 -19 5 -19 -20 -20 -20 -20 -20 -20 -20 -20 -20 -20 -20 -20 -20 -20 -20 -20 -20 -20 -20 -20 -20 -20 -20
-12 -14 -11 -20 -20 -20 -20 -20 -20 -9 -7 -20 13 17 8 6 7 5 -20 -14 -20 -20 -20 4 -19 -20 -17 9 -8 -20 -20 -20 -20 -20 -20 -20 -20 -20 -20 -20 -16 -11 -11 -18

GFSCGP_prec_radar_066.txt.gz
Reflectivity
-20 -20 -20 -20 -20 -20 -20 -20 -20 -20 -20 -20 -20 -20 -20 -20 -20 -20 -20 -20 -20 -20 -20 -20 -20 11 -20 -20 -20 3 -5 16 16 6 23 21 21 15 21 18 -4 25 11 14
-20 -20 -20 -20 -20 -20 -20 -20 -20 -20 -20 -20 -20 -20 -20 -20 -20 -20 -20 -20 -20 -20 -20 -20 -20 5 -20 -20 -20 -20 -15 8 -16 11 25 13 16 29 1 6 26 27 12 22
-20 -20 -20 -20 -20 -20 -20 -20 -20 -20 -20 -20 -20 -20 -20 -20 -20 -20 -20 -20 -20 -20 -20 -20 -20 -20 2 -15 -20 -20 -20 -20 -20 -5 -12 14 14 12 11 11 19 -10 -3 8
-20 -20 -20 -20 -20 -20 -20 -20 -20 -20 -20 -20 -20 -20 -20 -20 -20 -20 -20 -20 -20 -20 -20 -20 -20 -20 -20 -20 -20 -20 -20 -20 -20 -20 -20 -20 -4 12 9 6 14 18 15 -2
-20 -20 -20 -20 -20 -20 -20 -20 -20 -20 -20 -20 -20 -20 -20 -20 -20 -20 -20 -20 -20 -20 -20 -20 -20 -20 -20 -20 -20 -20 -20 -20 -20 -20 -20 -20 -20 -20 -13 -20 -8 -7 -8 -13
-20 -20 -20 -20 -20 -20 -20 -20 -20 -20 -20 -20 -20 -20 -20 -20 -20 -20 -20 -20 -20 -20 -20 -20 -20 -20 -20 -20 -20 -20 -11 -20 -20 -20 -20 -20 -20 -20 -20 -20 -20 -20 -20 -20
-20 -20 -20 -20 -20 -20 -20 -20 -20 -20 -20 -20 -20 -20 -20 -20 -20 -20 -20 -20 -20 -20 -20 -20 -20 -20 -20 -20 -20 -20 -20 -20 -20 -20 -20 -20 -20 -20 -20 -20 -20 -20 -20 -20
-17 -20 -20 -20 -20 -15 -20 -20 -20 -20 -20 -20 -20 -20 -20 -20 -20 -20 -20 -20 -20 -20 -20 -20 -20 -20 -20 -20 -20 -20 -20 -20 -20 -20 -20 -20 -20 -20 -20 -20 -20 -20 -20 -20
-18 -20 -13 -20 -6 13 -0 -20 -20 -20 -20 -20 -20 -20 -20 -20 -20 -20 -20 -20 -20 -20 -20 -20 -20 -20 -20 -20 -20 -20 -20 -20 -20 -20 -20 -20 -20 -20 -20 -20 -20 -20 -20 -20
-20 -20 -3 -9 -5 5 -5 -20 -17 -20 -20 -20 -20 -20 -20 -20 -20 -20 -20 -20 -20 -20 -20 -20 -20 -20 -20 -20 -20 -20 -20 18 -20 -20 -20 -20 -20 -20 -20 -20 -20 -20 -20 -20
-20 -20 -20 -20 -20 -20 -20 -20 -20 -20 -20 -20 -20 -20 -20 -20 -20 -20 -20 -20 -20 -20 -20 -20 -20 -20 -20 -20 -20 -20 -20 -20 -20 25 21 -18 -20 -20 -20 -20 -20 -16 -20 -19
-20 -20 -20 -20 -20 -20 -20 -20 -0 -9 -20 -20 -20 -20 -20 -20 -20 -20 -20 -20 -20 -20 -20 -20 -20 -20 -20 -20 -20 -20 -20 -20 -20 -17 22 19 3 -5 4 -7 -1 -6 9 9
-20 -20 -20 -20 -20 -20 -20 -20 -20 -20 -20 -20 -20 -20 -12 -20 -20 -20 -20 -20 -20 -20 -20 -20 -20 -20 -20 -20 -20 -20 -20 -20 -20 -20 -2 13 -6 -16 -2 15 9 7 25 3
-20 -9 16 7 -18 -20 -20 -20 -20 -20 -20 -20 -20 -20 -20 -20 -17 -20 -20 -20 -20 -20 -20 -20 -20 -20 -20 -20 -20 -20 -20 -20 -20 -20 -20 -20 2 1 -20 -6 -20 -20 0 12
-20 -20 -14 -1 -20 -20 -20 -20 -20 -20 -20 -20 -20 -20 -20 -20 -20 -20 -20 -20 -20 -20 -20 -20 -20 -20 -20 -20 -20 -20 -20 -20 -20 -20 -20 -20 -20 -20 -20 -20 -20 -20 -20 -8
-1 -20 -20 -20 1 -20 -20 -20 -20 -20 -20 -20 -20 -20 -20 -20 -20 -20 -20 -20 -20 -20 -20 -20 -20 -20 -20 -20 -20 -20 -20 -20 -20 -20 -20 -20 -20 -20 -20 -20 20 -11 -20 -19
-20 -7 -20 -20 -8 -9 -20 -20 -20 -20 -20 -20 -20 -20 -20 -20 -20 -20 -20 -20 -20 -20 -20 -20 -20 -20 -20 -20 -20 -20 -20 -20 -20 -20 -20 -20 -20 -20 -20 -5 -0 -18 18 27
-20 -6 -20 -20 -20 -20 -20 -20 -20 -20 -20 -20 -20 -20 -20 -20 -20 -20 -20 -20 -20 -20 -20 -20 -20 -20 -20 -20 -20 -20 -20 -20 -20 -20 -20 -20 -20 -20 -20 -20 -20 -20 -4 24
-20 -5 -19 3 -20 -20 -20 -17 -7 -7 -20 -3 -20 -20 -20 -20 -20 -20 -20 -20 -20 -20 -20 -20 -20 -20 -20 -20 -20 -20 -20 -20 -20 -20 -20 -20 -20 -20 -20 -20 -20 -20 13 16
8 3 16 -20 12 -20 -20 -20 7 1 -11 -20 -12 -20 -20 -20 -20 -20 -20 6 2 -20 -20 -20 -20 -20 -20 -20 -20 -20 -20 -20 -20 -20 -20 -20 -20 -20 -20 -18 -4 21 22 18
-20 -6 -5 8 -6 -19 -20 -20 -12 14 -3 -20 -20 -20 -20 -20 -20 -20 -20 -20 -20 -20 -20 -20 -20 -20 -20 -20 -17 -18 -20 -20 -20 -20 -20 -20 -20 -3 2 8 9 5 5 2
2 -19 -7 1 1 -17 -20 -18 -20 -20 -16 -20 -20 -20 -20 -20 -20 -20 -20 -20 -20 4 -3 -5 -20 -20 -20 -20 -20 -20 -20 -20 -19 4 4 14 0 3 -4 -11 3 -3 7 6
-19 -17 -20 3 -20 -20 -20 -20 -20 -20 -20 -20 -20 -20 -20 -20 -20 -20 -20 -20 -20 -16 -18 -17 7 -14 -20 -20 -20 -20 -20 -9 -20 -13 -13 -14 -20 -19 1 20 20 23 28 19
-20 -20 -20 -16 -20 -20 -20 -20 -20 -20 -17 -17 -20 -18 14 -14 -20 -20 -20 -20 -20 -20 7 -20 -20 -20 -20 -20 -20 -20 -20 7 24 -11 -20 -8 -17 2 15 15 11 7 20 23
-20 -20 -20 -20 -20 -20 -20 -20 -20 -20 -20 -20 -11 -19 18 30 -16 -20 -20 -20 -20 -20 -20 -19 -20 -20 -14 -20 -20 21 4 -20 -15 -20 -20 -20 -16 -1 -11 -4 18 18 11 -18
-20 -20 -20 -20 -20 -20 -20 -20 -20 -20 -20 -20 -20 -20 12 17 -2 7 2 6 18 -2 -17 14 -16 -20 -20 -20 -20 -10 -13 -20 -20 -20 -20 -20 -20 -20 -11 -18 -13 1 -11 -20

GFSCGP_prec_radar_072.txt.gz
Reflectivity
-20 -20 -20 -20 -20 -16 -20 -20 -20 -20 -20 -20 -20 -20 -20 -20 -20 -20 -20 -20 -20 -20 -20 -20 -20 -20 -20 -7 4 7 -20 -7 12 30 15 11 20 7 16 22 15 17 13 22
-20 -20 -20 -20 -20 -20 -20 -20 -20 -20 -20 -20 -20 -20 -20 -20 -20 -20 -20 -20 -20 -20 -20 -20 -20 -20 -20 -18 1 5 -7 8 -4 -20 -9 -13 7 19 20 4 17 10 -18 -20
-20 -20 -5 -15 -20 -20 -20 -20 -20 -20 -20 -20 -20 -20 -20 -20 -20 -20 -20 -20 -20 -20 -20 -20 -20 -20 -20 -20 -14 -10 -20 0 -0 4 17 21 29 18 20 28 15 15 -0 -20
-13 -20 -18 -20 -20 -20 -20 -20 -20 -20 -20 -20 -20 -20 -20 -20 -20 -20 -20 -20 -20 -20 -20 -20 -20 -20 -20 -20 -20 -20 -20 -3 -2 -20 -16 -17 10 3 -0 -7 -1 22 19 -9
-20 -13 -16 3 -20 -20 -20 -13 -20 -20 -20 -20 -20 -20 -20 -20 -20 -20 -20 -20 -20 -20 -20 -20 -20 -20 -20 -20 -20 -8 -20 -0 -4 -20 -20 -20 -20 -20 4 19 22 23 21 6
-1 -17 -6 -20 -20 -20 -10 -20 -20 -20 -20 -20 -20 -20 -19 -20 -20 -20 -20 -20 -20 -20 -20 -20 -20 -20 -20 -20 -20 -20 -20 -20 -20 -4 -4 -20 -20 -20 -12 -19 4 22 24 27
-11 1 -3 -20 -20 -20 -20 -20 -20 -20 -20 -20 -20 -20 -16 -20 -20 -20 -20 -20 -20 -20 -20 -20 -20 -20 -20 -20 -20 -20 -20 -20 -15 -2 1 -14 -2 5 -20 -20 5 -17 9 17
23 16 11 8 -1 -20 -20 -6 -20 -20 -20 -20 -20 -20 -20 -20 -20 -20 -20 -20 -20 -20 -20 -20 -20 -20 -20 -20 -20 -20 -20 -20 -20 -20 -20 -20 -2 7 -0 -20 -20 -20 -20 -20
-2 9 14 6 17 13 -19 -20 -19 -20 -20 -20 -20 -20 -20 -20 -20 -20 -20 -20 -20 -20 -20 -20 -20 -20 -20 -20 -20 -20 -20 -20 -20 -20 -20 -20 -20 -20 1 -11 -18 -20 -20 -20
-4 -15 7 -2 17 11 -19 -20 -18 -20 -20 -20 -20 -20 -20 -20 -1 -20 -20 -20 -20 -20 -20 -20 -20 -20 -20 -20 -20 -20 -20 -20 -20 -20 -20 -20 -20 -20 -20 -20 -20 -20 -20 -20
3 5 0 2 -8 -10 1 -20 -20 -20 -20 -20 -20 -20 -10 -20 -14 -4 -20 -20 -20 -20 -20 -20 -20 -20 -20 -20 -20 -20 -20 -20 -20 -20 -20 -20 -20 -20 -20 -20 -20 -20 -20 -20
-18 -2 -8 7 -16 -16 -20 -20 -20 -20 -20 -20 -20 -20 -8 -20 -20 -20 -18 -20 -20 -20 -20 -20 -20 -20 -20 -20 -20 -20 -20 -20 -20 -20 -20 -20 -20 -20 -20 -20 -20 -20 -20 -20
-20 -15 -13 -20 -6 -20 -11 -20 -20 -20 -20 -20 4 -13 -19 -20 -19 -1 -16 -20 -20 -20 -20 -20 -20 -20 -20 -20 -20 -20 -20 -20 -20 -20 -20 -20 -20 -20 -20 -20 -20 -20 -20 -20
-14 -20 -0 -0 -6 -7 -16 -20 -20 -20 -20 -20 -20 -20 -20 -20 -20 -20 -2 9 -12 -20 -20 -20 -20 -20 -20 -20 -20 -20 -20 -20 -20 -20 -20 -20 -20 -20 -20 -20 -20 -20 -20 -20
-20 -20 -20 -20 -20 -20 -20 -20 -20 -20 -20 -19 -20 -20 -20 -20 -20 -20 -20 -19 5 8 -20 -20 -20 -20 -20 -20 -20 -20 -20 -20 -20 -20 -20 -20 -20 -20 -20 -20 -20 -20 -20 -20
-20 -20 -20 -20 -17 -20 -20 -20 -20 -20 -20 -20 -20 -20 -20 -20 -20 -20 -20 -20 -20 -4 3 -20 -20 -20 -20 -20 -20 -20 -20 -20 -20 -20 -20 -20 -20 -20 -20 -20 -20 -20 -20 -20
-20 -7 -14 -20 -20 -20 -20 -20 -20 -20 -20 -20 -20 -20 -20 -20 -20 -20 -20 -20 -20 -20 -20 -1 -13 -20 -20 -20 -20 -20 -20 -20 -20 -20 -20 -20 -20 -20 -20 -20 -20 -20 -20 -20
-20 6 15 4 -18 -20 -20 -20 -20 -20 -20 -17 -20 -20 -20 -20 -20 -20 -20 -20 -20 -20 -20 -20 -18 -17 -18 -20 -20 -20 -20 -20 -20 -20 -20 -20 -20 -20 -20 -20 -20 -20 -20 -20
-20 -18 11 -16 -20 -20 -20 -20 -20 -20 -20 -20 -20 -20 -20 -20 -20 -20 -20 -20 -20 -20 -20 -20 -20 -20 -18 -13 -2 -20 -20 -20 -20 -20 -20 -20 -20 -20 -20 -20 -20 -20 -20 -20
-19 -20 6 10 -12 -20 -20 -20 -20 -20 -20 -20 -20 -20 -20 -20 -20 -20 -20 -20 -20 -20 -20 -20 -20 -20 -20 -20 -20 -14 -19 -20 -20 -16 13 5 -19 -20 -20 -20 -20 -20 -20 -20
4 4 9 2 7 -6 -20 -20 -20 -14 -18 -20 -20 -20 -20 -20 -20 -20 -20 -20 -20 -20 -20 -20 -20 -20 -20 -18 -14 -20 -4 -9 -20 -20 -20 -20 -20 -20 -20 -20 -20 -20 -20 -19
-0 6 10 9 6 8 -20 -20 -10 -4 -20 -20 -20 -20 -20 -20 -20 -20 -20 -20 -20 -20 -20 -20 -20 -20 -19 -15 -20 -20 -20 -20 -20 -20 -11 -20 -20 -20 -20 -20 -20 11 10 9
19 -17 11 -17 -3 -20 -20 -20 -20 -20 -20 -20 -20 -20 -20 -20 -20 -20 -20 -20 -20 -20 -20 -20 -20 -20 -20 -20 -20 -20 -20 -20 -20 -20 -20 1 -20 -16 15 2 21 16 23 -5
-20 -20 -20 -20 -20 -20 -20 -20 -20 -20 -20 -20 -20 -20 -20 -20 -20 -20 -20 -20 -20 -20 -20 -20 -20 -20 -20 16 -7 -16 -19 -20 -5 -20 -12 3 16 9 15 23 3 -20 -20 2
-20 -20 -20 -20 -20 -20 -20 -20 -20 -20 -20 -20 -20 -20 -20 -20 -20 -20 -20 -20 -20 -20 -20 -20 -20 -20 2 15 17 17 15 16 16 0 7 7 5 -0 7 -15 0 0 17 19
-20 -20 -20 -20 -20 -20 -20 -20 -20 -20 -20 -20 -20 -20 -20 -20 -20 -20 -20 -20 -20 -10 12 24 18 26 22 -6 15 17 15 19 23 9 -15 8 -13 -17 -18 -11 1 18 14 14

GFSCGP_prec_radar_078.txt.gz
Reflectivity
-20 -20 -20 -20 -20 -20 -20 -20 -20 -11 -7 6 -14 -20 -20 -20 -20 -20 -20 -20 -20 -20 -20 -20 -20 -20 -20 -20 -20 -20 -15 -20 -6 19 -9 -18 -20 -20 4 -20 -6 -20 -20 -9
-20 -20 -20 -3 20 17 -15 -20 -16 -20 11 8 -20 -20 -20 -20 -20 -20 -20 -20 -20 -20 -20 -20 -20 -20 -20 -20 -20 -7 -16 -12 -20 2 -9 -2 -17 -20 -8 -18 -20 -20 -20 -3
-20 -20 -20 9 18 13 -14 -20 -20 -20 -9 -2 -16 -20 -20 -20 -20 -20 -20 -20 -20 -20 -20 -20 -20 -20 -20 -20 -20 -20 -2 -7 -13 -20 -8 -16 -12 -7 -3 7 -18 -17 -20 -18
-20 -20 -20 -19 -9 12 0 -6 8 14 13 -7 -11 -20 -20 -20 -20 -20 -20 -20 -20 -20 -20 -20 -20 -20 -20 -20 -20 -20 -19 -18 -20 -3 -19 -20 0 3 -20 -20 -20 -20 -20 -20
-20 -20 -20 -20 7 19 20 -1 29 19 11 -19 -20 -20 -20 -20 -20 -20 -20 -20 -20 -20 -20 -20 -20 -20 -20 -20 -20 -20 -20 -6 -3 -10 -3 5 12 -17 -20 -19 -4 -16 -20 -19
-20 -3 -20 -20 22 28 29 28 29 3 8 -3 -20 -20 -20 -20 -20 -20 -20 -20 -20 -20 -20 -20 -20 -20 -20 -20 -20 -20 -20 -12 -3 -3 -7 -18 17 -6 -20 -20 -19 3 5 -11
-20 -20 -3 16 28 15 24 16 20 23 -4 -20 -20 -20 -16 -20 -20 -20 -20 -20 -20 -20 -20 -20 -20 -20 -20 -20 -20 -20 -20 -20 -12 3 -10 -20 -20 -20 -20 -20 -20 -20 -20 -20
-20 -20 -3 12 5 -3 19 13 10 -2 -18 -20 -14 -18 -20 -20 -20 -20 -20 -20 -20 -20 -20 -20 -20 -20 -20 -20 -20 -20 -20 -20 -20 -20 -12 -17 -20 -20 -20 -20 -20 -20 -20 -20
-20 -0 -1 -0 -0 11 8 14 -5 25 23 31 -20 -20 -19 -20 -20 -20 -20 -20 -20 -20 -20 -20 -20 -20 -20 -20 -20 -20 -20 -20 -20 -20 -20 -12 6 8 -1 -10 -20 -20 -20 -20
-20 -14 -7 -4 9 11 10 9 13 36 8 0 -3 12 -2 -20 -20 -20 -20 -20 -20 -20 -2 -2 -20 -20 -20 -20 -20 -20 -20 -20 -20 -20 -20 -20 -20 -7 -10 -11 -20 -20 -20 -20
-20 -20 0 -20 6 7 2 15 26 19 7 20 9 6 20 6 13 -20 -20 -15 1 -10 -20 -20 -20 -20 -20 -20 -20 -20 -20 -20 -20 -20 -20 -20 -20 -20 -20 -14 -10 -20 -0 -20
11 -20 -9 -18 7 7 16 -1 -9 19 22 13 8 3 6 9 -12 -20 -20 -20 -20 -20 -20 -20 -20 -20 -20 -20 -20 -20 -20 -20 -20 -20 -20 -20 -20 -20 -20 -20 -20 -20 -20 -20
-20 -20 -13 -5 13 12 4 8 19 3 25 32 23 8 21 25 25 11 -20 -20 -20 -20 -20 -20 -20 -17 -20 -20 -20 -20 -20 -20 -20 -20 -20 -20 -20 -20 -20 -20 -20 -20 -20 -20
-16 -20 -14 16 32 24 7 14 10 19 9 12 25 17 0 23 22 -2 0 -20 -20 -20 -20 -19 -12 5 15 -20 -20 -20 -20 -20 -20 -20 -20 -20 -20 -20 -20 -20 -20 -20 -20 -20
-17 -4 -18 -20 -8 2 26 12 18 34 26 17 16 2 25 13 15 17 7 -20 -20 -20 -20 -20 -20 -20 -19 -19 -20 -20 -20 -20 -20 -20 -20 -20 -20 -20 -20 -20 -20 -20 -20 -20
-20 -9 -20 -20 -20 -20 4 19 20 1 25 25 -2 22 21 27 28 20 -20 -20 -20 -20 -2 -14 -16 -20 1 -20 -20 -19 -20 -20 -20 -20 -20 -20 -20 -20 -20 -20 -20 -20 -20 -20
-3 -20 -20 -20 -0 -5 -20 -18 -15 6 6 -4 -14 -5 -2 -19 -15 -6 -20 -20 -20 -20 -20 -20 -20 -11 -19 -20 -20 -20 -20 -20 -20 -20 -20 -20 -20 -20 -20 -20 -20 -20 -20 -20
-20 -20 -20 -10 -14 3 -20 -4 -20 -20 -20 -18 -2 8 18 -16 2 -20 -16 -20 -20 -17 -15 -20 -20 -20 -10 -3 -18 -20 -20 -20 -20 -20 -20 -20 -20 -20 -20 -20 -20 -20 -20 -20
-20 -20 1 9 -19 -20 -9 -20 -20 -19 1 5 -13 -15 11 -20 -20 -12 -20 -20 -20 -15 -20 -20 -20 -20 -20 -20 -20 -20 -20 -20 -20 -20 -20 -12 -5 1 1 -20 -20 -20 -20 -20
-20 -19 14 14 -19 -20 -20 -20 -20 -20 -18 -16 -20 -20 -20 -20 -17 -20 -20 -20 -20 -20 -20 -20 -20 -20 -20 -20 -20 -20 -20 -20 -20 -20 -20 -20 -20 -20 -20 -20 -20 -20 -20 -20
7 2 5 6 12 -9 -20 -20 -20 1 0 -20 -17 -1 -20 -20 -18 -16 -20 -20 -20 -20 -20 -20 -20 -20 -20 -20 -20 -20 -20 -20 -20 -20 -20 -20 -20 -20 -20 -20 -20 -20 -16 -20
-9 8 8 2 13 2 -20 -18 20 24 -2 -12 -10 -17 -20 -20 -20 -20 -20 -20 -20 -20 -20 -20 -20 -20 -20 -20 -20 -20 -20 -20 -20 -20 -20 -20 -2 -20 -20 -20 -20 -20 8 -6
19 -17 -18 -20 -20 -20 -20 -16 13 -20 16 1 -15 -20 -20 -20 -20 -20 -20 -20 -20 -20 -20 -20 -20 -20 -20 -20 -20 -20 -20 -20 -20 -20 -12 -17 -11 -15 27 -5 -15 -9 23 -20
24 24 9 20 -15 14 34 8 11 -17 -20 -20 -20 -20 -20 -20 -20 -20 -20 -20 -20 -20 -20 -20 -20 -20 -20 -20 -20 -20 -20 -20 -20 -19 6 4 -1 2 -4 20 21 9 -1 -4
19 -11 -3 15 32 27 9 19 30 -20 -20 -20 -20 -20 -20 -20 -20 -20 -20 -20 -20 -20 -20 -20 -20 -20 -20 -20 -20 -20 -20 -20 -20 -20 -6 13 9 19 9 16 8 11 17 22
-1 29 32 26 33 33 33 31 10 -20 -20 -20 -20 -20 -20 -20 -20 -20 -20 -20 -20 -20 -20 -20 -20 -20 -20 -20 -20 -20 -20 -20 -20 -18 5 10 16 15 23 21 18 20 23 19

GFSCGP_prec_radar_081.txt.gz
Reflectivity
-20 -20 -20 -20 -20 -20 -20 -20 -20 -20 -20 -20 -20 -12 -20 -20 -20 -20 -20 -20 -20 -20 -20 -20 -20 -20 -20 -20 -20 -20 2 -20 10 -20 -20 -20 -20 -20 -20 -20 9 21 5 15
-20 -20 -20 -20 -20 -19 -20 -20 -20 -20 -20 15 -17 -20 -20 -20 -20 -20 -20 -20 -20 -20 -20 -20 -20 -20 -20 -20 -20 -20 -20 -9 9 -16 1 -7 -19 -20 -20 -14 13 17 13 11
-20 -20 -20 -20 -20 -20 -20 -20 -20 -7 -8 25 16 14 -20 -20 -20 -20 -20 -20 -20 -20 -20 -20 -20 -20 -20 -20 -20 -20 -19 -20 -20 -0 3 -17 -12 -8 -12 -13 -20 -19 -20 -20
-20 -20 -20 -20 -20 -20 -20 -20 -20 31 10 21 -6 -17 -20 -20 -20 -20 -20 -20 -20 -20 -20 -20 -20 -20 -20 -20 -20 -20 -20 -20 -20 12 -19 -17 -16 11 -17 -20 -20 -20 -20 -20
-20 -20 -20 -20 -20 -20 -20 -20 -20 12 13 -19 14 9 -20 -20 -20 -20 -20 -20 -20 -20 -20 -20 -20 -20 -20 -20 -20 -20 -20 -16 -20 -20 4 -10 -20 -20 -6 -20 -20 -20 -20 -20
-20 -20 -20 -20 -20 -20 -20 -10 -20 -8 17 28 -10 -10 -20 -20 -20 -20 -20 -20 -20 -20 -20 -20 -20 -20 -20 -20 -20 -20 -20 -20 -20 -20 -13 -20 -20 -20 -20 -20 -20 -20 -20 -20
-20 -20 -20 -20 -20 -20 -7 30 20 25 28 18 -20 -20 -20 -1 -17 -20 -20 -20 -20 -20 -20 -20 -20 -20 -20 -20 -20 -20 -20 -20 -10 -20 -3 -11 -20 3 -20 -20 -20 -20 -6 -20
-20 -20 -20 -20 -20 -20 18 28 18 6 -0 -20 -20 -20 -20 6 -1 -20 -20 -20 -20 -20 -20 -20 -20 -20 -20 -20 -20 -20 -20 -20 -20 -9 -19 -8 -10 -10 -15 -10 -20 -20 -19 -15
-20 -20 -20 -9 -20 -20 3 11 -11 10 30 -13 -17 -20 -11 2 11 -19 -20 -20 -20 -20 -20 -20 -20 -20 -20 -20 -20 -20 -20 -20 -20 -20 7 -12 -20 -20 -20 -20 -20 -20 -20 -17
-20 -20 -20 -20 -20 -20 -20 20 17 28 17 15 -8 -16 -19 -9 -6 12 -16 -20 -20 -20 -20 -20 -20 -20 -20 -20 -20 -20 -20 -20 -20 -20 -20 -18 -20 -20 -20 -20 -20 -20 -20 -20
-20 -20 -20 -20 -20 -2 4 7 30 31 16 25 -3 -5 29 28 24 18 8 -20 -20 -20 -20 -20 -20 -20 -20 -20 -20 -20 -20 -20 -20 -20 -20 -20 -14 -20 -3 -20 -20 -20 -20 -20
-20 -20 -20 -20 -20 -20 0 -18 23 31 24 8 8 29 20 10 31 22 -18 -4 -20 -20 -20 -20 -20 -20 -20 -20 -20 -20 -20 -20 -20 -20 -20 -20 -20 -20 -20 -20 -20 -20 -20 -20
-9 2 -20 -20 -19 2 26 11 17 28 19 29 27 15 38 36 15 17 19 16 5 9 -20 -20 -20 -20 21 -13 -20 -20 -20 -20 -20 -20 -20 -20 -20 -20 -20 -20 -20 -20 -20 -20
-20 -20 -20 -11 24 19 32 14 18 24 32 7 14 9 26 36 29 21 1 29 3 -12 -20 -20 -20 -20 -20 -20 18 6 -20 -20 -1 -20 -20 -20 -20 -20 -20 -20 -20 -20 -20 -20
-20 -20 -20 -20 -6 -7 33 7 37 25 29 31 12 12 11 29 33 27 17 11 -15 -20 -14 -20 -20 -20 -20 -20 -11 27 13 -2 -20 23 -20 -20 -20 -20 -20 -20 -20 -20 -20 -20
-20 -20 -20 -20 -20 -20 -20 -8 2 23 34 25 30 31 19 32 34 33 30 12 -20 21 16 -4 -12 -20 -20 8 -16 -20 -20 26 -14 -16 -20 -20 -20 -20 -20 -20 -20 -20 -20 -20
-15 -1 -19 -20 -20 -20 -20 -0 7 17 1 20 14 16 16 25 18 14 20 -11 -20 -14 -9 -20 -20 12 2 -20 -20 -20 -20 -20 -20 -6 16 -20 -20 -8 -20 -20 -20 -20 -20 -20
-17 -11 -20 -20 -20 -20 -20 8 -14 -16 3 11 10 4 1 27 6 16 -20 -20 -20 -20 -20 -20 -20 -10 -20 -20 -20 -20 -20 -20 -20 -20 -14 20 30 2 22 -20 -20 -20 -20 -20
-20 -20 -20 -17 -13 -12 -20 -20 13 4 -11 -18 -2 -5 -20 3 25 -6 -20 -20 -20 -20 -20 -20 -20 -20 -20 -20 -20 -20 -20 -20 -20 -20 -20 -20 -20 27 26 20 -17 -20 -20 -20
-20 -20 -16 -20 15 9 -20 1 -20 -20 -20 -20 -20 -20 -20 11 -20 -9 -19 -20 -20 -20 -20 -13 -20 -20 -20 -20 -20 -20 -20 -20 -14 -19 -20 -20 -20 -20 -20 -16 -12 4 16 -17
-20 -20 -20 -13 -10 8 -20 -20 -20 -14 -20 -20 -20 -20 -20 -20 -9 14 3 -20 -20 -20 -20 -19 -20 -20 -20 -20 -20 -20 -20 -20 -20 -20 -20 -20 -20 -20 -20 -20 23 27 7 -14
14 2 12 14 4 5 -20 -20 -8 -16 -20 -20 -20 -20 -20 -20 -20 -20 -20 -20 -20 -20 -20 -20 -20 -20 -20 -20 -20 -20 -20 -20 -20 -20 -20 -20 -20 -20 -20 -20 -20 23 17 -3
30 -4 -18 -20 -20 -3 25 2 -18 11 18 -20 -3 -20 -18 -4 -18 -20 -20 -20 -20 -20 -20 -20 -20 -20 -20 -20 -20 -20 -20 -20 -20 -20 -20 -20 -20 -20 -20 -20 -20 -9 26 28
34 20 25 19 17 -12 11 25 -6 36 11 4 29 27 21 3 -20 -20 -20 -20 -20 -20 -20 -20 -20 -20 -20 -20 -20 -20 -20 -20 -20 -20 -20 -20 -20 -20 -20 -20 -7 -8 -0 23
10 25 15 24 22 10 22 26 36 22 -19 -20 -20 -20 -20 -20 -20 -20 -20 -20 -20 -20 -20 -20 -20 -20 -20 -20 -20 -20 -20 -20 -20 -20 -20 -20 -20 -20 -20 -14 7 10 13 23
2 11 29 17 33 20 37 32 31 26 4 -20 -20 -20 -20 -20 -20 -20 -20 -20 -20 -20 -20 -20 -20 -20 -20 -20 -20 -20 -7 -20 -20 -20 -20 -20 -20 -20 -20 -20 -15 11 16 21

GFSCGP_prec_radar_084.txt.gz
Reflectivity
-20 -20 -20 -20 -20 -20 -20 -20 -20 -20 -20 -20 -20 -20 -20 -20 -20 -20 -20 -20 -20 -20 -20 -20 -20 -20 -20 -20 -20 -20 -20 -20 -16 -20 -19 19 7 11 9 13 13 28 8 20
-20 -20 -20 -20 -20 -20 -20 -20 -20 -20 -20 -20 -20 -20 -20 -20 -20 -20 -20 -20 -20 -20 -20 -20 -20 -20 -20 -20 -20 -20 -20 -11 3 -6 -20 -20 -20 -7 -2 2 21 25 12 19
-20 -20 -20 -20 -20 -20 -20 -20 -20 -20 -20 -20 -19 -20 -20 -20 -20 -20 -20 -20 -20 -20 -20 -20 -20 -20 -20 -20 -20 -20 -20 -16 -18 -20 -13 -5 -0 0 -6 0 7 23 17 16
-20 -20 -20 -20 -20 -20 -20 -20 -20 -20 -20 -20 -16 -10 -20 -20 -20 -20 -20 -20 -20 -20 -20 -20 -20 -20 -20 -20 -20 -20 -20 -8 -20 -3 -7 -8 -20 13 16 -18 -20 -17 6 13
-20 -20 -20 -20 -20 -20 -20 -20 -20 -20 -20 -15 -20 16 -20 -20 -20 -20 -20 -20 -20 -20 -20 -20 -20 -20 -20 -20 -20 -20 -20 -20 -20 11 -1 -3 -20 -20 -20 -20 -20 -20 5 -8
-20 -20 -20 -20 -20 -20 -20 -20 -20 -20 6 7 -20 -15 -20 -17 -20 -20 -14 -20 -20 -20 -20 -20 -20 -20 -20 -20 -20 -20 -20 -20 -20 10 -15 -7 -19 -20 -20 -20 -20 -20 -20 -20
-20 -20 -20 -20 -20 -20 -20 -20 -17 17 15 -20 -20 -20 -20 -16 -20 0 3 -20 -20 -20 -20 -20 -20 -20 -20 -20 -20 -20 -20 -20 -20 -20 -18 6 3 -20 -20 -20 -20 -20 -20 -20
-20 -20 -20 -20 -20 -20 -20 -20 -7 17 -1 -20 -20 -20 -20 -20 12 21 4 -20 -20 -20 -20 -20 -20 -20 -20 -20 -20 -20 -20 -20 -20 -19 -20 -18 1 -20 -20 -20 -20 -20 -20 7
-20 -20 -20 -20 -20 -20 -20 -20 -11 28 23 -5 -20 -20 -20 -10 22 16 -14 -20 -20 -20 -20 -20 -20 -20 -20 -20 -20 -20 -20 -20 -20 -20 -6 -20 -1 -10 -20 -4 -19 -20 -20 -20
-20 -20 -20 -20 -20 -20 -20 -20 19 23 1 10 -18 15 2 10 -2 -12 22 -9 -20 -20 -20 -20 -20 -20 -20 -20 -20 -20 -20 -20 -20 -20 -20 -20 -20 8 -20 -17 -20 -20 -15 -20
-20 -20 -20 -20 -20 -20 -20 -18 16 34 17 -8 3 21 11 -6 25 -0 20 17 -20 -20 -20 -20 -20 -20 -20 -20 -20 -20 -20 -20 -20 -20 -20 -20 -20 -12 8 -20 -20 -20 -14 -13
-20 -20 -20 -20 -20 -20 -20 -20 -20 21 20 -12 10 -8 33 33 29 -11 -8 -3 -20 -20 -20 -20 -20 -20 -20 -20 -20 -20 -20 -20 -20 -20 -20 -20 -20 -15 -20 -20 -20 -20 -20 -20
-20 -20 -20 -20 -20 -20 -18 -10 6 12 -6 5 19 -2 35 35 31 -11 -19 7 5 -20 -20 -20 -20 -20 -20 -20 -20 15 5 -17 -20 -19 -20 -20 -20 -20 -20 -20 -20 -20 -20 -20
-20 -20 -20 -19 -20 -4 -19 -3 26 31 23 -20 -20 -17 28 40 39 19 -7 5 30 10 -20 -20 -20 -20 -19 -11 21 27 28 -8 -20 -20 -20 -20 -20 -20 -20 -20 -20 -20 -20 -20
-20 -20 -20 -20 -20 -20 -20 -10 21 16 21 -2 -16 16 15 34 38 35 33 29 23 -2 17 -9 -20 -20 -20 -20 -20 -20 -13 -14 11 -7 21 29 -20 26 -8 -20 -20 -20 -20 -20
-20 -20 -20 -20 -20 -20 -20 -20 -5 26 13 28 -1 32 25 35 33 38 37 19 26 -20 2 18 24 5 -20 -20 -20 -20 -20 -20 -20 -3 16 14 30 -19 -20 -20 -19 -19 -20 -20
-17 7 -20 -20 -20 -20 -20 -17 -9 -13 7 28 -0 15 18 31 26 29 33 37 30 15 11 -8 8 14 -20 -20 -20 -20 -20 -20 -20 -20 -20 -20 3 9 -4 20 20 -9 -20 25
-20 -5 -12 1 -20 -20 -20 -20 -14 22 21 -0 5 -0 10 24 28 22 22 17 20 14 14 19 22 9 -13 -20 -20 -20 -20 -20 -20 -20 -20 -20 -20 -20 -1 -3 -20 -20 -20 1
-20 -20 -20 -20 -19 -20 -20 -20 -13 6 11 -20 -20 -6 8 4 -4 -6 -19 7 -3 -4 14 15 11 8 -6 -20 -20 -20 -20 -20 -20 -20 -20 -20 -20 -20 -20 -20 -20 3 10 -12
-20 -20 -20 -20 2 -20 -20 9 3 5 4 -20 -20 -20 -20 -20 -20 -20 -20 -16 -10 -4 3 8 -1 -20 -20 -20 -20 -20 -20 -20 -20 -20 -20 -20 -20 -20 -20 -20 -20 -20 -20 -20
-20 -20 -20 -20 -17 -20 -20 -20 -18 12 -18 -20 -20 -16 -20 -20 -20 -20 -20 -14 9 -16 -6 -20 -20 -20 -20 -20 -20 -20 -20 -20 -20 -20 -20 -20 -20 -20 -20 -12 -3 -20 -20 -20
-10 -3 -5 -4 9 5 -20 -20 -4 -8 -20 -20 -8 7 -20 -20 -20 -20 -20 -20 -20 -18 -20 -20 -20 -20 -20 -20 -20 -20 -20 -20 -20 -20 -20 -20 -20 -20 -20 -20 -20 -20 -20 -20
-6 7 15 -20 -20 -11 -19 -20 -20 17 19 23 15 0 13 -19 -20 -20 -20 -20 -20 -20 -20 -20 -20 -20 -20 -20 -20 -20 -20 -20 -20 -20 -20 -20 -20 -20 -20 -20 -20 -20 -20 -18
33 38 11 15 19 -1 21 -15 -14 20 16 12 -11 14 -20 9 -13 16 -1 -20 -20 -20 -20 -20 -20 -20 -20 -20 -20 -20 -20 -20 -20 -20 -20 -20 -20 -20 -20 -20 -20 -20 -20 -20
40 23 30 37 33 15 2 -2 21 20 -4 20 11 21 29 17 -3 -20 -20 -20 -20 -20 -20 -20 -20 -20 -20 -20 -20 -20 -20 -20 -20 -20 -20 -20 -20 -20 -20 -20 -18 -20 -18 -20
10 24 28 27 40 17 30 18 36 31 19 -16 8 17 -6 -19 -20 -20 -20 -20 -20 -20 -20 -20 -20 -20 -20 -20 -20 -20 -11 -20 -20 -20 -20 -11 -19 -20 -20 -20 -20 -20 -18 -12

GFSCGP_prec_radar_087.txt.gz
Reflectivity
-20 -20 -20 -20 -20 -20 -20 -20 -20 -20 -20 -20 -20 -20 -20 -20 -20 -20 -20 -20 -20 -20 -20 -20 -20 -20 -20 -20 -20 -20 -20 -20 -20 -20 -20 5 8 7 -1 19 29 23 29 33
-20 -20 -20 -20 -20 -20 -20 -20 -20 -20 -20 -20 -20 -20 -20 -20 -20 -20 -20 -20 -20 -20 -20 -20 -20 -20 -20 -20 -6 3 -20 -20 -20 -20 -20 -20 0 7 -18 -9 -8 33 23 18
-20 -20 -20 -20 -20 -20 -20 -20 -20 -20 -20 -20 -20 -20 -20 -20 -20 -20 -20 -20 -20 -20 -20 -20 -20 -20 -20 -20 -20 -19 -20 -20 -20 -20 -18 -20 -20 -14 -15 -3 15 9 26 21
-20 -20 -20 -20 -20 -20 -20 -20 -20 -20 -20 -20 -20 -20 -20 -20 -20 -20 -20 -20 -20 -20 -20 -20 -20 -20 -20 -20 -20 -20 -20 -20 -20 -20 -20 -20 -20 -20 -20 -17 1 21 25 23
-20 -20 -20 -20 -20 -20 -20 -20 -20 -20 -20 -20 -20 -20 -20 -20 -20 -20 -20 -20 -20 -20 -20 -20 -20 -20 -20 -20 -20 -20 -20 -14 -20 -20 -20 -20 -20 -20 -18 -20 1 7 20 22
-20 -20 -20 -20 -20 -20 -20 -20 -20 -20 -20 -20 -20 -20 -20 -20 -20 -20 -20 -20 -20 -20 -20 -19 -20 -20 -20 -20 -20 -20 -20 -20 -20 -20 -20 -20 -20 -20 -7 -9 -20 -7 15 16
-20 -20 -20 -20 -20 -20 -20 -20 -20 -20 4 -20 -20 -20 -20 -20 -20 -20 -20 -20 -20 -14 -20 -19 -20 -20 -20 -20 -20 -20 -20 -20 -20 -6 -18 -20 -20 -20 -20 -20 -20 -20 -20 -20
-20 -20 -20 -20 -20 -20 -20 -20 -20 -20 -15 -0 3 -16 -20 -20 -20 -20 -20 -20 -9 -0 -20 -20 -20 -20 -20 -20 -20 -20 -20 -20 -20 -20 -14 -20 -20 -20 -20 -20 -20 -20 -20 -20
-20 -20 -20 -20 -20 -20 -20 -20 -20 -20 -20 1 -20 -20 -20 -20 -20 -20 -20 -20 -20 -20 -20 -20 -20 -20 -20 -20 -20 -20 -20 -20 -20 -10 -5 -19 -20 -20 -20 -20 -20 -20 -20 -20
-20 -20 -20 -20 -20 -20 -20 -20 -20 23 6 -20 -20 -20 22 -15 -20 -20 -20 -18 -20 -20 -20 -20 -20 -20 -20 -20 -20 -20 -20 -20 -20 -20 -20 -20 -20 -20 -20 -20 -20 -20 -20 -20
-20 -20 -20 -20 -20 -20 -20 -20 -20 -12 -18 22 -14 -20 43 14 -14 -20 -20 -20 -20 -17 -20 -20 -20 -14 -20 -20 -20 -20 -20 -20 -20 -20 -20 -20 -20 -20 -20 -20 -20 -20 -20 -20
-20 -20 -20 -20 -20 -20 -20 -20 -20 -2 -1 19 28 -14 20 29 -17 -20 -20 -20 -20 -20 -20 -20 -20 -20 -20 -20 -20 -20 18 -20 -20 -20 -20 -20 -20 1 -12 -20 -20 -13 2 -20
-20 -20 -20 -20 -16 -19 -20 4 -15 9 26 12 4 -14 -20 17 36 -3 -20 -20 -20 -20 -20 -20 -20 -20 -20 -20 2 24 -11 -4 -20 -20 -20 -20 -20 -20 -19 -20 -20 -18 8 -2
-20 -20 -20 -20 -20 -20 -20 -5 -19 2 24 25 14 -20 15 9 38 35 12 -20 -20 15 24 23 -20 2 27 2 22 29 28 2 3 -20 -20 8 4 -20 -9 -20 -20 -20 -20 -20
-20 -20 -20 -20 -20 -20 -20 -20 -20 -20 -15 33 -8 18 -8 2 28 36 36 11 16 -20 -13 -3 16 14 18 20 12 22 17 7 3 13 19 18 5 16 0 -19 8 -20 -20 -20
-20 -20 -20 -20 -20 -20 -20 -20 -20 -20 -20 8 -5 26 -15 1 15 26 37 38 21 27 -1 24 12 -18 -6 -20 -20 -16 -20 -20 -20 -17 -20 -20 -20 -2 18 22 0 -2 -7 11
-20 -20 -20 -20 -20 -20 -20 -20 -18 -20 -20 -20 5 32 4 20 13 22 33 38 33 25 26 34 17 -4 12 -20 -20 -20 -20 -20 -20 -20 -5 20 12 9 6 -1 9 9 8 -12
-20 -20 -20 -20 -20 -20 -20 -20 1 -20 -20 -16 -20 17 25 24 24 27 35 36 37 31 33 34 21 25 12 -20 -20 -20 -20 -20 -20 -20 -20 -20 -20 -20 -20 -18 2 -8 11 17
-20 -20 -20 -20 -20 -20 -20 -20 -20 -20 -20 -20 -20 -12 36 20 13 29 28 30 33 34 34 27 28 22 21 13 -15 -20 -20 -20 -20 -20 -20 -20 -20 -20 -20 -20 -20 -20 -20 -1
-20 -20 -20 -20 -0 -20 -20 -20 -20 -20 -20 -20 -20 -19 -16 20 14 21 21 22 35 31 27 26 19 16 3 -16 -11 -11 -12 -20 -20 -20 -20 -20 -20 -20 -20 -20 -20 -20 -20 -20
-20 -20 -20 -20 0 -20 -20 -20 -20 -20 -20 -19 -12 17 20 5 -9 8 -13 26 35 24 10 10 13 18 11 -3 -9 -12 -20 -20 -20 -20 -20 -20 -20 -20 -20 -20 -20 -20 -20 -20
-20 -20 -20 -20 -6 -15 -20 -20 -20 -20 -20 -1 18 13 18 11 12 -7 -19 -16 -19 5 -2 -20 -20 -14 -5 3 6 -10 -20 -20 -20 -20 -20 -20 -20 -20 -20 -20 -20 -20 -20 -20
-19 -20 12 2 -20 -17 -19 -20 -20 -20 -20 10 10 19 17 28 22 17 -18 -20 -20 -20 -20 -20 -20 -20 -20 -20 -20 -20 -20 -20 -20 -20 -20 -20 -20 -20 -20 -20 -20 -20 -20 -20
-19 2 15 38 14 5 0 -20 -20 -20 -20 -19 -15 -1 4 21 15 26 9 -2 25 24 2 -20 -20 -20 -20 -20 -20 -20 -20 -20 -20 -20 -20 -20 -20 -20 -20 -20 -20 -20 -20 -20
17 15 32 32 27 30 26 13 13 -9 -15 -12 -13 3 -10 -20 4 11 14 -5 -12 -20 -18 -20 -20 -20 -20 -17 -15 -20 -20 -20 -20 -20 -20 -20 -20 -20 -20 -18 -17 -17 -6 -18
22 2 10 15 27 35 19 28 21 14 22 7 9 6 -10 -4 -14 9 4 0 -20 -20 -20 -20 -20 -20 -16 -20 -20 -20 -16 -20 -20 -20 -20 -20 -20 -20 -20 -20 -19 -20 -20 -20

GFSCGP_prec_radar_090.txt.gz
Reflectivity
-20 -20 -20 -20 -20 -20 -20 -20 -20 -20 -20 -20 -20 -20 -20 -20 -20 -20 -20 -20 -20 -20 -20 -20 -20 -20 -20 -20 -20 -20 -20 -20 -20 -6 -11 9 -6 -1 15 13 20 20 32 34
6 -20 -20 -20 -20 -20 -20 -20 -20 -20 -20 -20 -20 -20 -20 -20 -20 -20 -20 -20 -20 -20 -20 -20 -20 -20 -20 -20 -20 -20 -20 -20 -20 -20 -20 -20 -2 3 -18 -16 -10 24 28 26
2 -19 -6 -20 -20 -20 -20 -20 -20 -20 -20 -20 -20 -20 -20 -20 -20 -20 -20 -20 -20 -20 -20 -20 -20 -20 -20 -20 -20 -20 -20 -20 7 1 -20 -20 -20 -20 -20 -6 16 27 20 29
-20 -20 -11 -7 -20 -20 -20 -20 -20 -20 -20 -20 -20 -20 -20 -20 -20 -20 -20 -20 -20 -20 -20 -20 -20 -20 -20 -20 -20 -20 2 -20 7 -20 -20 -20 -20 -20 -20 -17 2 -14 15 29
-20 -4 -20 -20 -20 -20 -20 -20 -20 -20 -20 -20 -20 -20 -20 -20 -20 -20 -20 -20 -20 -20 -20 -20 -20 -20 -20 -20 -20 -20 10 13 15 -13 -19 -13 -20 -20 -20 -6 -20 -6 0 16
-20 -20 -20 -20 -20 -20 -20 -20 -20 -20 -20 -20 -20 -20 -20 -20 -20 -20 -20 -20 -20 -20 -20 -20 -20 -20 -20 -20 4 7 4 -16 -20 -20 12 -20 -20 -20 -20 -20 -10 -2 18 19
-20 -20 -20 -20 -20 -20 -20 -20 -20 -20 -20 -20 -20 -20 -20 -20 -20 -20 -20 -20 -20 -20 -20 -20 -20 -20 -20 -20 8 8 -12 -20 -20 -11 -3 -5 -20 -20 -20 -20 -16 -12 -14 18
-20 -20 -20 -20 -20 -20 -20 -20 -20 -20 -20 -20 -20 -20 -20 -20 -20 -20 -20 -20 -20 -20 -20 -20 -20 -20 -20 -20 -18 -7 -20 -20 -20 1 -5 0 -20 -20 -20 -8 -9 -0 -16 -18
-20 -20 -20 -20 -20 -20 -20 -20 -20 -20 -20 -17 -20 -20 -20 -20 -20 -20 -20 -20 -20 -20 -20 -20 -20 -20 -20 -20 -20 -20 -20 -20 -20 -5 -20 -20 -17 -20 -20 -20 -20 -20 -20 -20
-20 -20 -20 -20 -20 -20 -20 -20 -20 -18 -7 6 -20 -20 -7 -20 -5 -19 -20 -20 -20 -20 -20 -20 -20 2 -4 -20 -20 -20 -20 -20 -20 -20 -20 -20 2 -20 -20 -20 -20 -20 -20 -20
-20 -20 -20 -20 -20 -20 -20 -20 -20 -20 -20 -18 -20 -20 -20 -20 -11 -15 2 13 -7 -20 -20 -20 8 10 -18 -20 -20 -20 -20 -5 -20 -20 -20 -18 10 -20 -20 -20 -20 -20 -20 -20
-20 -20 -20 -20 -20 -20 -20 -20 -20 -20 -20 2 -0 -12 -20 -20 22 26 27 12 13 -9 -16 8 13 -8 -2 -20 -20 17 9 3 -15 -20 -20 -2 -19 -20 -14 -20 -0 -20 -20 -20
-20 -20 -20 -12 -15 -20 -20 -20 -16 -11 18 14 8 -18 -20 -20 -14 -14 30 24 22 23 24 12 1 -19 -20 -20 -20 -13 -6 12 11 -20 -20 -20 -20 -20 -20 -20 -20 -20 -18 -18
-16 -20 -18 -20 -20 -20 -20 -11 -11 -11 -8 -5 7 -19 -20 -20 -1 3 37 29 24 27 7 23 10 11 4 3 -5 3 2 3 2 -17 21 11 -11 -1 -20 -20 -20 -20 -20 -8
-6 -6 -18 -20 -20 -20 -20 -20 -20 -20 -20 1 -20 -20 -20 -20 10 2 31 32 5 19 20 23 18 20 20 20 24 24 26 24 20 24 12 4 -11 -20 -20 -20 -20 -20 -20 -20
-20 -20 -20 -20 -20 -20 -20 -20 -20 -20 -20 -20 -20 -16 -3 5 4 5 30 37 34 -3 5 -11 -1 -7 10 10 18 19 29 0 14 20 13 5 16 21 16 -6 -5 2 4 6
-20 -20 -20 -20 -20 -20 -20 -20 -20 -20 -20 -20 -20 -20 -5 20 28 16 27 19 34 37 8 7 7 -10 -15 11 27 31 33 9 29 3 -12 9 13 3 -15 4 16 21 24 16
-20 -20 -20 -20 -20 -20 -20 -20 -20 -20 -20 -20 -20 -20 5 29 29 31 24 33 36 38 36 36 30 17 10 30 31 21 3 8 17 -18 -16 -14 -20 -20 -20 8 5 8 15 16
-20 -20 -20 -20 -20 -20 -20 -20 -20 -20 -20 -20 -20 -20 -20 22 28 15 31 29 37 36 34 32 36 25 19 15 17 17 5 9 -15 -15 5 -20 -20 -20 -20 -20 -20 -20 -20 -20
-20 -20 -20 -20 -20 -20 -20 -20 -20 -20 -20 -20 -20 -20 -20 -20 39 24 31 16 33 28 30 25 26 21 30 27 17 11 15 -13 -20 -20 -1 -16 -20 -20 -20 -20 -20 -20 -20 -20
-20 -20 -20 -20 -15 -20 -20 -20 -20 -20 -20 -20 -20 -20 -20 -20 2 32 17 21 29 4 21 20 11 21 15 20 22 17 2 -12 -20 -20 -20 -20 -20 -20 -20 -20 -20 -20 -20 -20
-20 -20 -20 -20 -19 -17 -20 -20 -20 -20 -20 -20 -20 -16 22 -17 -19 3 11 23 1 -20 -20 -20 -15 -13 -5 6 8 9 10 3 -3 -17 -20 -20 -19 -14 -20 -20 -20 -20 -20 -20
-20 -5 8 10 -20 -13 -20 -20 11 4 -20 -20 -20 -5 19 34 27 26 33 28 -16 -20 -20 -20 -20 -20 -20 -20 -6 5 1 7 6 -1 -7 -15 -20 -20 -20 -20 -20 -20 -20 -20
-20 -1 -11 -5 37 24 5 14 0 25 19 6 12 28 25 22 26 23 15 15 15 6 -14 -20 -20 -20 -20 -20 -20 -20 -7 -18 -11 -19 -20 -20 -20 -20 -20 -20 -20 -20 -20 -20
2 -3 -15 26 30 29 18 32 29 24 14 -14 -20 -20 -20 -20 -14 -15 -14 -20 -14 -12 -14 -19 -20 -20 -20 -20 -20 -20 -20 -20 -20 -20 -20 -20 -20 -20 -20 -18 -17 -17 -13 -17
1 12 -18 -3 -7 20 19 25 28 20 12 12 9 8 -18 -18 -20 -20 -20 -20 -20 -17 -13 -20 -20 -20 -20 -20 -20 -20 -20 -20 -20 -20 -20 -20 -20 -20 -20 -20 -19 -4 6 9

GFSCGP_prec_radar_093.txt.gz
Reflectivity
-14 1 -20 -20 -17 -0 -6 -20 -20 -20 -20 -20 -20 -20 -20 -20 -20 -20 -20 -20 -20 -20 -20 -20 -20 -20 -20 -20 -20 -20 -20 9 -20 -20 -17 4 -20 -14 -17 -7 2 -7 23 25
8 11 -20 -15 9 3 -18 -20 -20 -20 -20 -20 -20 -20 -20 -20 -20 -20 -20 -20 -20 -20 -20 -20 -20 -20 -20 -20 -20 -20 -20 -15 -20 -10 -13 -20 -20 -20 8 4 5 14 36 32
1 -18 -15 6 7 -11 -20 -20 -20 -20 -20 -20 -20 -20 -20 -20 -20 -20 -20 -20 -20 -20 -20 -20 -20 -20 -20 -20 -20 -20 -20 -20 -20 -20 -20 -10 1 -2 9 5 12 24 26 20
20 9 5 6 3 -13 -20 -20 -20 -20 -20 -20 -20 -20 -20 -20 -20 -20 -20 -20 -20 -20 -20 -20 -20 -20 -20 -20 -20 -20 -20 -20 -20 -20 -20 -20 -18 -12 4 -11 2 -17 -9 20
-12 13 15 11 -9 -5 -20 -20 -20 -20 -20 -20 -20 -20 -20 -20 -20 -20 -20 -20 -20 -20 -20 -20 -20 -20 -20 -20 -20 -20 -20 -20 -20 -20 -19 -20 -20 -20 -19 -7 -20 -7 -1 22
10 1 -13 2 9 -10 -20 -20 -20 -20 -20 -20 -20 -20 -20 -20 -20 -20 -20 -20 -20 -20 -20 -20 -20 -20 -20 -20 -20 -20 -20 -20 -20 -19 -13 -20 -20 -20 9 1 -20 -5 3 7
-20 -20 -20 -5 8 0 -20 -20 -20 -20 -20 -20 -20 -20 -20 -20 -20 -20 -20 -20 -20 -20 -20 -20 -20 -20 -20 -20 -20 -20 -20 -20 -20 -6 14 -20 -20 -20 -20 -20 -12 -20 -3 -4
8 -2 -2 -20 -18 -20 -19 -20 -20 -20 -20 -20 -20 -20 -20 -20 -20 -20 -20 -20 -20 -20 -20 -20 -20 -20 -20 -20 -20 -20 -20 -20 -20 -7 12 8 -8 -20 -20 -20 -20 -20 -6 11
-20 -20 -20 -20 -20 -20 -20 -20 -20 -20 -20 -20 -20 -20 -20 -20 -20 -20 -20 -20 -20 -20 -20 -20 -20 -20 -20 -20 -20 -20 -17 -20 2 1 3 8 1 -3 -20 -20 -20 -20 -18 -1
-20 -20 -20 -20 -20 -20 -20 -20 -20 -20 -20 -20 -20 -20 -20 -20 -20 -20 -20 -20 -20 -20 -20 -20 -20 -20 -20 -20 -20 -18 14 13 -10 -20 4 11 -6 -13 -20 -20 -20 -2 -11 -13
-20 -20 -20 -20 -20 -20 -20 -20 -20 -20 -20 -20 -20 -20 -11 -20 -20 -10 -20 -20 -2 -19 -11 -6 -20 -20 -20 -20 -20 9 11 12 -18 -20 5 -4 -20 -20 3 -20 -20 -20 -20 -19
-20 -20 -20 -20 -20 -20 -20 -20 -20 -20 -20 -20 8 -15 -20 -20 -20 5 -20 -14 -14 4 16 9 9 1 -20 -3 -16 8 15 -20 -20 -18 -20 -20 -20 -20 -9 1 -20 -20 -20 -20
4 -12 16 9 -18 -20 -20 -20 -20 -20 -20 -20 3 -20 -20 -20 -20 12 -18 -20 -20 13 19 17 -6 10 21 13 11 13 14 11 9 -20 -20 -20 -20 -20 -15 -13 -20 -20 -20 -20
-20 -20 -20 -20 -20 -20 -20 -20 -20 -20 -20 -20 -20 -20 -20 -20 -20 -2 -15 -11 18 26 27 25 25 11 17 20 21 18 22 18 13 -18 20 17 -14 -20 -20 -20 -20 -1 -9 -20
19 -13 -20 -20 -20 -20 -20 -20 -20 -20 -20 -17 -20 -20 -20 -20 -9 14 -3 -7 35 44 31 21 26 17 20 14 25 22 26 26 24 22 22 18 -18 -20 3 -20 -20 -20 4 4
9 10 3 -20 -20 -20 -20 -20 -20 -20 -20 -20 -20 -20 -20 -20 -11 25 1 -2 19 42 34 39 34 22 29 25 25 25 22 24 19 17 22 32 18 18 3 -9 -10 -20 -4 -6
-20 -20 -20 -20 -20 -20 -20 -20 -20 -20 -20 -20 -20 -20 -20 -20 -5 37 30 10 9 33 35 32 21 16 13 13 20 15 8 9 -17 17 34 14 28 25 19 14 9 8 6 3
-20 -20 -20 -20 -20 -20 -20 -20 -20 -20 -20 -20 -20 -20 -20 -20 -12 34 32 34 30 34 35 38 38 23 -5 -17 -16 -8 -12 4 14 34 30 25 29 29 23 15 6 11 7 17
-20 -20 -20 -20 -20 -20 -20 -20 -20 -20 -20 -20 -20 -20 -20 -20 -20 30 35 26 33 28 28 31 33 33 33 21 9 14 16 14 28 37 34 24 -4 -4 -2 -13 -19 -20 -20 -18
-20 -20 -20 -20 -20 -20 -20 -20 -20 -20 -20 -20 -20 -20 -20 2 -16 7 28 33 33 30 28 15 17 21 31 26 25 28 21 23 31 33 23 14 -7 -20 -20 -20 -20 -20 -20 -20
-20 -20 -20 -18 -20 -20 -20 -20 -20 -20 -20 2 -20 -20 3 15 -16 20 28 17 29 9 2 -20 -20 -15 10 26 24 19 21 26 34 16 3 -8 -20 -20 -20 -20 -20 -20 -20 -20
-20 -20 -20 -19 -13 -20 -20 -20 -17 -1 -4 10 -4 -20 -14 26 26 21 23 23 20 -3 -2 -1 -20 -20 -20 -7 15 10 9 11 9 9 3 -1 -18 -20 -20 -20 -20 -20 -20 -20
-0 9 7 -17 14 25 2 -1 12 -1 -2 16 20 21 5 6 20 23 23 28 26 17 -20 -14 -0 -19 -20 -20 -20 -3 -15 6 5 -5 -9 -1 6 8 -0 8 10 7 -20 -12
-16 -12 1 4 20 10 20 2 3 3 19 20 9 7 30 18 19 23 26 29 26 16 1 -10 -20 -20 -20 -20 -20 -20 -2 -9 -12 9 9 -6 -8 -8 -20 -20 -20 -17 -4 -4
-20 -20 -20 21 18 19 -20 5 15 -2 0 -8 -10 -20 -20 -20 -20 -20 -15 -1 -4 -5 -10 -20 -20 -20 -20 -20 -20 -20 -20 -20 -20 -20 -15 9 6 -20 -20 -6 -9 1 7 3
-10 -7 -12 -2 0 3 -3 -3 7 12 4 2 -7 -19 -19 -17 -16 -20 -20 -20 -20 -20 -20 -20 -20 -20 -20 -20 -20 -20 -20 -20 -20 -20 -20 -20 -20 -20 -20 -20 -20 -20 -13 -3

GFSCGP_prec_radar_096.txt.gz
Reflectivity
-20 -20 -20 -20 4 -8 8 -4 -7 -13 -20 -20 -20 -20 -20 -20 -20 -20 -20 -20 -20 -20 -20 -20 -20 -20 -20 -20 -20 -20 -20 -20 -20 -20 -20 -20 -20 -4 -5 14 -2 21 1 12
-20 -20 -20 -20 8 20 23 19 -3 -15 -20 -20 -20 -20 -20 -20 -20 -20 -20 -20 -20 -20 -20 -20 -20 -20 -20 -20 -20 -20 -20 -12 -20 -20 -20 -20 -20 2 8 13 -7 25 -11 3
-20 -20 -3 9 -8 13 4 -20 -15 4 -16 -20 -20 -20 -20 -20 -20 -20 -20 -20 -20 -20 -20 -20 -20 -20 -20 -20 -20 -20 -20 -20 -20 -20 -20 -20 -20 -9 9 12 -4 -16 -13 22
-20 -20 6 14 6 -9 -20 -20 1 10 6 -20 -20 -20 -20 -20 -20 -20 -20 -20 -20 -20 -20 -20 -20 -20 -20 -20 -20 -20 -20 -20 -20 -20 -20 -20 -20 -6 1 -20 -4 0 2 12
-20 -20 -12 4 -9 -10 -19 8 -1 -20 -20 -20 -20 -20 -20 -20 -20 -20 -20 -20 -20 -20 -20 -20 -20 -20 -20 -20 -20 -20 -20 11 -20 -20 -20 -20 -20 -20 -0 -13 12 13 0 -10
-2 -10 12 -11 17 1 3 4 -17 -20 -20 -20 -20 -20 -20 -20 -20 -20 -20 -20 -20 -20 -20 -20 -20 -20 -20 -20 -20 -20 -20 1 -6 -20 -20 -20 -20 -20 3 -5 12 -11 -20 -1
-20 -13 -3 -15 12 -8 -19 -20 -13 5 -10 -20 -20 -20 -20 -20 -20 -20 -20 -20 -20 -20 -20 -20 -20 -20 -20 -20 -20 -20 -15 -6 -20 -20 -20 -20 -20 -20 3 -1 9 7 -15 -10
-17 -20 -15 -14 -14 2 -0 -13 -16 -20 -20 -20 -20 -20 -20 -20 -20 -20 -20 -20 -20 -20 -20 -20 -20 -20 -20 -20 -20 -20 13 -11 -20 -20 -20 -20 -20 -20 3 -15 5 3 -12 -18
-20 5 8 -4 -3 2 -17 -19 -20 -20 -20 -20 -20 -20 -20 -20 -20 -20 -20 -20 -20 -20 -20 -20 -20 -20 -20 -20 -20 -20 -16 -17 13 -20 -20 -20 -20 -20 -9 -2 -17 9 2 -16
-20 -4 -20 -10 -14 -20 -20 -20 -10 -14 -13 -20 -20 -20 -5 -20 -16 -20 -20 -20 -20 -20 -20 -20 -20 -20 -20 -20 -20 -20 -20 -20 1 -9 -14 -20 -20 -20 -12 4 2 -20 13 -2
-20 -20 -20 -20 -16 -3 -20 -20 -20 -20 -20 -20 -20 -20 -8 -3 -20 -20 -20 -5 -20 -20 -20 -20 -8 -20 -20 -20 -4 8 6 -6 -20 -20 -16 -16 -20 -20 -9 3 3 -20 -20 -20
-15 -2 -20 1 -20 -20 -20 -20 -20 -20 -19 -18 -20 -20 -20 -20 -20 -20 -6 5 -20 -20 -20 -18 15 8 -13 -19 -2 6 6 1 -17 -19 10 -9 -20 -5 0 -6 8 -6 -20 -20
-11 22 7 25 -13 -20 4 -20 -20 -20 -20 -17 -11 8 -20 -20 -20 7 -20 12 -20 -20 -20 -19 20 9 8 16 10 9 -1 8 19 -6 8 19 -10 7 1 10 13 8 12 3
-6 -20 -4 8 -8 -20 -8 -20 -20 -20 -20 -20 -20 -20 -20 -20 3 8 -20 9 -20 -20 -20 5 5 23 23 26 14 3 19 9 20 6 20 22 -19 2 2 9 11 -19 -20 6
-15 -11 11 -11 -20 -20 -20 -20 -20 -20 -20 -20 -20 -20 -20 11 -1 -4 5 12 -7 -10 -6 28 20 27 25 19 16 5 12 22 25 1 4 19 2 10 0 14 12 8 1 -6
19 -15 -0 -20 -20 -20 -20 -20 -20 -20 -20 -20 -20 -20 8 -20 -20 5 15 11 9 22 35 35 33 30 23 29 24 12 17 16 24 21 8 24 20 15 -16 -20 -7 10 -20 -20
12 6 -16 -20 -20 -20 -20 -20 -20 -20 -20 -20 -20 -20 -20 -20 -20 1 2 28 25 29 28 40 38 43 32 29 0 5 19 18 23 28 25 17 11 7 7 16 18 13 12 9
-7 -18 -20 -20 -20 -20 -20 -20 -20 -20 -20 -20 -20 8 -8 -18 -2 -1 13 21 25 21 27 35 39 36 30 28 30 36 31 26 32 34 30 24 11 9 28 31 21 21 12 17
-20 -20 -20 -20 -20 -20 -20 -20 -20 -20 -20 -20 -12 -10 -20 -7 12 -2 19 23 24 34 27 6 27 40 41 41 29 25 26 26 23 27 25 22 10 27 30 37 14 8 22 20
-20 -20 -20 -20 -20 -20 6 -20 -20 -20 -20 -20 -20 -20 -19 13 21 1 -10 8 18 25 4 -14 -20 5 30 39 33 22 17 29 28 14 -6 24 16 34 37 32 36 32 26 26
-15 -20 -15 -20 -20 -20 -1 -20 -20 -11 9 -20 -20 -15 11 10 15 1 -4 -2 24 6 9 -1 -14 -15 7 18 27 31 30 34 20 19 20 18 16 20 22 25 17 8 -5 -20
8 9 6 -7 -16 -7 -13 -20 -16 7 1 -18 -1 5 6 -11 9 22 25 22 19 11 -1 2 -20 -20 -15 -11 12 16 17 21 24 32 26 16 8 24 28 21 9 4 -20 -20
17 1 11 2 -0 13 4 3 5 3 -4 12 16 6 7 -4 -17 -4 -9 12 20 13 -17 -18 -6 -2 -20 -18 -2 5 -2 14 11 12 16 23 12 18 27 21 17 17 1 -20
1 -20 15 15 2 -11 7 4 3 2 -7 17 16 4 0 -17 -13 -20 -7 -20 -18 -20 -20 -20 -20 -20 -20 -20 -20 -20 -20 -4 6 1 8 -9 11 9 14 13 12 -0 -10 -2
-16 -8 -12 6 10 -9 -10 -1 2 -3 -7 -18 -18 -19 -15 -20 -20 -20 -20 -20 -20 -20 -20 -20 -20 -20 -20 -20 -20 -20 -20 -20 -20 -8 2 2 -14 -4 3 4 1 -0 5 -1
-6 -2 5 -2 -10 -10 -1 0 -1 -17 -20 -20 -20 -20 -20 -20 -20 -20 -20 -20 -20 -20 -20 -20 -20 -20 -20 -20 -20 -20 -20 -20 -20 -20 -20 -6 -4 -8 -19 -19 -6 -10 -13 -3

GFSCGP_prec_radar_099.txt.gz
Reflectivity
-20 -20 -20 -20 -20 -20 -20 14 21 19 19 5 -20 -20 -20 -20 -20 -20 -20 -20 -20 -20 -20 -20 -20 -20 -20 -20 -20 -20 -20 -20 -20 6 -20 -20 -2 -17 3 -20 -1 3 13 13
-20 -20 -20 -20 -20 -20 10 34 13 -5 11 15 -20 -20 -20 -20 -20 -20 -20 -20 -20 -20 -20 -20 -20 -20 -20 -20 -20 -20 -20 -20 -20 -20 -9 -20 -10 -6 -0 -15 -1 -7 17 16
-20 -20 -20 -20 -20 -13 8 -7 4 5 -13 12 -8 -20 -20 -20 -20 -20 -20 -20 -20 -20 -20 -20 -20 -20 -20 -20 -20 -20 -20 -20 -20 -4 -20 -20 -20 -20 2 -0 6 5 18 14
-19 -20 -20 -20 -20 -20 -20 -20 7 20 18 17 8 -20 -18 8 4 -20 -20 -20 -20 -20 -20 -20 -20 -20 -20 -20 -20 -20 -20 -20 -20 -20 -20 -20 -20 -16 -20 -17 -16 -2 4 -20
10 -20 -1 -20 -20 -18 -20 12 18 13 -0 4 7 -3 -20 5 -17 -20 -20 -20 -20 -20 -20 -20 -20 -20 -20 -20 -20 -20 -20 -20 -20 -20 -20 -20 -20 -20 -20 -20 -20 -16 -19 -19
11 -13 -18 -20 -20 -18 9 13 5 -7 -4 -16 -20 -20 -16 13 6 -17 -20 -20 -20 -20 -20 -20 -20 -20 -20 -20 -20 -20 -20 -20 -20 -20 -20 -20 -20 -20 -20 -20 -17 5 -4 -15
-2 1 -20 -20 -8 -20 5 -15 -2 -2 1 -20 0 -10 2 18 -1 1 -5 -20 -20 -20 -20 -20 -20 -20 -20 -20 -20 -20 -20 -20 -17 -20 -20 -20 -20 -20 -20 -20 -20 2 -20 -8
19 26 -20 -20 -10 -15 -20 -20 4 9 13 -13 -8 -10 9 5 -20 -20 -20 -20 -20 -20 -20 -20 -20 -20 -20 -20 -20 -20 -20 -20 -18 -18 -20 -20 -20 -20 -20 -20 -20 -0 -20 -18
17 -8 -17 10 8 7 -7 6 19 10 15 18 -4 10 9 -20 -17 -20 -20 -20 -20 -20 -20 -20 -20 -20 -20 -20 -20 -20 -20 -20 -16 3 -0 -20 -20 -20 -20 -20 -20 -19 5 -14
12 -17 -12 7 9 4 11 -1 20 9 7 -4 11 13 23 14 -14 -20 -20 -20 -20 -20 -20 -20 -20 -20 -20 -20 -20 -20 -20 -15 3 10 -9 -20 -20 -20 -20 -20 -20 -5 14 -7
-8 -1 -10 -14 5 2 -5 7 10 -15 -20 22 21 17 -14 -12 -20 -20 -20 -20 -20 -20 -20 -20 -20 -7 -20 -20 -20 -9 -20 -5 8 13 11 -14 -20 -20 -20 -19 -0 -8 -13 8
-20 9 6 -7 8 25 -16 -2 -8 18 4 9 -17 25 11 -20 -20 -19 -19 -20 -20 -20 -20 -20 -20 2 -19 0 27 -19 -20 5 15 11 10 11 -19 -20 -20 -12 -1 -16 5 14
2 -9 -6 19 -12 27 21 26 10 -6 16 -19 8 27 16 -20 -20 -20 -20 -20 -20 -20 -20 -20 -20 -9 -1 12 5 19 15 8 8 8 15 9 -15 11 -5 4 1 -19 4 1
0 -2 -13 11 5 -6 -20 -20 -20 -20 -19 14 -20 21 13 -5 -3 -4 -8 -6 -13 -1 -0 -20 -20 14 23 14 19 24 23 14 18 21 10 3 2 16 -7 5 9 -2 -4 -2
3 27 18 17 -19 -20 -11 24 26 24 -20 -13 4 -20 16 -15 2 0 -4 -7 -7 -14 -20 -20 -6 14 24 12 21 25 27 25 20 24 23 4 9 16 12 -20 13 -14 0 13
-13 -6 16 8 7 -19 -20 -20 -20 -20 -20 -20 -20 13 22 -20 -1 1 -18 -1 2 -1 -17 1 3 26 28 26 28 30 25 23 28 23 19 21 22 22 -7 -14 -0 -16 1 -20
24 12 11 -18 9 -12 -20 -20 -20 -20 -20 -20 -2 16 22 -20 -3 2 10 -1 -10 -3 -1 3 26 36 38 34 32 31 24 26 28 25 19 19 18 21 12 4 20 10 2 -0
-8 -11 9 -20 -20 -12 -19 -20 -20 -15 -20 -20 -20 -17 -9 -20 9 10 1 -4 2 -0 -15 -1 13 28 38 31 34 32 34 36 32 19 22 24 24 22 20 10 8 14 9 -1
-4 12 -20 -20 -20 -20 -20 -1 -20 -5 9 -20 -20 -4 -1 -18 2 0 -2 6 0 -3 -20 -7 -0 22 36 39 35 32 34 25 10 36 38 33 32 29 32 26 26 18 21 24
-19 -7 -20 -20 -20 -1 15 -20 -20 -20 16 -20 -20 -20 -5 8 14 12 11 1 20 10 -20 -20 -11 -6 8 27 36 35 29 24 22 32 37 36 35 44 44 41 39 29 33 40
-20 -20 1 -20 -15 7 -7 -20 -20 -1 10 1 -20 -20 -20 -3 4 11 16 22 29 12 -20 -20 -20 -20 -17 4 26 32 32 26 32 37 35 33 40 37 29 33 25 36 33 34
15 9 7 12 0 8 -13 -20 -16 3 6 3 1 -4 -10 -2 -4 -3 -1 6 22 29 -20 -20 -20 -20 -20 -19 -12 17 26 27 30 32 33 26 18 31 29 22 22 14 22 31
18 9 13 6 5 5 0 2 2 3 -1 15 4 3 -3 -1 -3 -3 -6 -15 -16 -5 -20 -20 -20 -20 -20 -20 -20 1 11 25 17 23 17 25 20 22 12 15 -3 16 25 21
0 -10 12 3 7 1 -4 -1 -3 3 1 8 -3 -7 -20 -6 -8 -20 -20 -20 -20 -20 -20 -20 -20 -20 -20 -20 -20 -20 -20 -16 9 16 14 13 18 21 18 12 15 15 15 14
-19 -12 -5 2 4 -11 -13 -11 -18 -20 -20 -20 -20 -20 -20 -20 -20 -20 -20 -20 -20 -20 -20 -20 -20 -20 -20 -20 -20 -20 -20 -20 -20 -16 5 5 6 13 17 14 14 10 7 11
-20 -1 8 6 2 1 -1 1 -10 -20 -20 -20 -20 -20 -20 -20 -20 -20 -20 -20 -20 -20 -20 -20 -20 -20 -20 -20 -15 -8 -20 -19 -20 -20 -17 -5 -14 -14 -11 11 1 1 11 -1

GFSCGP_prec_radar_102.txt.gz
Reflectivity
-20 11 -20 -20 -20 -20 -20 -20 -20 -20 -20 11 21 6 -20 -20 -20 -20 -20 -20 -20 -20 -20 -20 -20 -20 -20 -20 -20 -20 -20 -20 -20 -20 -20 -20 -20 -20 -20 -20 -20 -20 -20 -20
-20 -4 12 -20 -20 -20 -20 -20 3 15 -20 -16 6 -6 -4 19 -20 -15 -20 -20 -20 -20 -20 -20 -20 -20 -20 -20 -20 -20 -20 -20 -20 -20 -20 -14 -4 -20 -20 -20 -20 -20 -20 -16
-20 -20 -8 -20 -20 -20 -20 -19 -16 -20 18 33 28 29 -8 -19 9 -10 -20 -20 -20 -20 -20 -20 -20 -20 -20 -20 -20 -20 -20 -20 -20 -20 -20 -9 -19 -8 -2 0 -20 -20 -20 -17
-20 -16 -1 5 -20 -20 -20 -20 -20 -20 5 36 0 15 -20 0 -17 -20 1 -2 -20 -20 -20 -20 -20 -20 -20 -20 -20 -20 -20 -20 -20 -20 -20 -20 -20 -0 -10 -20 -20 -20 -20 -20
-20 -20 -20 15 -20 -20 -20 10 10 -20 -15 17 16 20 -10 -18 -1 5 7 13 -20 -20 -20 -20 -20 -20 -20 -20 -20 -20 -20 -20 -20 -20 -20 -20 -20 -20 -20 -20 -20 -20 -20 -20
-20 15 28 9 -8 -18 6 16 5 -19 -20 14 -6 10 -20 7 8 18 27 15 -20 -20 -20 -20 -20 -20 -20 -20 -20 -20 -20 -20 -20 -20 -20 -20 -20 -20 -20 -20 -20 -20 -20 -16
-2 7 -19 4 -2 16 -12 -7 7 -11 18 -17 -20 6 -12 13 11 26 -14 -1 -20 -20 -17 -20 -20 -20 -20 -20 -20 -20 -20 -20 -20 -20 -20 -20 -20 -20 -20 -20 -20 -20 -16 -20
-18 27 11 -20 -20 -19 -20 -20 -8 -20 -20 -20 7 18 13 15 22 -15 16 1 -20 -2 -19 -20 2 -19 -20 -20 -20 -20 -20 -20 -20 -20 -20 -20 -20 -20 -20 -20 -20 -20 -20 10
33 32 -14 -20 -20 -20 -20 -20 -17 24 24 31 19 13 -2 12 29 24 -20 -20 -20 -20 -20 -4 12 -20 -20 -20 -20 -20 -20 -17 -20 -20 -20 -20 9 2 -20 -20 -20 -20 -20 17
21 28 -20 -20 -20 -20 -15 12 10 23 23 25 -1 19 18 28 27 -8 -20 -20 -20 -20 -20 -20 -20 -20 -20 -20 -20 -20 -20 -12 -20 -20 -20 -20 12 18 -20 -20 -20 -20 -20 6
19 29 -20 -18 -1 -6 1 30 10 24 22 18 13 21 34 25 28 12 -20 -20 -18 -20 -20 -20 -20 -20 -11 11 -20 -20 9 -18 -20 -20 -20 -20 20 12 -20 -20 -20 -20 -20 -20
11 5 -20 4 17 15 7 9 -0 20 0 13 15 32 38 30 8 3 -20 -20 -20 -20 -20 -20 -20 -20 11 -5 -18 4 -3 3 -20 -20 -11 -8 19 18 -20 -3 -20 -15 0 -20
-20 -6 14 6 3 -2 7 12 16 4 -19 12 13 38 27 4 8 -10 -20 -20 -20 -20 -20 -20 -20 -20 2 15 6 -16 7 17 23 -9 13 13 19 15 2 -1 -12 -2 0 -18
4 4 15 22 12 17 -13 20 -15 15 17 19 19 10 27 -15 -14 -20 -20 -19 -15 -20 -20 -20 -20 -9 -4 8 7 13 22 21 25 26 10 16 21 11 9 9 5 11 11 10
3 40 20 4 2 13 37 35 30 10 2 30 12 16 -2 -5 -20 1 -2 -0 -20 -18 -20 -20 -20 -20 4 13 23 16 9 19 22 23 20 19 21 26 19 16 13 12 14 7
23 34 35 40 21 37 10 3 10 15 16 14 25 33 8 -4 -10 -20 -20 -6 -4 -8 -8 -10 -19 -17 -20 9 24 26 19 19 20 25 22 26 25 24 20 21 16 -18 -20 -6
22 8 15 -0 4 -17 -16 8 13 -18 -20 -20 8 25 26 -2 -6 -13 -1 -12 -2 -17 -13 -13 -10 -15 -7 9 34 28 32 30 29 21 23 22 17 28 5 18 5 27 12 14
12 13 -4 -10 -17 -2 19 17 27 -20 -20 -20 -20 -1 -20 -20 10 10 4 1 -2 -16 -20 -20 -20 -13 7 19 29 38 32 32 33 30 28 27 27 28 23 15 21 22 1 8
1 9 -2 0 4 8 -20 -20 1 25 1 -16 -20 -20 -20 -8 13 19 21 9 11 -6 -20 -20 -20 -20 -19 10 32 39 36 38 34 25 27 32 30 28 24 19 16 25 21 9
-20 -11 -2 -19 10 13 -7 -20 -20 -16 3 5 -20 -20 -20 -11 9 -9 8 24 21 -17 -20 -20 -20 -20 -20 -11 2 33 27 27 27 28 26 28 31 31 28 30 33 32 32 43
-20 -20 -20 -1 7 2 -20 -20 -20 -20 12 7 -4 -19 -20 -20 -2 4 -2 -12 -1 -4 -20 -20 -20 -20 -20 -20 -20 -8 31 24 30 33 37 35 27 27 33 37 36 35 36 39
-20 4 -11 -19 -6 -2 -20 -20 -17 3 10 7 14 10 11 8 7 -3 -7 -20 -11 -12 -20 -20 -20 -20 -20 -20 -20 -20 -13 11 24 26 25 19 25 28 31 35 39 36 35 39
3 4 0 -16 -2 7 -1 4 9 10 -0 18 8 -2 -14 -20 -20 -19 -20 -20 -20 -20 -20 -20 -20 -20 -20 -20 -20 -20 -20 -8 4 6 13 17 18 16 22 32 27 28 27 23
12 -10 -9 -13 2 -20 -20 -2 -8 5 3 -13 -20 -20 -20 -20 -20 -20 -20 -20 -20 -20 -20 -20 -20 -20 -20 -20 -20 -20 -18 -20 -12 -20 -19 -1 10 15 15 17 19 23 26 25
-13 -4 5 -4 -11 -20 -19 -10 -11 -20 -20 -20 -20 -20 -20 -20 -20 -20 -20 -20 -20 -20 -20 -20 -20 -20 -20 -20 -13 -20 -20 -20 -20 -20 -20 -20 -8 -2 7 11 12 14 16 18
-20 -17 -20 -10 -2 -19 -15 -20 -20 -20 -20 -20 -20 -20 -20 -20 -20 -20 -20 -20 -20 -20 -20 -20 -20 -20 -20 -7 -11 -15 -19 -20 -20 -20 -20 -20 -14 -14 -5 1 3 6 10 11

GFSCGP_prec_radar_105.txt.gz
Reflectivity
-20 -20 -20 -12 -20 -20 -20 -20 -20 -20 -20 -20 -20 -20 -20 -20 -20 -20 -20 -20 -20 -20 -20 -20 -20 -20 -20 -20 -20 -20 -20 -20 -20 -20 -20 -20 -20 -20 -20 -20 -20 -20 -20 -20
12 -15 -20 -20 -5 4 -20 -20 -18 -20 -20 -4 -14 -13 -20 -20 -20 -20 -20 -20 -20 -20 -20 -20 -20 -20 -20 -20 -20 -20 -20 -20 -20 -20 -20 -20 -20 -20 -20 -20 -20 -20 -20 -20
-4 -3 -18 -20 -20 6 -13 -20 -20 -20 24 18 -19 -20 -20 -20 -20 -20 -20 -20 -11 -2 -15 -20 -20 -20 -20 -20 -20 -20 -20 -20 -20 -20 -20 -20 -20 -20 2 -20 -20 -20 -20 -20
-2 -20 -20 -20 10 28 -20 -20 -20 -20 17 15 20 -11 -20 -20 -20 -20 -20 -20 -2 17 19 -20 -20 -20 -20 -20 -20 -20 -20 -20 -20 -20 -20 -20 -20 -20 -20 -20 -20 -20 -20 -20
7 -19 -20 -20 -7 2 -16 -20 -20 -19 25 24 26 21 -20 25 18 -8 -5 15 17 23 21 -20 -20 -20 -20 -20 -20 -20 -20 -19 -8 -20 -18 -20 -20 -20 -20 -20 -20 -5 -20 -20
-20 -20 -20 -20 7 -3 -15 -18 -17 27 25 0 -20 -4 16 15 22 15 21 32 20 14 -3 -20 -20 -20 -20 -20 -20 -20 -20 -20 -20 -3 -18 -20 -20 -20 -20 -20 -20 -20 -20 -20
-20 -20 -20 -8 10 -20 15 -0 21 16 32 -9 -20 -20 7 25 26 25 28 11 -15 2 -20 -20 -20 -20 -20 -20 -20 -20 -20 -20 -20 -20 -20 -20 -20 -20 -20 -20 -20 -20 -20 -20
-20 -20 -19 -2 4 -6 -8 -20 1 4 -19 -20 -20 -20 6 14 30 9 9 -12 -4 -19 -20 -20 -20 -20 -20 -20 -20 -20 -20 -20 -20 -20 -20 -20 -20 -20 -20 -20 -20 -20 -20 -20
1 19 -13 -15 23 17 -20 -20 -20 -20 -14 1 -20 -20 -14 4 11 13 21 -8 -20 -20 -20 -20 -20 -20 -20 -20 -20 -2 -19 -20 -20 -20 -20 -4 -20 -20 -20 -20 -20 -20 -20 -20
15 21 -16 -4 -17 3 -20 -20 -20 -20 6 13 -13 -13 22 9 24 40 -2 -5 -16 -20 -20 -20 -20 -20 -20 -20 -11 -9 -10 -20 -20 -20 9 11 25 26 26 -17 -20 -20 -20 -20
23 31 24 2 -19 -20 -20 -20 -20 9 16 25 23 30 26 34 41 40 15 -10 -19 -20 -20 -20 -20 -20 -20 -7 0 17 9 -20 -20 -20 26 22 22 20 28 -15 -20 -20 -20 -20
23 4 8 -10 14 7 16 -20 5 -11 29 34 22 33 43 42 21 16 8 -19 -20 -20 -20 -20 -20 -20 -20 -16 6 13 15 7 -7 -9 20 23 27 22 23 -20 -11 -19 -20 -20
-13 6 -16 4 -13 35 -8 -15 14 12 29 17 25 29 30 27 19 -6 -6 -20 -20 -20 -20 -20 -20 -20 -19 1 5 20 14 -10 7 23 -14 -5 -20 21 13 -15 15 -20 -20 -20
-20 4 5 19 18 10 20 16 18 34 16 20 38 31 25 15 10 13 -14 -20 -14 -20 -20 -20 -20 -20 -8 3 3 9 25 18 2 32 13 5 21 3 28 14 20 -20 9 9
-20 -18 14 13 22 18 -9 27 31 15 23 32 38 23 -1 13 -1 -0 -6 -4 -10 -11 -17 -17 -19 -19 -20 2 2 12 23 24 10 26 17 10 15 30 30 18 8 1 12 19
-15 25 37 27 34 29 37 36 30 10 30 32 25 25 6 7 -16 -20 -12 -13 -19 -1 -15 -17 -17 -20 -20 -18 -10 11 28 10 8 29 19 25 23 28 23 25 -4 7 20 19
10 29 5 25 29 10 29 10 4 -5 16 -20 -12 20 -8 -20 -20 -14 -20 -19 -16 -20 -20 -20 -20 -17 -6 -6 -8 1 16 33 13 12 18 28 28 28 25 16 21 -3 20 2
1 -7 20 0 13 20 30 18 18 -13 -16 -19 -1 -17 -13 -18 -8 -2 2 0 -1 2 -20 -20 -20 -20 -15 -20 -20 -17 2 30 28 26 16 28 33 30 23 19 31 21 20 11
-5 -20 11 15 0 -6 -3 -6 -16 -3 4 3 -4 0 13 -13 -18 -20 -5 -1 -1 -20 -20 -20 -20 -20 -18 -20 -20 -20 -18 15 32 33 38 32 32 35 28 16 34 30 25 33
-15 12 4 -20 -5 10 -18 -20 -20 -20 -20 9 -12 -20 -6 -10 -20 -20 -1 -19 -12 -11 -20 -20 -20 -20 -20 -20 -20 -10 -20 -17 16 22 22 36 33 35 33 37 36 30 14 10
-20 -20 -20 -20 -17 -20 -20 -20 -20 -8 -4 15 -9 -18 -20 -20 -13 -6 -11 -10 12 -17 -20 -20 -20 -20 -20 -20 -20 -20 -15 -20 9 17 24 27 28 34 34 36 36 29 31 26
-20 -14 -20 -20 -20 -20 -20 -20 -19 11 20 14 3 -1 -20 -14 -17 -20 -20 -20 -20 -20 -20 -20 -20 -20 -20 -20 -20 -20 -18 -11 -20 -4 11 17 22 21 19 23 29 29 24 17
-13 -19 -20 -6 -12 -3 0 7 5 3 2 24 6 -18 -20 -20 -20 -20 -20 -20 -20 -20 -20 -20 -20 -20 -20 -20 -20 -18 -18 -20 -20 -20 -5 9 11 17 19 20 20 29 24 23
-12 -8 -20 -10 6 -17 2 2 -1 11 -11 -20 -20 -6 -20 -20 -20 -20 -20 -20 -20 -20 -20 -20 -20 -20 -20 -20 -20 -15 -12 -16 -20 -20 -20 -6 -4 2 -2 7 13 15 14 22
-20 -17 -20 0 -15 -20 -20 -7 -5 -20 -20 -20 -20 -20 -20 -20 -20 -20 -20 -20 -20 -20 -20 -20 -20 -20 -12 -20 -20 -20 -20 -20 -18 -19 -11 -20 -20 -6 -12 -20 -16 -9 3 5
-20 1 -18 -20 -0 -20 -18 -11 -20 -20 -20 -20 -20 -20 -20 -20 -20 -20 -20 -20 -20 -20 -20 -20 -20 -20 -20 -20 -20 -18 -20 -20 -20 -20 -20 -19 -19 -20 -20 -20 -20 -2 -13 -5

GFSCGP_prec_radar_108.txt.gz
Reflectivity
-20 -20 -20 -20 -20 8 9 -20 -20 -20 -20 -20 -20 -20 -20 -20 -20 -20 -20 -20 -14 -20 -20 -20 -20 -20 -20 -20 -20 -20 -20 -20 -20 -20 -20 -20 -20 -20 -20 -20 -20 -20 -20 -16
-20 -20 -20 -15 8 -15 -20 10 7 -20 -20 -20 -20 -20 -20 -20 -20 -20 -20 -20 -20 -20 -19 11 9 -1 -20 -20 -20 -20 -20 -20 -20 -20 -20 -20 -20 -20 -20 -20 -20 -20 -20 -20
-20 -20 -20 -14 -20 0 -20 -20 -12 -20 -20 -20 2 -20 -20 -20 -20 -20 -20 -20 -20 -20 -6 15 7 -19 -20 -20 -20 -20 -20 -20 -20 -20 -20 -20 -20 -20 -20 -20 -20 -20 -20 -20
-20 -20 -14 -0 -20 2 -20 -20 -3 -16 -20 -19 -1 -19 -20 -20 -20 -20 -20 -20 -20 -20 12 -8 -14 -20 -20 -20 -20 -20 -20 -20 -20 -17 -9 -20 -20 -20 -20 -20 -20 -20 -18 -20
-20 -20 -20 -19 -20 -20 9 14 -4 6 -20 -18 2 -18 -20 -20 -20 -20 -18 -14 12 -5 -20 -6 -20 -20 -20 -20 -20 -20 -9 10 -8 -18 22 28 -19 -20 -20 -20 -20 -20 -20 -20
-20 -20 -20 -20 -20 -20 -20 -20 -6 7 -20 -15 -20 -20 -20 -6 -18 -20 -20 -0 17 -7 -12 -20 -20 -20 -20 -20 -20 -20 -20 -6 -13 6 -8 3 -1 -19 -20 -20 -20 -20 -20 -20
-20 -20 -20 -20 -17 -20 -20 -17 9 -11 -6 -20 -20 19 -20 11 -6 -14 -20 12 -20 -20 -20 -20 -20 -20 -20 -20 -20 -20 -20 -20 -20 -20 -10 -10 15 -15 -20 -20 -20 -20 -20 -20
-20 -20 -20 -10 -19 -20 15 -20 -8 26 19 -7 15 -13 22 20 37 27 10 0 -20 -16 -20 -20 -20 -20 -20 -15 -11 -20 -20 -20 -20 -20 -20 -16 -9 29 -19 -20 -20 -20 -20 -20
9 7 -20 -20 -20 -20 -20 -20 -18 9 13 -19 -20 15 9 -6 18 37 41 24 21 28 5 -20 -20 -19 -20 -20 -20 -20 -20 -20 -20 -20 -20 -12 14 25 -18 -20 -20 -20 -20 -20
34 12 -20 -18 6 -3 -20 7 9 11 9 12 7 15 33 40 6 26 32 20 18 25 27 15 -10 -10 -20 -20 -20 -20 -20 -20 -20 -20 -20 -20 -8 -8 27 -18 -12 -20 -20 -20
10 27 -14 -19 -18 -20 -3 -17 13 6 13 12 27 6 33 36 29 35 41 29 14 3 0 -19 -8 -12 -20 -20 -20 -20 -20 -6 3 12 6 -15 3 21 23 6 24 -10 -19 -20
-11 36 -12 -2 -20 -3 22 -20 -8 -1 11 16 21 23 39 39 33 20 35 33 24 -7 -20 -20 -20 -20 -20 -20 -20 -20 -16 12 12 18 7 5 21 22 24 22 21 10 -5 -11
-15 0 -14 10 16 11 8 -13 1 6 23 28 25 25 38 33 15 25 29 20 14 -10 -20 -20 -20 -20 -20 -20 -20 -18 17 13 17 -10 -1 15 -12 6 21 22 22 20 15 -12
-20 -5 -6 5 -3 2 31 24 17 21 30 22 21 22 26 24 24 17 4 7 -18 -20 -20 -20 -20 -20 -20 -20 -6 -12 14 20 15 6 12 6 7 7 17 -2 20 -10 2 -20
-16 -20 -1 29 21 26 21 35 34 33 42 18 27 11 9 9 9 8 12 -0 -20 -20 -20 -19 -20 -20 -20 -20 -20 -11 -4 3 23 -15 -10 13 7 4 -1 31 17 27 -19 16
13 27 29 21 32 15 25 30 24 34 34 35 16 11 21 9 -2 -18 -1 -20 -20 -20 -20 -20 -20 -20 -16 -20 -20 -20 -20 -20 1 6 -5 21 34 4 19 5 22 14 18 12
-10 29 19 12 23 23 16 27 20 22 25 22 2 11 25 10 -15 -5 -0 2 -14 -20 -20 -20 -20 -15 -16 -12 -12 -10 -18 -20 -20 13 -2 -7 26 27 20 25 42 30 43 23
-20 -20 9 -11 -19 -6 20 28 7 3 -1 -15 2 6 8 9 -9 -4 -2 3 3 -20 -20 -20 -20 -20 -20 -17 -20 -20 -20 -20 -20 -18 2 14 -7 12 24 26 35 43 26 21
-13 -19 -1 19 -16 1 8 11 8 4 3 0 -4 4 4 6 -6 -20 -5 -3 5 -20 -20 -20 -20 -20 -20 -20 -15 -20 -20 -20 -20 -20 -11 13 10 30 31 21 34 31 33 32
-10 19 25 9 6 -11 -20 -20 -20 -20 -4 3 -9 -8 -18 -1 -20 -19 -19 -11 -20 -20 -20 -20 -20 -20 -20 -20 -20 -18 -20 -20 -20 -20 -18 1 20 15 30 31 36 36 31 32
-14 -12 -5 -3 4 -20 -19 -20 -20 -20 3 13 -4 -14 -19 -20 -20 -18 -20 -20 -20 -20 -20 -20 -20 -20 -20 -20 -20 -20 -20 -20 -20 -20 -20 -20 -6 19 27 31 25 30 24 35
-20 -20 -20 -20 -20 -20 -20 -20 -20 0 19 10 1 -20 -20 -20 -20 -20 -20 -20 -20 -20 -20 -20 -20 -20 -20 -20 -20 -20 -20 -20 -20 -20 -20 -20 -10 4 17 22 25 25 26 34
-20 -20 -20 -2 -4 0 4 6 19 19 2 17 -13 -20 -20 -20 -20 -20 -20 -20 -20 -20 -20 -20 -20 -20 -20 -20 -20 -20 -5 -20 -20 -20 -20 -20 -20 -20 -17 5 18 19 19 22
6 -20 -20 -20 1 -1 1 5 2 -6 -20 -20 -20 -2 -20 -19 -11 -20 -20 -20 -20 -20 -20 -20 -20 -20 -20 -20 -20 -13 -15 -19 -20 -20 -20 -20 -20 -20 -20 -18 -8 -0 12 2
-20 -20 -20 -2 -1 -5 -20 -13 -20 -20 -20 -20 -20 -20 -20 -20 -20 -20 -20 -20 -20 -20 -20 -20 -20 -20 -20 -20 -20 -20 -20 -20 -20 -20 -13 -20 -20 -20 -20 -20 -20 -20 -12 1
-10 -8 -12 -20 -14 -20 -19 -20 -20 -20 -20 -20 -20 -20 -20 -20 -20 -20 -20 -20 -20 -20 -20 -20 -20 -20 -20 -20 -20 -20 -20 -20 -20 -20 -20 -20 -20 -20 -20 -20 -20 -15 -10 -19

GFSCGP_prec_radar_111.txt.gz
Reflectivity
-20 -20 -20 -20 -20 -20 -20 -20 -20 -20 -20 -20 -20 -20 -20 -20 -20 -20 -20 -20 -20 -9 -14 -20 -20 -20 -20 -20 -20 -20 -20 -20 -20 -20 -20 -20 -20 -20 -20 -20 -20 -20 -20 -20
-20 -20 -20 -20 -20 -20 -20 -20 -20 -20 -20 -20 -17 -20 -20 -20 -20 -20 -20 -20 -20 -20 13 -0 -20 -20 -20 -20 -20 -20 -20 -20 -20 -20 -20 -20 -20 -20 -20 -20 -20 -20 -20 -20
-20 -20 -20 -20 -20 -20 -20 -20 -20 -20 -20 -8 17 18 -20 -20 -20 -20 -20 -20 -20 -20 -12 8 -12 -20 -20 -20 -20 -20 -20 -20 -20 -20 -20 -20 -20 3 -20 -20 -20 -20 -20 -20
-20 -20 -20 -20 -20 -20 -20 -20 -20 -20 -20 -20 5 5 -20 -20 -20 -20 -20 -20 -20 -20 -20 -20 4 -6 -20 -20 -20 -20 -20 -20 -20 -20 -20 17 -20 -20 -20 -20 -20 -20 -20 -20
-20 -20 -20 -20 -20 -20 -20 -20 -20 -20 1 9 -19 15 -20 -10 -20 20 -20 -20 -20 -20 -20 -20 -20 -20 -20 -20 -20 -15 1 4 12 13 -15 -19 -20 30 -20 -4 -17 -20 -20 -20
-20 -20 -20 -20 -20 -20 -20 -20 -20 -16 -18 14 -20 -20 -20 -16 28 -20 12 -20 -20 -20 -20 -20 -20 -20 -20 -20 -20 -20 6 -10 10 23 25 -3 -20 -2 12 -18 -11 -17 -20 -20
-20 -20 -20 -20 -20 -20 -20 -20 -20 8 -17 -18 -20 -20 -15 -15 14 -5 22 17 -15 -5 -16 -20 -20 -20 -20 -20 -20 -20 -20 0 -13 -9 14 20 -9 -16 -2 2 -15 -17 -20 -20
-20 -20 -5 -20 -20 -20 -20 -20 -5 14 26 5 -20 1 10 -17 3 18 -2 7 18 10 11 11 -20 -20 -20 -20 -20 -20 -20 -20 -20 -20 -12 -11 -7 -2 -17 -20 -20 -20 -20 -20
1 -20 -20 -20 -20 -20 -20 -14 6 18 15 15 16 33 31 32 19 5 26 6 -20 18 10 8 14 -7 -20 -20 -20 -20 -20 -20 -20 -20 -20 -20 -18 -19 -20 -20 21 -11 -18 -20
21 10 -20 -20 -8 -20 -17 5 2 0 19 -6 21 30 29 26 33 41 34 28 -2 12 9 23 16 -20 -11 -16 -20 -20 -20 -20 -20 -8 -4 -20 -20 -20 -15 -20 -20 -20 -20 -19
-2 16 -20 -20 -20 -20 -20 -18 -3 -12 -18 -13 12 19 30 27 34 25 35 40 19 16 23 19 7 -20 -19 -19 -19 -14 -20 -20 -20 -17 -1 -17 -9 -20 12 20 -13 -20 -13 -9
3 8 0 -20 -13 -1 -19 -20 14 -20 -6 10 -2 17 33 34 31 31 30 37 31 31 25 30 39 17 5 -18 -20 -19 -20 -20 -20 -20 -16 -16 -20 -4 10 7 -16 18 2 26
-2 6 -10 -20 -20 -17 -20 -20 11 8 11 12 21 18 33 35 17 29 30 34 32 21 2 -13 10 -3 -2 14 7 -20 -20 -20 -14 -20 -11 19 14 21 10 5 -19 21 21 22
-4 5 1 5 -5 26 -6 4 -12 24 20 23 7 1 20 21 20 30 5 -3 19 10 10 -20 -20 -20 -20 -20 -20 -20 -20 -20 -20 -7 18 13 24 21 9 -11 19 21 24 23
-16 20 28 24 28 11 -4 16 28 28 20 13 21 10 18 19 17 28 10 -7 -1 -6 -20 -20 -20 -20 -20 -20 -20 -20 -20 -20 -20 -16 7 -4 5 14 -5 -7 -13 -3 23 10
7 15 23 17 24 5 13 17 22 23 24 18 15 10 21 25 20 6 9 11 9 7 -20 -20 -20 -20 -20 -20 -20 -20 -20 -20 -20 -20 -12 -5 -20 -20 1 9 -5 10 3 17
22 8 15 5 7 14 -3 28 23 16 4 3 6 3 13 14 8 -3 -2 -15 -20 -20 -20 -20 -20 -14 -19 -20 -20 -20 -20 -20 -20 -20 -20 -16 -20 -12 -15 14 18 20 30 29
21 2 19 10 15 17 18 13 17 -18 -19 -6 -18 -17 -13 -20 -9 -4 4 1 -20 -20 -20 -20 -20 -20 -4 -20 -14 -20 -20 -20 -20 -20 -20 -16 -1 -13 -17 10 29 17 25 33
-10 -8 -7 12 2 3 3 9 -4 -0 1 -5 -3 -15 -20 -20 -12 -20 5 3 -20 -20 -20 -20 -20 -20 -20 -20 -7 -20 -20 -20 -20 -20 -20 -20 -20 -19 -1 -8 16 23 13 38
-0 5 -9 13 -20 -2 -10 -2 -8 -20 -0 -0 -2 -20 -14 -18 -20 -20 1 -14 -20 -20 -20 -20 -20 -20 -20 -20 -20 -20 -20 -20 -20 -20 -20 -20 -20 -20 -20 -18 11 19 5 23
-20 -20 14 15 -18 -6 -20 -3 -7 -3 -5 4 -20 -20 -20 -20 -11 4 -20 -20 -20 -20 -20 -20 -20 -20 -17 -20 -20 -20 -20 -20 -20 -20 -20 -20 -20 -20 -18 -17 -18 -10 14 25
-20 -9 -17 -14 -18 -20 -20 -19 -20 -7 6 -12 -19 -20 -20 -20 -20 -20 -20 -20 -20 -20 -20 -20 -20 -20 -19 -20 -20 -20 -17 -20 -20 -20 -20 -20 -20 -20 -20 -20 -19 -7 -1 4
-20 -20 -18 2 -18 7 11 0 7 -1 -19 18 -20 -20 -20 -20 -20 -20 -20 -20 -20 -20 -20 -20 -20 -20 -20 -20 -20 -20 -20 -12 -20 -20 -20 -20 -20 -20 -20 -20 -20 -20 -19 7
-17 -20 -20 -20 9 -11 -1 -20 -5 -14 -20 -20 -6 -0 -6 -20 -20 -20 -20 -20 -20 -20 -20 -20 -20 -20 -20 -20 -20 -20 -20 -20 -20 -20 -20 -20 -20 -20 -20 -20 -20 -20 -20 -19
-20 -5 -17 -11 1 -20 -20 -20 -20 -20 -20 -20 -20 -20 -20 -20 -20 -20 -20 -20 -20 -20 -20 -20 -20 -20 -20 -20 -20 -20 -20 -20 -20 -20 -9 -20 -20 -20 -20 -20 -19 -20 -15 -10
-12 -3 -16 -20 -20 -20 -20 -20 -20 -20 -20 -20 -20 -20 -20 -20 -20 -20 -20 -20 -20 -20 -20 -20 -20 -20 -20 -20 -20 -20 -20 -20 -20 -20 -20 -20 -20 -20 -20 -20 -20 -15 -15 -15

GFSCGP_prec_radar_114.txt.gz
Reflectivity
-20 -20 -20 -20 -20 -20 -20 -20 -20 -20 -20 -20 -20 -20 -20 -20 -20 -20 -20 -20 -20 -20 -20 -20 -20 -20 -20 -20 -20 -20 -20 -20 -20 -20 -20 -20 -20 -20 -20 -20 -20 -20 -20 -20
-20 -20 -20 -20 -20 -20 -20 -20 -20 -20 -20 -20 -20 -20 -20 -20 -20 -20 -20 -20 -20 -20 -20 -20 -20 -20 -20 -20 -1 -20 -20 -20 -20 -20 3 14 -20 -20 -20 -20 -20 -20 -20 -20
-20 -20 -20 -20 -20 -20 -20 -20 -20 -20 -20 -20 -20 -20 -20 -20 -20 -20 -20 -20 -20 -20 -20 -20 -7 -19 -20 -20 -20 -20 -20 -20 3 8 -16 1 -17 -20 -20 -20 -20 -20 -20 -20
-20 -20 -20 -20 -20 -20 -20 -20 -20 -20 -20 -20 -20 7 -20 -20 -20 -14 -20 -20 -20 -20 -20 -20 -20 -13 -20 -20 -20 -20 -20 -13 -20 -20 -19 -12 -20 -20 -20 -20 -20 -20 -20 -20
-20 -20 -20 -20 -20 -20 -20 -20 -20 -20 -20 -19 -20 -19 -20 -7 -15 -2 22 -9 -20 -20 -20 -20 -20 -20 -20 -20 -20 -20 -20 -20 -20 -20 6 12 -17 27 -5 -20 -0 -19 -16 -20
-20 -20 -20 -20 -20 -20 -20 -20 -20 -20 -20 -20 -20 -20 -20 24 33 17 21 22 18 -6 -20 -20 -20 -20 -20 -20 -20 -20 -20 -20 -20 -20 9 8 -13 -20 4 -10 -20 -20 -20 -20
-20 -20 -20 -20 -20 -20 -20 -20 -20 -20 -11 6 -19 -20 -14 17 14 28 37 15 13 14 -20 -20 -20 -20 -20 -20 -20 -11 -20 -20 -20 -20 -3 11 7 -17 5 -16 -20 13 10 -8
-0 -20 -20 -20 -20 -20 -20 -20 -14 5 16 5 10 7 18 29 27 28 20 31 14 8 7 -10 -20 -20 -20 -20 -20 -20 -20 -20 -20 -14 20 15 17 6 13 -10 -20 -20 -19 -20
2 -20 -20 -20 -20 -20 -20 -20 -2 16 5 12 26 21 31 18 25 25 36 26 -3 21 15 6 -10 -2 -16 -20 -20 -20 -20 -20 -15 -20 -16 7 -5 11 9 12 4 -5 23 -11
-8 15 -20 -20 -20 -20 -20 -20 -8 -4 21 -7 -3 10 16 16 19 24 22 21 28 21 16 4 13 14 -9 -9 -11 3 -20 -20 -20 -20 -20 -20 -20 -20 -20 -18 -2 -16 -18 -9
-20 9 -19 -20 -20 -20 -20 -20 -16 0 -9 -1 -0 -2 24 20 24 26 26 29 33 37 17 -1 -17 -20 -20 13 -11 13 4 -20 -20 -20 -20 -20 -20 -19 -10 -20 2 -9 -20 -4
-13 17 -20 -20 -20 -20 -20 -20 4 15 -20 -2 14 1 33 23 29 33 27 27 35 40 28 26 18 18 29 17 8 -20 -20 -20 -20 -20 -20 -10 -1 -20 -20 -20 -17 3 -20 -18
10 1 0 -20 -20 -20 -20 -19 2 6 22 3 14 6 26 24 33 35 23 27 31 30 26 34 32 30 26 28 6 -20 -20 -20 -20 -20 -18 -20 -19 8 -6 -20 -7 -1 20 11
-3 21 22 -2 13 15 -5 17 17 22 9 11 11 -0 -3 14 19 23 22 24 24 28 19 11 23 22 16 -1 -3 6 -1 -20 -20 -20 -19 -3 -20 14 5 -5 4 11 13 19
20 6 17 11 8 14 -7 27 19 -16 1 9 10 4 12 12 16 20 15 13 15 10 17 11 -17 -15 -1 13 8 -20 -14 -20 -20 -20 -20 -20 -0 6 -10 12 21 -11 9 19
13 4 12 10 14 22 13 21 18 -1 11 13 16 6 13 14 20 16 11 -5 -2 16 -12 -20 -17 -17 -19 -20 -20 -20 -20 -20 -20 -20 -20 -20 -20 -20 -14 13 6 -1 -15 -19
12 15 12 -18 4 -11 7 18 24 7 -5 8 -12 -2 9 -10 -20 -11 -1 -13 -18 -20 3 -16 -14 -15 -13 -12 -20 -20 -20 -20 -20 -20 -20 -20 -20 -20 -20 -5 -20 -20 -20 -16
-19 26 13 9 1 15 -20 -7 -9 -19 -20 -9 -11 -16 -18 -18 -4 -2 0 -12 -12 -8 -9 -0 -19 -20 -19 -20 -20 -20 -20 -20 -20 -20 -20 -20 -20 -20 -17 -18 -18 -10 -17 9
-20 31 17 21 11 8 -7 -17 -6 1 -15 -10 6 4 -20 -20 -18 -18 5 -20 -20 -20 -20 -17 -15 -17 -20 -20 -15 -20 -20 -20 -20 -20 -20 -20 -20 -20 -20 -20 -14 -13 -18 -0
-20 13 18 5 -13 -20 -1 1 -20 -20 -6 -20 -20 -20 -7 6 -20 -20 -20 -20 -20 -20 -20 -20 -20 -20 -20 -20 -20 -20 -20 -20 -20 -20 -20 -20 -20 -20 -20 -20 -20 -20 -20 -6
-20 3 17 17 -20 -20 -20 -14 -19 -11 -13 -14 -20 -20 -20 -20 -18 -15 -20 -20 -20 -20 -20 -20 -20 -20 -20 -20 -20 -14 -20 -20 -20 -20 -20 -20 -20 -20 -20 -20 -20 -20 -20 -20
-20 6 9 14 2 -20 -1 -17 -20 1 -11 -20 -20 -20 -20 -20 -20 -20 -20 -20 -20 -20 -20 -20 -20 -20 -20 -20 -20 -20 -20 -20 -20 -20 -20 -20 -20 -20 -20 -20 -20 -20 -20 -20
-14 -11 11 3 -20 3 8 -1 -7 -20 -12 -10 -20 -20 -20 -20 -20 -20 -20 -20 -20 -20 -20 -20 -20 -20 -20 -20 -20 -20 -20 -20 -20 -20 -20 -20 -20 -20 -20 -20 -20 -20 -20 -20
9 -0 2 -11 6 1 -17 -20 -20 -20 -20 -19 -18 -20 -20 -20 -20 -20 -20 -20 -20 -20 -20 -20 -20 -20 -20 -20 -20 -20 -20 -20 -20 -20 -20 -20 -20 -20 -20 -20 -20 -20 -20 -20
-18 3 7 1 -14 -20 -20 -20 -20 -20 -20 -20 -20 -20 -20 -20 -20 -20 -20 -20 -20 -20 -20 -20 -20 -20 -20 -20 -20 -20 -20 -20 -20 -20 -20 -20 -20 -20 -20 -20 -0 -20 -10 -0
-10 -14 -19 -8 -6 -20 -20 -20 -20 -20 -20 -20 -20 -20 -20 -20 -20 -20 -20 -20 -20 -20 -20 -20 -20 -20 -20 -20 -20 -20 -20 -20 -20 -20 -20 -20 -20 -20 -20 -20 -20 -15 -16 -6

GFSCGP_prec_radar_117.txt.gz
Reflectivity
-20 -20 -20 -20 -20 -20 -20 -20 -20 -20 -20 -20 -20 -20 -20 -20 -20 -20 -20 -20 -20 -20 -20 -20 -20 -20 -20 -20 -20 -20 -20 -20 -20 -20 -9 -20 -13 -20 -20 -20 -20 -20 -20 -20
-20 -20 -20 -20 -20 -20 -20 -20 -20 -20 -20 -20 -20 -20 -20 -20 -20 -20 -20 -20 -20 -20 -20 -20 -20 -20 -20 -20 -20 -8 5 -20 -20 -20 -15 -4 -7 -17 -18 -20 -20 -5 -20 -20
-20 -20 -20 -20 -20 -20 -20 -20 -20 -20 -20 -20 -20 -20 -20 -20 -20 -20 -20 -20 -20 -20 -20 -20 -20 -20 -20 -20 -20 -20 -2 -6 -20 -13 -11 24 -17 5 -8 -14 -20 -20 -20 -20
-20 -20 -20 -20 -20 -20 -20 -20 -20 -20 -20 -20 -20 -19 -20 -20 -20 -3 -19 -17 -20 -20 -20 -20 -20 -20 -20 -20 -20 -20 -14 14 -2 28 -20 -20 -20 -20 -8 -6 -20 7 -20 -20
-20 -20 -20 -20 -20 -20 -20 -20 -20 -20 -20 -20 -17 -19 -20 -20 4 30 34 31 8 -0 -5 -10 -20 -20 -20 -18 -20 -20 -18 3 3 -19 -2 -14 -11 -5 8 8 -20 -20 4 -20
-20 -20 -20 -20 -20 -20 -20 -20 -20 -20 -20 -3 -1 8 -20 -10 15 13 37 33 26 21 5 23 -6 -20 -20 -20 -20 -5 -14 -20 -20 -5 20 2 3 4 -5 5 -8 -14 -20 -20
-20 -20 -20 -20 -20 -20 -20 -20 -20 -20 -20 -17 23 15 9 20 13 25 22 34 29 22 8 24 17 14 -11 -19 -17 -20 -20 -20 -20 10 2 12 -19 -11 -9 -20 -20 -20 2 -20
-13 -20 -20 -20 -20 -20 -20 -20 -20 -20 -20 -15 7 15 18 32 17 23 27 37 27 30 9 21 18 6 -20 17 10 -8 -10 -7 -20 -16 -15 -20 -5 -15 -4 20 -19 -6 -7 -20
-20 -20 -20 -20 -20 -20 -20 -20 -20 -15 -20 5 3 11 29 10 11 -7 14 33 27 31 26 -5 21 -15 19 15 6 3 -4 -3 3 -17 -13 -20 -20 -0 5 12 17 -12 5 -20
-20 -4 -20 -20 -20 -20 -18 -20 15 1 -5 -11 -1 -7 4 -5 9 9 7 20 27 33 26 16 -1 -20 -20 8 13 6 -20 -9 -14 -15 -20 -20 -18 -0 -4 16 15 17 3 30
-20 -9 -20 -20 -20 -19 -7 1 -1 23 -16 19 9 6 13 12 9 8 13 16 24 23 26 29 23 -19 -20 -20 -20 -15 -13 -10 -1 -14 -14 -20 -20 -20 3 21 -16 20 7 12
-20 1 -20 -20 -20 -20 -20 -4 17 8 -10 18 -3 1 28 24 11 12 17 20 20 22 19 26 34 14 -15 -1 -19 -20 -4 -20 -20 -13 -10 4 -4 -5 -20 -20 -20 -20 -12 28
-20 -9 -8 -20 -20 -20 -20 3 15 23 19 17 13 1 17 12 12 14 18 20 23 26 24 23 27 24 17 -2 -15 -20 -17 -14 1 -2 -16 9 9 -18 -20 -11 -16 -20 -5 -17
-20 0 -5 -15 5 4 -7 -10 11 20 14 11 -5 -18 -15 10 13 18 21 19 24 25 29 28 26 23 10 6 13 22 -19 -12 -19 -20 -11 1 -20 -19 -20 -13 -14 -20 -20 -20
-20 -3 5 11 13 -6 11 3 -5 -17 -18 -16 -15 -20 -9 5 12 9 22 24 22 21 19 19 18 22 29 16 13 13 16 -20 -20 -20 -20 -20 -20 -20 -20 -20 -20 -20 -20 -9
-16 -20 11 -20 29 2 9 18 -12 -6 -20 -20 -20 -19 3 10 15 20 14 14 16 14 17 9 -2 1 11 8 8 3 -18 -20 -20 -10 1 -20 -20 -6 -19 2 -9 -7 -14 -9
-20 -0 0 -15 12 -3 11 10 10 -6 -19 -20 -11 -4 -0 -6 0 2 2 3 8 12 4 10 7 -15 -20 -20 -20 -17 -1 -2 -19 -20 -20 -20 -20 -20 -20 8 5 -17 -6 -18
-20 -4 -11 -5 16 16 12 1 6 -8 -20 -6 -17 -19 -20 -20 -10 0 -1 -10 -4 -13 2 8 -18 -2 -12 3 -17 -20 -20 -20 -20 -20 -20 -20 -20 -20 -20 -15 -5 -5 19 14
-20 1 -16 10 -13 14 12 1 -9 -2 -17 -10 -1 5 -20 -19 -19 -18 -6 -20 -17 -4 -20 -20 -17 -19 -20 -9 4 -20 -20 -20 -20 -20 -20 -20 -20 -20 -20 -20 -20 -20 -20 -20
-20 -20 -20 8 8 9 -1 13 20 10 -9 -20 -20 -20 -20 4 -20 -20 -20 -20 -20 -20 -20 -20 -20 -20 -20 -20 -4 -18 -20 -20 -20 -20 -20 -20 -20 -20 -20 -20 -20 -20 -20 -20
-20 -20 -20 -18 -7 -13 -4 10 20 -8 -20 -20 -20 -20 -20 -20 -20 -19 -20 -20 -20 -20 -20 -20 -20 -20 -20 -20 -20 -20 -7 -12 -20 -20 -20 -20 -20 -20 -20 -20 -20 -20 -2 -20
-20 -14 -20 -19 3 6 9 16 -11 -16 -1 -20 -20 -20 -20 -20 -20 -20 -20 -20 -20 -20 -20 -20 -20 -20 -20 -20 -20 -20 -20 -6 -20 -20 -20 -20 -20 -9 -4 -18 -20 -20 -20 -20
-15 -20 -20 2 3 -0 20 0 -13 14 -20 -20 -20 -20 -20 -20 -20 -20 -20 -20 -20 -20 -20 -20 -20 -20 -20 -20 -20 -20 -8 -12 -20 -20 -20 -20 -20 -20 -20 -7 -5 -20 -20 -20
-2 -19 -9 4 8 -2 -20 -4 -19 -15 -20 -20 -20 -20 -20 -20 -20 -20 -20 -20 -20 -20 -20 -20 -20 -20 -20 -20 -20 -20 -20 -20 -20 -20 -20 -20 -20 -20 -20 -20 -20 -18 0 -8
-14 -12 -20 -5 3 -18 -20 -20 -20 -20 -20 -20 -20 -20 -20 -20 -20 -20 -20 -20 -20 -20 -20 -20 -20 -20 -20 -20 -20 -20 -20 -20 -20 -20 -20 -20 -20 -20 -20 -20 -5 -2 4 6
-8 -13 -20 -20 -20 -19 -20 -20 -20 -20 -20 -20 -20 -20 -20 -20 -20 -20 -20 -20 -20 -20 -20 -20 -20 -20 -20 -20 -20 -20 -20 -20 -20 -20 -20 -20 -12 -20 -20 -20 -20 -19 -20 -17

GFSCGP_prec_radar_123.txt.gz
Reflectivity
-20 -20 -20 -20 -20 -20 -20 -20 -20 -20 -20 -20 -20 -20 -20 -20 -20 -20 -20 -20 -20 -20 -20 -20 -20 -20 -20 -20 -20 -20 -20 -20 -20 31 -11 2 -17 -20 -20 -20 -20 -20 -20 7
-20 -20 -20 -20 -20 -20 -20 -20 -20 -20 -20 -20 -20 -20 -20 -20 -20 -20 -20 -20 -20 -20 -20 -20 -20 -20 -20 -20 -20 -20 -20 -20 -20 -20 15 27 -14 -20 -20 -20 -20 -20 -6 -17
-20 -20 -20 -20 -20 -20 -20 -20 -20 -20 -20 -20 -20 -20 -20 -20 -20 -20 -20 -20 -20 -20 -4 -0 -10 -20 -20 -20 -20 -20 -20 -20 -20 -20 -20 -8 13 -20 -20 -20 -20 -20 -12 -8
-20 -20 -20 -20 -20 -20 -20 -20 -20 -20 -20 -20 -20 -20 -20 -20 -20 -20 -20 -20 -20 -20 -5 -2 1 5 -6 -14 -20 -20 -20 -20 -20 -20 -1 4 29 -20 -20 -20 -20 -20 -20 -4
-20 -20 -20 -20 -20 -20 -20 -20 -20 -20 -20 -20 -20 -20 -20 -20 -20 -20 -20 -20 -20 -10 -1 -3 -1 -1 8 5 -12 -20 -20 -8 -20 -19 -20 30 25 -20 -20 -20 -20 -20 -20 -20
-20 -20 -20 -20 -20 -20 -20 -20 -20 -20 -20 -20 -9 -14 -20 -17 -2 -6 -4 -7 -9 6 6 2 -13 -8 8 8 6 -1 -13 -20 -20 -15 27 29 -20 -8 -20 -20 -20 -20 1 -20
-20 -20 -20 -20 -20 -20 -20 -20 -20 -20 21 -9 23 2 -20 -20 -20 -20 -9 1 -12 4 8 5 -3 26 25 20 18 24 18 7 -20 14 13 30 13 35 31 16 37 1 -10 -11
-20 -20 -20 -20 -20 -20 -20 -20 -6 -5 -10 -20 -20 3 -4 -20 -20 -20 -20 -6 -3 3 7 16 24 34 27 28 29 31 25 28 -11 12 12 16 27 33 34 23 48 35 23 9
-20 -20 -20 -20 -20 -20 -17 -20 -20 13 -17 9 21 -16 -17 -20 -20 -20 -20 -3 1 10 17 20 29 28 25 35 42 29 29 22 20 25 18 24 23 31 32 34 41 43 31 18
-20 -20 -20 -20 -20 -20 -20 -20 -7 6 15 18 16 -7 0 -12 1 2 2 1 6 1 5 25 27 19 28 41 30 32 37 10 24 25 29 27 20 30 27 48 28 28 21 12
-20 -13 -20 -20 -20 -20 -20 1 12 14 17 16 10 7 7 6 5 5 6 7 8 7 13 22 33 24 25 27 38 22 27 2 1 30 36 32 33 27 19 26 37 33 29 25
-20 0 -20 -20 -20 -20 -20 -20 -14 17 13 26 36 12 7 3 -9 2 5 7 4 5 19 19 20 26 21 18 21 29 22 -7 7 26 22 27 4 28 35 44 39 34 27 27
-20 -6 -3 3 -15 -19 -20 -20 -20 -3 0 3 16 14 -20 -18 -12 -0 5 4 7 5 16 19 18 10 23 19 22 35 30 25 35 21 11 -1 -13 23 37 28 19 17 15 16
-17 -8 -9 5 -20 -20 -20 -20 -20 2 14 19 -2 -4 -3 -2 -2 -20 -8 4 9 10 14 24 23 21 14 5 7 2 18 33 31 35 36 13 -20 -13 7 8 8 -9 -20 -8
3 -8 -15 -15 -20 -20 -16 -12 -8 -20 -12 -0 -8 -8 -2 -0 -0 4 2 -17 4 15 13 11 20 17 24 30 25 21 -2 10 17 19 18 -6 -20 -20 -8 21 -3 -19 -20 -18
4 11 -2 -20 -13 -14 2 -20 -20 -8 -3 -8 -20 -9 -3 -4 -6 -4 -4 -20 -20 -20 3 12 16 18 18 7 8 -3 -12 0 -16 4 9 1 -19 -20 -20 -20 -20 -19 -2 -7
7 8 1 6 0 2 16 -20 -20 -18 -20 2 -2 -18 -9 -20 -20 -2 -3 -6 -6 -20 -15 -0 2 15 16 15 3 3 -4 -13 -20 -18 -20 -20 -11 -20 -16 -16 -20 -12 -11 -18
-20 -13 -13 -9 14 11 -4 -20 -20 -20 -20 -20 -20 -20 -20 -20 -20 -15 -13 -5 -4 -5 -20 -20 -19 -9 -3 11 4 12 6 -16 -20 -20 0 -3 -10 -11 -6 -14 -19 2 -4 -7
-15 -10 2 11 10 7 5 -19 -18 -7 -20 -20 -19 -13 -20 -20 -20 -10 -19 -12 -18 -20 -20 -20 -20 -20 -20 -20 -17 -8 4 11 -7 -15 0 2 -1 -17 -13 -6 1 1 -0 -0
4 -1 6 11 11 14 8 -20 -20 -20 -1 -20 -20 -19 -19 -20 1 -12 -10 -19 -20 -20 -20 -20 -20 -20 -20 -20 -20 -20 -20 -20 -11 2 -3 -15 3 -6 2 7 4 4 1 1
13 10 14 12 10 -2 -20 -20 -3 3 4 -20 -11 -8 -1 -4 -20 -15 -20 -20 -20 -20 -20 -20 -20 -20 -20 -20 -20 -20 -20 -20 -20 -20 -20 -20 -20 -20 -9 -5 7 5 7 3
3 12 5 8 7 16 -11 3 5 0 -13 -20 -9 -14 -20 -20 -12 -14 -14 -20 -20 -20 -20 -20 -20 -20 -20 -20 -20 -20 -20 -20 -20 -20 -20 -20 -20 -20 -14 -3 -1 -5 -7 1
7 -8 14 -18 3 -16 -2 11 6 21 14 4 -20 -20 -20 -20 -11 -18 -19 -12 -20 -20 -20 -20 -20 -20 -20 -20 -20 -20 -20 -20 -20 -20 -20 -20 -20 -20 -20 -20 -20 -20 -6 -1
-9 -20 -18 -14 -15 -10 3 23 17 27 22 14 -0 0 -20 -17 -8 -9 -20 -20 -20 -20 -20 -20 -20 -20 -20 -20 -20 -20 -20 -20 -20 -20 -20 -20 -20 -20 -20 -20 -20 -20 -20 -20
-8 -9 -12 5 5 6 8 21 27 25 20 8 -18 -17 -20 -20 -20 -20 -20 -20 -20 -20 -20 -20 -20 -20 -20 -20 -20 -20 -20 -20 -20 -20 -20 -20 -20 -20 -20 -20 -20 -20 -20 -20
-16 -13 7 18 -20 3 2 19 25 21 10 2 -8 -20 -20 -20 -20 -20 -20 -20 -20 -20 -20 -20 -20 -20 -20 -20 -20 -20 -20 -20 -20 -20 -20 -20 -20 -20 -20 -20 -20 -20 -20 -20

GFSCGP_prec_radar_126.txt.gz
Reflectivity
-20 -20 -20 -20 -20 -20 -20 -20 -20 -20 -20 -20 -20 -20 -20 -20 -20 -20 -20 -20 -20 -20 -20 -20 -20 -20 -20 -20 -20 -20 -20 -20 -20 -20 -20 10 -20 -20 34 -8 -20 -20 -20 -9
-20 -20 -20 -20 -20 -20 -20 -20 -20 -20 -20 -20 -20 -20 -20 -20 -20 -20 -20 -20 -20 -20 -20 -20 -20 -20 -20 -20 -20 -20 -20 -20 -20 -20 -20 -20 -10 -20 33 -4 -20 -20 -20 -20
-20 -20 -20 -20 -20 -20 -20 -20 -20 -20 -20 -20 -20 -20 -20 -20 -20 -20 -20 -20 -20 -20 -20 -20 -20 -20 -20 -20 -20 -20 -20 -20 -20 -20 -20 -20 -20 25 31 27 -16 2 -20 -20
-20 -20 -20 -20 -20 -20 -20 -20 -20 -20 -20 -20 -20 -20 -20 -12 9 -20 -20 -20 -20 -20 -20 -20 -20 -20 -20 -20 -20 -20 -20 -20 -20 -20 -20 -20 -20 -9 22 31 6 -10 -20 -20
-20 -20 -20 -20 -20 -20 -20 -20 -20 -20 -20 -20 -20 -20 -3 -1 -20 -20 -20 -20 -20 -20 -20 -20 -20 -20 -20 -20 -20 -6 -13 -20 -20 -20 -20 -11 -20 -14 -12 32 12 -9 -9 -20
-20 -20 -20 -20 -20 -20 -20 -20 -20 -20 -20 -20 -20 8 -20 21 17 -20 -20 -20 -20 -20 -20 -20 -3 -20 -18 0 -1 -4 -9 -20 -20 -20 -20 -2 3 -20 2 29 25 -20 -12 -20
-20 -20 -20 -20 -20 -20 -20 -20 -20 -20 -20 -17 -20 -13 -20 -20 -20 -20 -20 -20 -20 -20 -10 -3 2 7 8 4 -2 -19 -15 -13 -20 -16 15 9 -9 8 24 25 23 -20 3 -8
-20 -20 -20 -20 -20 -20 -20 -20 -20 -20 -20 -20 -20 -20 -20 -20 -20 -20 -20 -20 -19 -20 2 2 3 17 6 -5 9 19 24 -7 -3 8 23 4 -20 -14 25 40 45 30 26 19
-20 -20 -20 -20 -20 -20 -20 -20 -20 -12 -20 -18 -20 2 16 -13 -20 -20 -19 -20 -6 -2 0 0 4 28 -7 29 32 30 30 24 20 14 26 -2 -20 -6 27 39 34 41 24 -0
-20 -20 -20 -20 -20 -20 -20 -20 -19 9 9 -19 -20 -11 -20 -20 -18 -12 -20 -1 -3 -17 -12 -2 7 8 1 33 35 34 36 33 31 32 27 -19 -14 21 36 30 27 49 35 36
-12 -20 -20 -20 -20 -20 -6 -19 5 -10 12 10 8 -8 7 -3 -5 -11 -19 2 2 -2 -7 3 4 24 24 32 37 39 37 41 39 33 25 -10 9 18 25 26 26 48 43 19
1 -20 1 -9 6 -20 -20 -20 -20 -19 -20 6 3 -4 -19 -20 -20 -20 -20 -6 2 2 -1 9 9 11 29 32 35 38 34 33 39 30 20 18 -8 21 40 29 27 39 37 40
5 14 7 -18 -17 -20 -20 -11 -20 -20 -20 -20 4 -10 -20 -20 -20 -15 -6 -16 -2 -9 -8 -6 5 5 25 25 35 39 39 29 34 35 9 2 30 25 23 15 11 24 11 29
7 11 4 20 25 15 -18 -20 -20 -20 4 -16 13 -8 -20 -20 -15 -18 -20 -20 -20 -14 4 13 16 17 16 20 32 32 28 19 17 7 21 20 21 30 17 4 16 16 16 29
-4 12 -1 -20 -16 -3 -20 -20 -20 -20 -20 7 -13 -20 -20 -20 -6 -20 -20 -20 -20 -20 -19 1 8 8 18 13 28 28 19 2 10 20 22 32 42 40 39 41 38 36 32 35
-8 8 -18 -20 -20 -20 -1 -20 -20 -1 -20 -20 -20 -20 -20 -20 -20 -20 -20 -20 -20 -20 -20 -20 -20 2 -1 10 15 16 -18 -0 -2 -13 6 18 27 27 29 36 37 28 21 26
6 -1 -9 -1 3 -17 3 -20 -20 -20 -20 -17 3 -20 -20 -20 -20 -19 -20 -20 -20 -20 -20 -20 -20 -12 -10 8 16 14 -6 -13 -19 -20 -12 -4 7 -8 -14 2 14 0 18 18
6 -15 3 -2 3 13 -19 -20 -20 -20 -20 -20 -20 -20 -20 -20 -20 -20 -20 -20 -20 -20 -20 -20 -20 -20 -20 -20 -11 1 -3 -15 -20 -20 -20 -13 5 -16 -15 -20 -13 -11 -10 -6
-11 -2 10 10 4 -16 -20 -20 -20 -20 -17 -20 -20 -20 -20 -20 -20 -20 -20 -20 -20 -20 -20 -20 -20 -20 -20 -20 -20 -20 -20 -20 -20 -19 -18 -8 -8 -1 2 -14 -20 -13 -14 -17
-20 9 13 8 10 -18 -8 -20 -20 -20 -13 -20 -20 -20 -20 -20 -20 -9 -20 -20 -20 -20 -20 -20 -20 -20 -20 -20 -20 -20 -20 -20 -20 -20 -20 -20 -20 -20 -20 -17 -4 3 -4 2
4 14 -1 12 6 -12 -20 -20 -20 1 -4 -20 -20 -20 -20 -12 -20 -20 -20 -20 -20 -20 -20 -20 -20 -20 -20 -20 -20 -20 -20 -20 -20 -20 -20 -20 -20 -20 -20 -20 -20 -20 -9 -20
-17 -1 -1 -1 11 16 -15 -20 5 -10 -20 -20 -20 -19 -11 -3 -9 -20 -20 -20 -20 -20 -20 -20 -20 -20 -20 -20 -20 -20 -20 -20 -20 -20 -20 -20 -20 -20 -20 -20 -20 -20 -20 -20
16 12 18 -15 -5 -20 -20 2 -3 -20 -7 -19 7 9 3 -1 1 -19 -20 -20 -20 -20 -20 -20 -20 -20 -20 -20 -20 -20 -20 -20 -20 -20 -20 -20 -20 -20 -20 -20 -20 -20 -20 -20
-20 -20 -20 -18 -18 -14 3 5 6 4 3 7 19 13 3 -2 -16 -20 -20 -20 -20 -20 -20 -20 -20 -20 -20 -20 -20 -20 -20 -20 -20 -20 -20 -20 -20 -20 -20 -20 -20 -20 -20 -20
-20 -20 -20 -2 -18 -18 9 9 5 4 14 20 16 11 -3 -10 -13 -20 -20 -20 -20 -20 -20 -20 -20 -20 -20 -20 -20 -20 -20 -20 -20 -20 -20 -20 -20 -20 -20 -20 -20 -20 -20 -20
-20 -20 -3 12 -20 -13 -6 5 3 8 24 20 12 7 5 1 -6 -7 -20 -20 -20 -20 -20 -20 -20 -20 -20 -20 -20 -20 -20 -20 -20 -20 -20 -20 -20 -20 -20 -20 -20 -20 -20 -20

GFSCGP_prec_radar_129.txt.gz
Reflectivity
-20 -20 -20 -20 -20 -20 -20 -20 -20 -20 -20 -20 -20 -20 -20 -20 -20 -20 -20 -20 -20 -20 -20 -20 -20 -20 -20 -20 -20 -20 -20 -20 -20 -20 -20 -20 -20 -20 -2 -20 -20 35 13 14
-20 -20 -20 -20 -20 -20 -20 -20 -20 -20 -20 -20 -20 -20 -20 -20 -20 -20 -20 -20 -20 -20 -20 -20 -20 -20 -20 -20 -20 -20 -20 -20 -20 -20 -20 -20 -20 -20 -20 -20 6 32 20 3
-20 -20 -20 -20 -20 -20 -20 -20 -20 -20 -20 -20 -20 -20 -20 -20 -20 -20 -20 -20 -20 -20 -20 -20 -20 -20 -20 -20 -20 -20 -20 -20 -20 -20 -20 -20 -20 -20 -20 -20 -20 15 35 2
-20 -20 -20 -20 -20 -20 -20 -20 -20 -20 -20 -20 -20 -20 -20 -20 -20 -20 -20 -15 -12 -20 -20 -20 -20 -20 -20 -20 -20 -20 -20 -20 -20 -20 -20 -20 -20 -20 -20 -20 -20 12 32 36
-20 -20 -20 -20 -20 -20 -20 -20 -20 -20 -20 -20 -20 -20 -20 -20 -20 -20 -20 -20 -20 -20 -20 -20 -20 -20 -20 -20 -20 -20 -20 -20 -20 -20 -20 -2 -20 -20 -20 -20 -20 -17 14 36
-20 -20 -20 -20 -20 -20 -20 -20 -20 -20 -20 -20 -20 -20 -20 -18 -20 -20 -20 -20 -20 -20 -20 -20 -20 -20 -20 -20 -20 -20 -20 -20 -20 -20 -20 -1 -19 -20 -20 -20 -20 -12 13 33
-20 -20 -20 -20 -20 -20 -20 -20 -20 -20 -20 -20 -20 -20 -20 -20 -20 -20 -20 -20 -20 -20 -20 -20 -20 -20 -18 -20 -11 -13 -4 -9 -19 -20 -7 -7 -7 12 -10 -20 -20 -2 22 26
-20 -20 -20 -20 -20 -20 -20 -20 -20 -20 -20 -20 -20 -20 -20 -20 -20 -20 -20 -20 -20 -20 -20 -20 -20 -20 -20 5 18 -7 -13 11 -3 3 -4 14 12 -4 -8 -19 5 -1 23 28
-17 -20 -20 -20 -20 -17 -20 -20 -20 -20 -20 -20 -20 -20 -18 -20 -20 -20 -20 -20 -20 -8 -20 -20 -20 -20 -20 -1 22 11 -7 -4 3 16 12 -3 -18 -10 -19 -20 -20 -20 14 23
-20 -20 -20 7 -16 -18 -16 -20 -20 -20 -12 -2 -20 -20 -20 -20 -20 -20 -20 -20 -20 -20 -20 -20 -20 -20 -9 14 26 28 21 11 28 21 17 14 3 -4 -7 -15 -20 -20 24 24
-7 -13 -16 8 -7 -12 -20 -20 -18 -11 -9 -12 -13 -20 -20 -20 -20 -20 -20 -20 -20 -19 -20 -20 -20 -20 -16 23 31 33 35 35 32 31 22 21 37 4 -8 21 -19 -7 15 32
14 10 -16 10 3 -11 5 -17 9 -17 -19 -20 -20 -20 -20 -20 -20 -20 -20 -15 -20 -19 -20 -20 -20 -20 -20 2 33 30 38 38 38 38 40 36 30 21 14 -19 -20 -1 17 38
9 -20 -20 -20 -17 -20 -18 15 -2 -20 -20 -20 -18 -20 -20 -20 -20 -2 -20 -20 -20 -20 -20 -20 -14 -20 -12 -8 17 30 32 36 40 42 41 37 21 -3 24 -8 -11 10 17 26
-20 -20 -20 -1 -0 -4 16 18 -20 -20 -20 -20 -15 -20 -20 -19 -20 -20 -20 -20 -20 -20 -20 -20 -19 -14 -15 -16 -12 13 20 34 40 36 29 33 30 18 13 0 34 44 40 37
-20 -20 -20 -20 -20 -10 -20 -20 -19 -17 -20 -6 -20 -20 -20 -20 -20 -20 -20 -20 -20 -20 -20 -20 -20 -20 -5 6 0 -7 3 0 21 25 21 16 14 15 16 12 23 27 32 41
-20 -20 -20 -20 -14 -20 -20 -20 -20 -20 -20 -20 -20 -20 -20 -20 -20 -20 -20 -20 -20 -20 -20 -20 -18 -20 -20 -3 9 19 -0 -13 -9 14 16 9 -5 1 5 20 22 20 29 34
-20 -17 -20 -12 -20 -20 -18 -20 -20 -20 -20 -19 -20 -20 -20 -20 -20 -20 -20 -20 -20 -20 -20 -20 -20 -20 -20 -20 -20 -20 2 -20 -9 -20 3 -0 -13 -18 -13 11 16 24 31 29
4 16 14 -20 -20 -18 -16 -20 -20 -20 -18 -20 -20 -20 -20 -20 -20 -20 -20 -20 -20 -20 -20 -20 -20 -20 -20 -20 -20 -20 -20 -20 -20 -20 -20 -13 -5 2 -3 1 -16 -1 9 -1
-8 -16 -8 -19 -20 -20 -20 -20 -20 -20 -20 -20 -20 -20 -20 -20 -20 -20 -20 -20 -20 -20 -20 -20 -20 -20 -20 -20 -20 -20 -20 -20 -20 -20 -20 -20 -20 -19 -19 -20 -20 -20 -18 -16
-9 -19 -18 -20 9 -18 -20 -20 -20 -20 -18 -20 -20 -20 -20 -20 -10 -20 -20 -10 -20 -20 -20 -20 -20 -20 -20 -20 -20 -20 -20 -20 -20 -20 -20 -20 -20 -20 -20 -20 -20 -20 -20 -20
-20 -20 -20 -20 -20 -16 -20 -20 -20 -20 -20 -20 -20 -20 -20 -20 -20 -20 -20 -20 -20 -20 -20 -20 -20 -20 -20 -20 -20 -20 -20 -20 -20 -20 -20 -20 -20 -20 -20 -20 -20 -20 -20 -20
-17 -12 7 -2 -11 -9 -20 -20 -20 -20 -20 -20 -20 -20 -20 -20 -10 -20 -20 -20 -20 -20 -20 -20 -20 -20 -20 -20 -20 -20 -20 -20 -20 -20 -20 -20 -20 -20 -20 -20 -20 -20 -20 -20
21 -20 -19 -20 -20 -20 -20 -15 -20 -20 -20 -20 -20 -20 -7 11 8 -20 -20 -20 -19 -20 -20 -20 -20 -20 -20 -20 -20 -20 -20 -20 -20 -20 -20 -20 -20 -20 -20 -20 -20 -20 -20 -20
-20 -20 -20 -20 -18 -20 -6 -7 -19 -20 -17 -20 -20 -8 11 12 3 -6 -2 -3 -3 -20 -20 -20 -20 -20 -20 -20 -20 -20 -20 -20 -20 -20 -20 -20 -20 -20 -20 -20 -20 -20 -20 -20
-19 -20 -20 -20 -12 -4 6 -10 -6 1 5 1 3 -1 1 9 8 0 1 1 -3 -19 -20 -20 -20 -20 -20 -20 -20 -20 -20 -20 -20 -20 -20 -20 -20 -20 -20 -20 -20 -20 -20 -20
-20 -20 -20 -20 -20 -20 -20 -19 -20 -18 -15 -19 6 14 18 13 9 4 -1 -14 -20 -20 -20 -20 -20 -20 -20 -20 -20 -20 -20 -20 -20 -20 -20 -20 -20 -20 -20 -20 -20 -20 -20 -20

GFSCGP_prec_radar_132.txt.gz
Reflectivity
-20 -20 -20 -20 -20 -20 -20 -20 -20 -20 -20 -20 -20 -20 -20 -20 -20 -20 -20 -20 -20 -20 -20 -20 -20 -20 -20 -20 -20 -20 -20 -20 -20 -20 -20 -20 -20 -20 -20 -20 -20 -20 -6 24
-20 -20 -20 -20 -20 -20 -20 -20 -20 -20 -20 -20 -20 -20 -20 -20 -20 -20 -20 -20 -20 -20 -20 -20 -20 -20 -20 -20 -20 -20 -20 -20 -20 -20 -20 -20 -20 -20 -20 -20 -20 -20 15 22
-20 -20 -20 -20 -20 -20 -20 -20 -20 -20 -20 -20 -20 -20 -20 -20 -20 -20 -20 -20 -20 -20 -20 -20 -20 -20 -20 -20 -20 -20 -20 -20 -20 -20 -20 -20 -20 -20 -20 -20 -20 -20 -11 22
-20 -20 -20 -20 -20 -20 -20 -20 -20 -20 -20 -20 -20 -20 -20 -20 -20 -20 -20 -20 -20 -20 -20 -20 -20 -20 -20 -20 -20 -20 -20 -20 -20 -20 -20 -20 -20 -20 -20 -20 -20 -20 -20 -14
-20 -20 -20 -20 -20 -20 -20 -20 -20 -20 -20 -20 -20 -20 -20 -20 -20 -20 -20 -20 -20 -20 -20 -20 -20 -20 -20 -20 -20 -20 -20 -20 12 -6 10 10 10 -16 -20 -20 -20 -20 -20 -20
-20 -20 -20 -20 -20 -20 -20 -20 -20 -20 -20 -20 -20 -20 -20 -20 -20 -20 -20 -20 -20 -20 -20 -20 -20 -20 -20 -20 -20 -20 -20 -20 -20 1 -1 14 12 2 7 -20 -20 -20 -20 -20
-20 -20 -20 -20 -20 -20 -20 -20 -20 -20 -20 -20 -20 -20 -20 -20 -20 -20 -20 -20 -20 -20 -20 -20 -20 -20 -20 -20 -20 -20 -20 -15 -20 -18 -17 11 -1 1 14 5 2 -9 -20 -20
-20 -20 -20 -20 -20 -20 -20 -16 -20 -20 -20 -20 -20 -20 -20 -20 -20 -20 -20 -20 -20 -20 -20 -20 -20 -20 -20 -12 -20 -20 -9 15 -4 -13 -2 -9 2 5 1 4 -18 -20 -20 -20
-20 -20 -20 -20 -20 -20 -20 -13 -11 -17 -20 -18 -20 -20 -20 -20 -20 -20 -20 -20 -20 -20 -20 -20 -20 -20 -20 -19 -17 10 25 15 -18 -10 -1 8 -0 -16 -7 6 15 -13 -3 -20
-20 -20 -20 -20 0 -20 -20 -3 -20 -20 -12 -11 -20 -20 -20 -20 -20 -20 -20 -20 -20 -20 -20 -20 -20 -20 -20 -17 2 -8 10 6 -12 0 1 7 7 -4 6 16 10 0 13 -20
-20 -20 -20 -20 -6 13 -20 -20 -20 -20 -20 3 -20 -20 -20 -20 -20 -20 -20 -20 -20 -20 -20 -20 -20 -20 -20 -20 -20 -20 1 5 16 12 6 18 23 18 23 19 -1 17 6 12
-20 -20 -20 -19 8 -14 -18 -8 2 -18 -8 -20 -20 -20 -20 -20 -20 -20 -20 -20 -20 -20 -20 -20 -20 -20 -20 -20 -20 -20 -18 7 34 23 19 27 33 33 30 31 26 10 3 -20
-20 -20 -20 -19 0 -18 4 -20 -14 -20 -20 -18 -20 -20 -20 -20 -20 -20 -20 -20 -20 -20 -20 -20 -20 -20 -20 -20 -20 -20 8 5 32 38 38 34 38 36 39 33 28 28 18 16
-20 -16 -20 -20 -12 -20 -16 12 2 16 -7 -20 -20 -20 -20 -20 -20 -20 -20 -20 -20 -20 -20 -20 -20 -20 -20 -20 -20 -20 -17 14 31 34 39 37 38 40 37 33 25 26 12 13
-20 -20 -20 -20 -20 -20 -20 -20 -16 -17 -3 12 -20 -20 -20 -20 -20 -20 -20 -20 -20 -20 -20 -20 -20 -20 -20 -20 -10 5 -20 -10 -5 11 22 33 41 37 37 28 33 26 -11 -13
-20 -20 -20 -20 -20 -20 -20 -20 -20 -20 -20 -20 -20 -20 -20 -20 -20 -20 -20 -20 -20 -20 -20 -20 -20 -20 -20 -20 -20 -20 -20 -20 4 12 -10 -6 -5 25 30 29 16 2 -10 -20
-20 -20 -20 -20 -20 -18 -4 -20 -20 -20 -20 -20 -20 -20 -20 -20 -20 -20 -20 -20 -20 -20 -20 -20 -20 -20 -20 -20 -20 -20 -20 -20 -20 -10 -16 5 11 6 10 2 13 -9 -20 -9
-20 -20 -4 -0 11 -2 -20 -20 -20 -20 -20 -20 -20 -20 -20 -20 -20 -20 -20 -20 -20 -20 -20 -20 -20 -20 -20 -20 -20 -20 -20 -20 -20 -20 -17 -20 -1 3 -20 -20 -19 -5 -8 -18
-20 -2 15 8 -19 -20 -20 -20 -20 -20 -20 -20 -20 -20 -20 -20 -20 -20 -20 -20 -20 -20 -20 -20 -20 -20 -20 -20 -20 -20 -20 -20 -20 -20 -15 -20 -20 -11 -20 -20 -20 -20 -17 4
-20 -20 3 15 7 -1 -20 -20 -20 -20 -20 -20 -20 -20 -20 -20 -20 -20 -20 -20 -20 -20 -20 -20 -20 -20 -20 -20 -20 -20 -20 -20 -20 -20 -20 -20 -20 -20 -20 -20 -20 -20 -20 -19
-17 3 -12 -3 -7 -20 -20 -20 -20 -20 -20 -20 -20 -20 -20 -20 -20 -20 -20 -20 -20 -20 -20 -20 -20 -20 -20 -20 -20 -20 -20 -20 -20 -20 -20 -20 -20 -20 -20 -20 -20 -20 -20 -20
0 -13 -20 -8 9 -16 -20 -20 -20 -20 -20 -20 -20 -20 -20 -20 -16 -11 -20 -20 -13 -10 -20 -20 -20 -20 -20 -20 -20 -20 -20 -20 -20 -20 -20 -20 -20 -20 -20 -20 -20 -20 -20 -20
-1 -0 -0 -20 -20 -20 -3 -20 -20 -20 -20 -20 -20 -20 -20 -20 -12 -19 -20 -1 -0 -2 -9 -20 -20 -20 -20 -20 -20 -20 -20 -20 -20 -20 -20 -20 -20 -20 -20 -20 -20 -20 -20 -20
28 8 6 -20 -20 -20 -20 -7 -20 -20 -20 -20 -20 -20 -7 0 7 -17 -13 11 10 5 3 -13 -10 -20 -20 -20 -20 -20 -20 -20 -20 -20 -20 -20 -20 -20 -20 -20 -20 -20 -20 -20
-3 -7 -20 -20 -11 -20 -3 -20 -20 -20 -20 -20 -20 -20 -20 -17 -10 -12 15 15 12 4 -7 -20 -8 -16 -20 -20 -20 -20 -20 -20 -20 -20 -20 -20 -20 -20 -20 -20 -20 -20 -20 -20
-20 -20 -20 -20 -20 -20 -20 -20 -13 -20 -15 -20 -18 -10 -20 -20 -1 12 16 14 4 -0 -10 -19 -20 -20 -20 -20 -20 -20 -20 -20 -20 -20 -20 -20 -20 -20 -20 -20 -20 -20 -5 6

GFSCGP_prec_radar_135.txt.gz
Reflectivity
-20 -20 -20 -20 -20 -20 -20 -20 -20 -20 -20 -20 -20 -20 -20 -20 -20 -20 -20 -20 -20 -20 -20 -20 -20 -20 -20 -20 -20 -20 -20 -20 -20 -20 -20 -20 -20 -20 -20 -20 -20 -20 -20 -20
-20 -20 -20 -20 -20 -20 -20 -20 -20 -20 -20 -20 -20 -20 -20 -20 -20 -20 -20 -20 -20 -20 -20 -20 -20 -20 -20 -20 -20 -20 -20 -20 -20 -20 -20 -20 -20 -20 -20 -20 -20 -20 -20 -20
-20 -20 -20 -20 -20 -20 -20 -20 -20 -20 -20 -20 -20 -20 -20 -20 -20 -20 -20 -20 -20 -20 -20 -20 -20 -20 -20 -20 -20 -20 -20 -20 -20 -20 -20 -20 -20 -20 -20 -20 -20 -20 -20 -20
-20 -20 -20 -20 -20 -20 -20 -20 -20 -20 -20 -20 -20 -20 -20 -20 -20 -20 -20 -20 -20 -20 -20 -20 -20 -20 -20 -20 -20 -20 -20 -20 -20 -20 -20 -20 -1 11 1 -5 -20 -20 -5 -20
-20 -20 -20 -20 -20 -20 -20 -20 -20 -20 -20 -20 -20 -20 -20 -20 -20 -20 -20 -20 -20 -20 -20 -20 -20 -20 -20 -20 -20 -20 -20 -20 -20 -10 -10 -17 -18 -12 15 13 -7 -20 -20 -20
-20 -20 -20 -20 -20 -20 -20 -20 -20 -20 -20 -20 -20 -20 -20 -20 -20 -20 -20 -20 -20 -20 -20 -20 -20 -20 -20 -20 -20 -20 -20 -20 -20 -20 -7 6 7 4 11 11 5 -20 -20 -20
-20 -20 -20 -20 -20 -20 -20 -20 -20 -20 -20 -20 -20 -20 -20 -20 -20 -20 -20 -20 -20 -20 -20 -20 -20 -20 -20 -20 -20 -20 -18 -20 -20 -20 -3 -19 3 12 15 13 16 2 -16 -20
-20 -20 -20 -20 -20 -20 -20 -20 -20 -20 -20 -20 -20 -20 -20 -4 -20 -20 -20 -20 -20 -20 -20 -20 -20 -20 -20 -20 -20 -15 -5 -20 -17 -20 -11 2 7 13 0 25 18 13 0 -15
-20 -20 -20 -20 -20 -20 -20 -20 3 7 -20 -20 -20 -20 -20 -20 -20 -20 -20 -20 -20 -20 -20 -20 -20 -20 -20 -20 -20 -8 0 -20 1 0 3 4 7 3 9 11 22 17 18 -4
-20 -20 -20 -20 -20 -20 4 -0 -16 16 15 -1 -20 -20 -20 -20 -19 -20 -20 -20 -20 -20 -20 -20 -20 -20 -20 -20 -20 -20 -20 -20 -12 -7 -3 10 23 -0 1 21 25 20 15 7
-20 -20 -20 -20 -20 -20 -17 -20 -2 7 -20 -2 -20 -20 -20 -10 -20 -20 -20 -20 -20 -20 -20 -20 -20 -20 -20 -20 -20 -20 -20 -20 -9 15 0 18 12 -7 -4 14 27 30 27 12
-20 -20 -20 -20 -20 -20 -20 -20 -19 25 11 -18 -20 -20 -8 -19 -20 -20 -20 -20 -20 -20 -20 -20 -20 -20 -20 -20 -20 -20 -20 -20 -16 24 14 19 24 16 9 15 28 33 18 -14
-20 -20 -20 -20 -20 -20 -20 -19 -20 24 22 15 4 -13 -16 -20 -20 -20 -20 -20 -20 -20 -20 -20 -20 -20 -20 -20 -20 -20 -20 -20 -20 4 27 19 30 28 20 27 20 31 34 31
-20 -20 -20 -20 -20 -8 -20 -8 -20 -20 -20 5 -11 -20 -20 -20 -20 -20 -20 -20 -20 -20 -20 -20 -20 -20 -20 -20 -20 -20 -20 -20 -16 1 5 24 26 29 27 21 30 31 36 34
-20 -20 -20 -20 -14 -9 -20 -20 -5 -8 -20 -5 -20 -20 -20 -20 -20 -20 -20 -20 -20 -20 -20 -20 -20 -20 -20 -20 -20 -20 -20 -20 -20 -19 -19 -7 25 32 32 34 34 39 30 32
-20 -20 -20 -20 -20 -20 -20 -20 -20 -20 -20 -20 -20 -20 -20 -20 -20 -20 -20 -20 -20 -20 -20 -20 -20 -20 -20 -20 -20 -20 -20 -20 -20 -20 -20 -20 -1 15 26 25 33 23 33 33
-20 -20 -20 -20 -20 -20 -15 -20 -20 -20 -20 -20 -20 -20 -20 -20 -20 -20 -20 -20 -20 -20 -20 -20 -20 -20 -20 -20 -20 -20 -20 -20 -20 -20 -20 -13 2 -6 -4 19 23 27 22 21
-20 -20 -20 -2 -16 -3 -20 -20 -20 -20 -20 -20 -20 -20 -20 -20 -20 -20 -20 -20 -20 -20 -20 -20 -20 -20 -20 -20 -20 -20 -20 -20 -20 -20 -20 -20 -11 9 -4 -10 -1 -20 6 6
-20 -20 1 5 -19 -20 -20 -20 -20 -20 -20 -20 -20 -20 -20 -20 -20 -20 -20 -20 -20 -20 -20 -20 -20 -20 -20 -20 -20 -20 -20 -20 -20 -20 -20 -20 -20 -18 5 -1 1 -20 -8 -14
-20 -20 2 10 14 16 -20 -20 -20 -20 -20 -20 -20 -20 -20 -20 -20 -20 -20 -20 -20 -20 -20 -20 -20 -20 -20 -20 -20 -20 -20 -20 -20 -20 -20 -20 -20 -20 -20 -6 -5 -2 -20 -20
-20 -20 9 11 13 -11 -20 -20 -20 -20 -20 -20 -20 -20 -20 -20 -20 -20 -20 -20 -20 -20 -20 -20 -20 -20 -20 -20 -20 -20 -20 -20 -20 -20 -20 -20 -20 -20 -20 -20 -20 -20 -20 -20
-20 2 -18 -4 1 -19 -3 -16 -20 -20 -20 -20 -20 -20 -20 -20 -20 -20 -20 -20 -18 -20 -20 -20 -20 -20 -20 -20 -20 -20 -20 -20 -20 -20 -20 -20 -20 -20 -20 -20 -20 -20 -20 -20
5 -14 -18 -7 -8 4 -18 -20 -20 -20 -20 -20 -20 -20 -20 -20 -20 -20 -20 -20 2 -19 -20 -20 -20 -20 -8 -20 -20 -20 -20 -20 -20 -20 -20 -20 -20 -20 -20 -20 -20 -20 -20 -20
11 -16 14 18 7 7 -20 -18 -11 -20 -20 -20 -20 -20 -20 -20 -20 -20 -20 -20 -1 -5 -6 -10 -19 -20 -20 -20 -9 -18 -20 -20 -20 -20 -20 -20 -20 -20 -20 -20 -6 -20 -16 -20
-20 4 13 15 -19 -20 -20 -20 -20 -20 -20 -20 -20 -20 -20 -20 -20 -20 -20 -3 0 -14 1 -2 -11 -19 -20 -20 -20 -16 -20 -20 -20 -20 -20 -20 -20 -20 -20 -20 -20 -20 -11 5
-20 16 5 -20 -20 -15 -20 -20 -20 -20 -20 -20 -20 -20 -14 -19 -20 -20 -12 -18 -20 -6 0 -6 -18 -20 -20 -20 -20 -20 -20 -20 -20 -20 -20 -20 -20 -20 -20 -20 -20 -20 -20 0

GFSCGP_prec_radar_138.txt.gz
Reflectivity
-20 -20 -20 -10 -20 -20 -20 -20 -20 -20 -20 -20 -20 -20 -20 -20 -20 -20 -20 -20 -20 -20 -20 -20 -20 -20 -20 -20 -20 -20 -20 -20 -20 -20 -20 -20 -20 -20 -20 -20 -20 -20 -20 -20
-20 -20 -20 -20 -20 -20 -20 -20 -20 -20 -20 -20 -20 -20 -20 -20 -20 -20 -20 -20 -20 -20 -20 -20 -20 -20 -20 -20 -20 -20 -20 -20 -20 -20 -20 -20 -20 -20 -20 -20 -20 -20 -10 -20
-20 -20 -20 -20 -20 -20 -20 -20 -20 -20 -20 -20 -20 -20 -20 -20 -20 -20 -20 -20 -20 -20 -20 -20 -20 -20 -20 -20 -20 -20 -20 -20 -20 -20 -20 -20 -20 -20 -12 -20 -20 -20 -20 -20
-20 -20 -20 -20 -20 -20 -20 -20 -20 -20 -20 -20 -20 -20 -20 -20 -20 -20 -20 -20 -20 -20 -20 -20 -20 -20 -20 -20 -20 -20 -20 -20 -20 -20 -15 -19 -5 -20 2 -14 -20 -20 -20 -20
-20 -20 -20 -20 -20 -20 -20 -20 -20 -20 -20 -20 -20 -20 -20 -20 -20 -20 -20 -20 -20 -20 -20 -20 -20 -20 -20 -20 -20 -20 -20 -20 -20 -20 -16 2 -9 -1 -9 5 3 -17 -16 -20
-20 -20 -20 -20 -20 -20 -20 -20 -20 -20 -20 -20 -20 -20 -20 -20 -20 -20 -20 -20 -20 -20 -20 -20 -20 -20 -20 -20 -20 -20 -20 -20 -20 -15 6 5 7 7 8 -6 -20 -9 6 -17
-20 -20 -20 -20 -20 -20 -20 -20 -20 -20 -20 -20 -20 -20 -20 -20 -20 -20 -20 -20 -20 -20 -20 -20 -20 -20 -20 -20 -20 -20 -20 -20 -20 -20 -8 4 -4 8 15 1 8 8 2 3
-20 -20 -20 -20 -20 -20 -20 -20 -20 -20 -20 -20 -20 -20 -20 -20 -20 -20 -20 -20 -20 -20 -20 -20 -20 -20 -20 -20 -20 -20 -20 -20 -20 -3 2 6 6 7 12 6 5 14 19 6
-20 -20 -20 -20 -20 -20 -20 -20 -20 -20 -20 -20 -20 -20 -20 -20 -20 -20 -20 -20 -20 -20 -20 -20 -20 -20 -20 -20 -20 -20 -20 -20 -20 -19 6 7 6 -13 8 5 -4 10 14 14
-20 -20 -20 -20 -20 -20 -20 -20 -20 -20 -6 -19 -20 -20 -20 -20 -19 -20 -20 -20 -20 -20 -20 -20 -20 -20 -20 -20 -20 -20 -20 -20 -20 -20 -3 10 9 4 7 1 3 11 9 13
-20 -20 -20 -20 -20 -20 -20 -20 -20 -10 11 -13 -20 -20 -20 -18 -20 -20 -20 -20 -20 -20 -20 -20 -20 -20 -20 -20 -20 -20 -20 -20 -20 -20 -9 6 3 7 -3 14 11 27 26 27
-20 -20 -20 -20 -20 -20 -20 -20 -20 -20 -18 9 21 -12 -20 -20 -20 -20 -20 -20 -20 -20 -20 -20 -20 -20 -20 -20 -20 -20 -20 -20 -20 -20 -19 -8 12 4 -2 17 3 20 29 22
-20 -20 -20 -20 -20 -20 -20 -20 -20 -20 -20 -20 -20 -20 -20 -11 -9 -19 -20 -20 -20 -20 -20 -20 -20 -20 -20 -20 -20 -20 -20 -20 -20 -20 -20 -16 1 1 13 13 11 24 13 17
-20 -20 -12 -5 -20 -12 -20 -20 -18 -4 -6 -20 -20 -20 -19 -10 -20 -20 -20 -20 -20 -20 -20 -20 -20 -20 -20 -20 -20 -20 -20 -20 -20 -20 -20 -1 -0 9 21 23 26 25 27 18
-13 -20 -20 -11 -2 7 -20 -20 -20 -20 -20 -7 -18 -16 -20 -20 -20 -20 -20 -20 -20 -20 -20 -20 -20 -20 -20 -20 -20 -20 -20 -20 -20 -20 -20 -19 11 11 15 18 26 30 32 34
-20 -20 -20 -20 -20 -20 -20 -20 -20 -20 -20 -20 -20 -19 -11 -18 -20 -20 -20 -20 -20 -20 -20 -20 -20 -20 -20 -20 -20 -20 -20 -20 -20 -20 -20 -20 -20 13 8 7 20 19 29 30
-19 -20 -20 -20 -20 -20 -19 -20 -20 -20 -20 -20 -20 -20 -20 -20 -20 -20 -20 -20 -20 -20 -20 -20 -20 -20 -20 -20 -20 -20 -20 -20 -20 -20 -20 -20 -20 -11 -7 -1 12 17 17 23
-20 -20 -20 -10 -20 -12 -20 -20 -20 -20 -20 -20 -20 -20 -20 -20 -20 -20 -20 -20 -20 -20 -20 -20 -20 -20 -20 -20 -20 -20 -20 -20 -20 -20 -20 -20 -20 -19 -8 -17 -19 -19 0 2
-20 -17 -18 14 -19 -20 -20 -20 -20 -20 -20 -20 -20 -20 -20 -20 -20 -20 -20 -20 -20 -20 -20 -20 -20 -20 -20 -20 -20 -20 -20 -20 -20 -20 -20 -20 -20 -20 -19 -15 -15 -17 -7 -9
-20 -20 -20 -16 6 5 -20 -20 -20 -20 -20 -20 -20 -20 -20 -20 -20 -20 -20 -20 -20 -20 -20 -20 -20 -20 -20 -20 -20 -20 -20 -20 -20 -20 -20 -20 -20 -20 -20 -20 -20 -5 -20 -20
-20 -20 -20 -20 11 -6 -20 -11 -20 -20 -20 -20 -20 -20 -20 -20 -20 -20 -20 -20 -20 -20 -20 -20 -20 -20 -20 -20 -20 -20 -20 -20 -20 -20 -20 -20 -20 -20 -20 -20 -20 -20 -20 -20
-20 -9 -15 -16 11 -9 -4 -19 -20 -12 -20 -20 -20 -20 -20 -20 -20 -20 -20 -20 -20 -20 -20 -20 -20 -20 -20 -20 -20 -20 -20 -20 -20 -20 -20 -20 -20 -13 -10 -20 -20 -20 -20 -20
-20 -20 -20 -15 -20 -11 3 10 -20 -20 -20 -20 -20 -20 -20 -20 -20 -20 -20 -20 -20 -20 -20 -20 -20 -20 -20 -20 -20 -20 -20 -18 -5 -20 -20 -20 -20 -20 -20 -11 -19 -20 -20 -20
-20 -20 -20 -19 -17 4 -19 -5 -19 9 -14 -20 -20 -20 -20 -20 -20 -20 -20 -19 -17 -20 -20 -20 -20 -20 -20 -20 -19 -20 -20 -20 -16 -9 -20 -20 -20 -20 -20 -20 -20 -2 -1 -14
-20 -13 -16 -14 -20 -11 -20 -20 -10 -20 -20 -20 -20 -20 -20 -20 -20 -20 -20 2 -19 -20 -20 -20 -20 -20 -17 -17 -20 -20 -20 -20 -20 -20 -20 -20 -20 -20 -20 -20 -20 -20 -15 -12
-20 -20 -10 -16 -2 -12 -20 -20 -20 -20 -20 -20 -20 -20 -20 -20 -20 -20 -18 -18 -20 -20 -20 -20 -20 -20 -20 -20 -20 -20 -20 -20 -20 -20 -20 -20 -20 -20 -20 -20 -20 -20 -20 -20